<?xml version="1.0" encoding="UTF-8" standalone="no" ?>
<gpx xmlns="http://www.topografix.com/GPX/1/1" xmlns:xsi="http://www.w3.org/2001/XMLSchema-instance" xsi:schemaLocation="http://www.topografix.com/GPX/1/1 http://www.topografix.com/GPX/1/1/gpx.xsd" version="1.1" creator="VisuGPX - https://www.visugpx.com">
  <metadata>
    <name>boucle de l'Yerres et du Reveillon</name>
    <desc><![CDATA[ belle rando qui fait passer des boucles de l'yerres au boucles du  Réveillon en passant pas la forêt 
 18KMs 400 en réel 
 melange de chemin et sentier sympa avec un peu de route pour traverser Mandres les roses
 rando a faire en période séche de préference ]]></desc>
  </metadata>
  <trk>
    <name><![CDATA[boucle de l'Yerres et du Reveillon]]></name>
    <extensions>
      <line xmlns="http://www.topografix.com/GPX/gpx_style/0/2">
        <color>0000FF</color>
        <width>4</width>
      </line>
    </extensions>
    <trkseg>
      <trkpt lat="48.70769" lon="2.499">
        <ele>49.12</ele>
        <time>2021-07-20T07:34:57Z</time>
      </trkpt>
      <trkpt lat="48.70769" lon="2.499">
        <ele>49.12</ele>
        <time>2021-07-20T07:34:58Z</time>
      </trkpt>
      <trkpt lat="48.70769" lon="2.499">
        <ele>35.81</ele>
        <time>2021-07-20T07:35:01Z</time>
      </trkpt>
      <trkpt lat="48.70769" lon="2.499">
        <ele>35.81</ele>
        <time>2021-07-20T07:35:02Z</time>
      </trkpt>
      <trkpt lat="48.70768" lon="2.499">
        <ele>35.83</ele>
        <time>2021-07-20T07:35:17Z</time>
      </trkpt>
      <trkpt lat="48.70768" lon="2.49902">
        <ele>35.83</ele>
        <time>2021-07-20T07:35:32Z</time>
      </trkpt>
      <trkpt lat="48.70768" lon="2.49903">
        <ele>35.83</ele>
        <time>2021-07-20T07:35:46Z</time>
      </trkpt>
      <trkpt lat="48.7077" lon="2.499">
        <ele>35.81</ele>
        <time>2021-07-20T07:36:05Z</time>
      </trkpt>
      <trkpt lat="48.70773" lon="2.49897">
        <ele>35.78</ele>
        <time>2021-07-20T07:36:22Z</time>
      </trkpt>
      <trkpt lat="48.70775" lon="2.49887">
        <ele>35.77</ele>
        <time>2021-07-20T07:36:31Z</time>
      </trkpt>
      <trkpt lat="48.70776" lon="2.49874">
        <ele>35.76</ele>
        <time>2021-07-20T07:36:40Z</time>
      </trkpt>
      <trkpt lat="48.70777" lon="2.49872">
        <ele>35.74</ele>
        <time>2021-07-20T07:36:49Z</time>
      </trkpt>
      <trkpt lat="48.70779" lon="2.49864">
        <ele>35.72</ele>
        <time>2021-07-20T07:36:58Z</time>
      </trkpt>
      <trkpt lat="48.70775" lon="2.49854">
        <ele>35.71</ele>
        <time>2021-07-20T07:37:05Z</time>
      </trkpt>
      <trkpt lat="48.70767" lon="2.49854">
        <ele>36.59</ele>
        <time>2021-07-20T07:37:12Z</time>
      </trkpt>
      <trkpt lat="48.70757" lon="2.49854">
        <ele>36.58</ele>
        <time>2021-07-20T07:37:22Z</time>
      </trkpt>
      <trkpt lat="48.70755" lon="2.49856">
        <ele>36.57</ele>
        <time>2021-07-20T07:37:25Z</time>
      </trkpt>
      <trkpt lat="48.70748" lon="2.49863">
        <ele>36.56</ele>
        <time>2021-07-20T07:37:33Z</time>
      </trkpt>
      <trkpt lat="48.70745" lon="2.49873">
        <ele>37.32</ele>
        <time>2021-07-20T07:37:41Z</time>
      </trkpt>
      <trkpt lat="48.70739" lon="2.49876">
        <ele>37.31</ele>
        <time>2021-07-20T07:37:49Z</time>
      </trkpt>
      <trkpt lat="48.7073" lon="2.49874">
        <ele>37.3</ele>
        <time>2021-07-20T07:37:56Z</time>
      </trkpt>
      <trkpt lat="48.70724" lon="2.49874">
        <ele>37.28</ele>
        <time>2021-07-20T07:38:05Z</time>
      </trkpt>
      <trkpt lat="48.70719" lon="2.49864">
        <ele>37.23</ele>
        <time>2021-07-20T07:38:17Z</time>
      </trkpt>
      <trkpt lat="48.70716" lon="2.49853">
        <ele>37.19</ele>
        <time>2021-07-20T07:38:27Z</time>
      </trkpt>
      <trkpt lat="48.70715" lon="2.49838">
        <ele>37.16</ele>
        <time>2021-07-20T07:38:38Z</time>
      </trkpt>
      <trkpt lat="48.70711" lon="2.49826">
        <ele>34.81</ele>
        <time>2021-07-20T07:38:47Z</time>
      </trkpt>
      <trkpt lat="48.70707" lon="2.49809">
        <ele>34.73</ele>
        <time>2021-07-20T07:38:57Z</time>
      </trkpt>
      <trkpt lat="48.70699" lon="2.4979">
        <ele>34.6</ele>
        <time>2021-07-20T07:39:10Z</time>
      </trkpt>
      <trkpt lat="48.70688" lon="2.49781">
        <ele>33.66</ele>
        <time>2021-07-20T07:39:23Z</time>
      </trkpt>
      <trkpt lat="48.70683" lon="2.49781">
        <ele>32.7</ele>
        <time>2021-07-20T07:39:33Z</time>
      </trkpt>
      <trkpt lat="48.70672" lon="2.4978">
        <ele>32.53</ele>
        <time>2021-07-20T07:39:44Z</time>
      </trkpt>
      <trkpt lat="48.70661" lon="2.49777">
        <ele>32.33</ele>
        <time>2021-07-20T07:39:57Z</time>
      </trkpt>
      <trkpt lat="48.70657" lon="2.4977">
        <ele>32.13</ele>
        <time>2021-07-20T07:40:08Z</time>
      </trkpt>
      <trkpt lat="48.7065" lon="2.49767">
        <ele>31.95</ele>
        <time>2021-07-20T07:40:19Z</time>
      </trkpt>
      <trkpt lat="48.70642" lon="2.49755">
        <ele>31.77</ele>
        <time>2021-07-20T07:40:31Z</time>
      </trkpt>
      <trkpt lat="48.70637" lon="2.49745">
        <ele>31.59</ele>
        <time>2021-07-20T07:40:43Z</time>
      </trkpt>
      <trkpt lat="48.70625" lon="2.49727">
        <ele>31.47</ele>
        <time>2021-07-20T07:40:52Z</time>
      </trkpt>
      <trkpt lat="48.70619" lon="2.49721">
        <ele>31.4</ele>
        <time>2021-07-20T07:40:59Z</time>
      </trkpt>
      <trkpt lat="48.70612" lon="2.49718">
        <ele>31.31</ele>
        <time>2021-07-20T07:41:08Z</time>
      </trkpt>
      <trkpt lat="48.70607" lon="2.49718">
        <ele>31.24</ele>
        <time>2021-07-20T07:41:14Z</time>
      </trkpt>
      <trkpt lat="48.70593" lon="2.49718">
        <ele>31.09</ele>
        <time>2021-07-20T07:41:26Z</time>
      </trkpt>
      <trkpt lat="48.70589" lon="2.49715">
        <ele>33.49</ele>
        <time>2021-07-20T07:41:30Z</time>
      </trkpt>
      <trkpt lat="48.70581" lon="2.49709">
        <ele>34.26</ele>
        <time>2021-07-20T07:41:38Z</time>
      </trkpt>
      <trkpt lat="48.70579" lon="2.49708">
        <ele>34.23</ele>
        <time>2021-07-20T07:41:40Z</time>
      </trkpt>
      <trkpt lat="48.70571" lon="2.49702">
        <ele>35</ele>
        <time>2021-07-20T07:41:52Z</time>
      </trkpt>
      <trkpt lat="48.70559" lon="2.49695">
        <ele>34.69</ele>
        <time>2021-07-20T07:42:06Z</time>
      </trkpt>
      <trkpt lat="48.70543" lon="2.49685">
        <ele>34.57</ele>
        <time>2021-07-20T07:42:18Z</time>
      </trkpt>
      <trkpt lat="48.70538" lon="2.49681">
        <ele>34.52</ele>
        <time>2021-07-20T07:42:21Z</time>
      </trkpt>
      <trkpt lat="48.70532" lon="2.49677">
        <ele>32.04</ele>
        <time>2021-07-20T07:42:27Z</time>
      </trkpt>
      <trkpt lat="48.7052" lon="2.49674">
        <ele>31.14</ele>
        <time>2021-07-20T07:42:39Z</time>
      </trkpt>
      <trkpt lat="48.7051" lon="2.49678">
        <ele>31.04</ele>
        <time>2021-07-20T07:42:50Z</time>
      </trkpt>
      <trkpt lat="48.70496" lon="2.49675">
        <ele>30.98</ele>
        <time>2021-07-20T07:43:01Z</time>
      </trkpt>
      <trkpt lat="48.70483" lon="2.49671">
        <ele>30.13</ele>
        <time>2021-07-20T07:43:10Z</time>
      </trkpt>
      <trkpt lat="48.70476" lon="2.49671">
        <ele>30.09</ele>
        <time>2021-07-20T07:43:16Z</time>
      </trkpt>
      <trkpt lat="48.70465" lon="2.49668">
        <ele>30.03</ele>
        <time>2021-07-20T07:43:23Z</time>
      </trkpt>
      <trkpt lat="48.70451" lon="2.49664">
        <ele>29.95</ele>
        <time>2021-07-20T07:43:33Z</time>
      </trkpt>
      <trkpt lat="48.70443" lon="2.49659">
        <ele>29.9</ele>
        <time>2021-07-20T07:43:40Z</time>
      </trkpt>
      <trkpt lat="48.70433" lon="2.4965">
        <ele>29.83</ele>
        <time>2021-07-20T07:43:51Z</time>
      </trkpt>
      <trkpt lat="48.70425" lon="2.49639">
        <ele>29.68</ele>
        <time>2021-07-20T07:44:02Z</time>
      </trkpt>
      <trkpt lat="48.70415" lon="2.49634">
        <ele>29.65</ele>
        <time>2021-07-20T07:44:14Z</time>
      </trkpt>
      <trkpt lat="48.70411" lon="2.4963">
        <ele>29.66</ele>
        <time>2021-07-20T07:44:21Z</time>
      </trkpt>
      <trkpt lat="48.7041" lon="2.49622">
        <ele>29.6</ele>
        <time>2021-07-20T07:44:28Z</time>
      </trkpt>
      <trkpt lat="48.70408" lon="2.4961">
        <ele>29.57</ele>
        <time>2021-07-20T07:44:37Z</time>
      </trkpt>
      <trkpt lat="48.70406" lon="2.49589">
        <ele>29.47</ele>
        <time>2021-07-20T07:44:50Z</time>
      </trkpt>
      <trkpt lat="48.70405" lon="2.49565">
        <ele>29.37</ele>
        <time>2021-07-20T07:45:02Z</time>
      </trkpt>
      <trkpt lat="48.70407" lon="2.49549">
        <ele>29.29</ele>
        <time>2021-07-20T07:45:14Z</time>
      </trkpt>
      <trkpt lat="48.70406" lon="2.49545">
        <ele>29.31</ele>
        <time>2021-07-20T07:45:17Z</time>
      </trkpt>
      <trkpt lat="48.70405" lon="2.49533">
        <ele>29.08</ele>
        <time>2021-07-20T07:45:27Z</time>
      </trkpt>
      <trkpt lat="48.70401" lon="2.49519">
        <ele>29.02</ele>
        <time>2021-07-20T07:45:38Z</time>
      </trkpt>
      <trkpt lat="48.70399" lon="2.49517">
        <ele>28.98</ele>
        <time>2021-07-20T07:45:41Z</time>
      </trkpt>
      <trkpt lat="48.70395" lon="2.49507">
        <ele>28.87</ele>
        <time>2021-07-20T07:45:51Z</time>
      </trkpt>
      <trkpt lat="48.70391" lon="2.49501">
        <ele>28.71</ele>
        <time>2021-07-20T07:46:02Z</time>
      </trkpt>
      <trkpt lat="48.7039" lon="2.495">
        <ele>28.69</ele>
        <time>2021-07-20T07:46:03Z</time>
      </trkpt>
      <trkpt lat="48.70387" lon="2.49495">
        <ele>28.53</ele>
        <time>2021-07-20T07:46:18Z</time>
      </trkpt>
      <trkpt lat="48.70389" lon="2.49491">
        <ele>28.38</ele>
        <time>2021-07-20T07:46:32Z</time>
      </trkpt>
      <trkpt lat="48.70389" lon="2.49491">
        <ele>28.34</ele>
        <time>2021-07-20T07:46:36Z</time>
      </trkpt>
      <trkpt lat="48.70383" lon="2.49483">
        <ele>28.18</ele>
        <time>2021-07-20T07:46:51Z</time>
      </trkpt>
      <trkpt lat="48.70383" lon="2.49483">
        <ele>28.11</ele>
        <time>2021-07-20T07:47:04Z</time>
      </trkpt>
      <trkpt lat="48.70384" lon="2.49478">
        <ele>28.01</ele>
        <time>2021-07-20T07:47:20Z</time>
      </trkpt>
      <trkpt lat="48.70377" lon="2.49475">
        <ele>27.93</ele>
        <time>2021-07-20T07:47:30Z</time>
      </trkpt>
      <trkpt lat="48.70367" lon="2.4947">
        <ele>27.87</ele>
        <time>2021-07-20T07:47:41Z</time>
      </trkpt>
      <trkpt lat="48.70357" lon="2.49469">
        <ele>27.87</ele>
        <time>2021-07-20T07:47:51Z</time>
      </trkpt>
      <trkpt lat="48.70346" lon="2.49462">
        <ele>27.8</ele>
        <time>2021-07-20T07:48:02Z</time>
      </trkpt>
      <trkpt lat="48.70332" lon="2.49461">
        <ele>27.75</ele>
        <time>2021-07-20T07:48:13Z</time>
      </trkpt>
      <trkpt lat="48.70321" lon="2.49462">
        <ele>27.73</ele>
        <time>2021-07-20T07:48:25Z</time>
      </trkpt>
      <trkpt lat="48.70307" lon="2.49456">
        <ele>27.62</ele>
        <time>2021-07-20T07:48:37Z</time>
      </trkpt>
      <trkpt lat="48.70293" lon="2.49456">
        <ele>27.55</ele>
        <time>2021-07-20T07:48:49Z</time>
      </trkpt>
      <trkpt lat="48.70279" lon="2.49453">
        <ele>27.55</ele>
        <time>2021-07-20T07:49:02Z</time>
      </trkpt>
      <trkpt lat="48.70265" lon="2.49454">
        <ele>27.5</ele>
        <time>2021-07-20T07:49:14Z</time>
      </trkpt>
      <trkpt lat="48.7025" lon="2.4945">
        <ele>27.47</ele>
        <time>2021-07-20T07:49:28Z</time>
      </trkpt>
      <trkpt lat="48.70236" lon="2.49448">
        <ele>27.35</ele>
        <time>2021-07-20T07:49:38Z</time>
      </trkpt>
      <trkpt lat="48.70228" lon="2.49445">
        <ele>27.33</ele>
        <time>2021-07-20T07:49:46Z</time>
      </trkpt>
      <trkpt lat="48.70218" lon="2.49446">
        <ele>27.25</ele>
        <time>2021-07-20T07:49:56Z</time>
      </trkpt>
      <trkpt lat="48.70204" lon="2.49452">
        <ele>27.28</ele>
        <time>2021-07-20T07:50:09Z</time>
      </trkpt>
      <trkpt lat="48.70194" lon="2.4946">
        <ele>29.74</ele>
        <time>2021-07-20T07:50:21Z</time>
      </trkpt>
      <trkpt lat="48.70185" lon="2.49452">
        <ele>29.66</ele>
        <time>2021-07-20T07:50:32Z</time>
      </trkpt>
      <trkpt lat="48.70174" lon="2.49443">
        <ele>30.4</ele>
        <time>2021-07-20T07:50:43Z</time>
      </trkpt>
      <trkpt lat="48.70173" lon="2.4944">
        <ele>30.37</ele>
        <time>2021-07-20T07:50:46Z</time>
      </trkpt>
      <trkpt lat="48.70169" lon="2.49429">
        <ele>30.32</ele>
        <time>2021-07-20T07:50:55Z</time>
      </trkpt>
      <trkpt lat="48.70161" lon="2.49409">
        <ele>30.27</ele>
        <time>2021-07-20T07:51:08Z</time>
      </trkpt>
      <trkpt lat="48.70157" lon="2.49403">
        <ele>30.27</ele>
        <time>2021-07-20T07:51:17Z</time>
      </trkpt>
      <trkpt lat="48.70152" lon="2.49409">
        <ele>30.29</ele>
        <time>2021-07-20T07:51:25Z</time>
      </trkpt>
      <trkpt lat="48.70145" lon="2.49408">
        <ele>28.01</ele>
        <time>2021-07-20T07:51:33Z</time>
      </trkpt>
      <trkpt lat="48.70143" lon="2.4941">
        <ele>27.91</ele>
        <time>2021-07-20T07:51:38Z</time>
      </trkpt>
      <trkpt lat="48.70135" lon="2.49425">
        <ele>26.82</ele>
        <time>2021-07-20T07:51:51Z</time>
      </trkpt>
      <trkpt lat="48.70127" lon="2.49436">
        <ele>26.86</ele>
        <time>2021-07-20T07:52:00Z</time>
      </trkpt>
      <trkpt lat="48.70113" lon="2.49454">
        <ele>26.88</ele>
        <time>2021-07-20T07:52:12Z</time>
      </trkpt>
      <trkpt lat="48.70101" lon="2.49462">
        <ele>26.87</ele>
        <time>2021-07-20T07:52:27Z</time>
      </trkpt>
      <trkpt lat="48.70092" lon="2.49467">
        <ele>26.82</ele>
        <time>2021-07-20T07:52:35Z</time>
      </trkpt>
      <trkpt lat="48.70077" lon="2.49478">
        <ele>26.75</ele>
        <time>2021-07-20T07:52:46Z</time>
      </trkpt>
      <trkpt lat="48.70069" lon="2.49497">
        <ele>26.74</ele>
        <time>2021-07-20T07:52:58Z</time>
      </trkpt>
      <trkpt lat="48.70062" lon="2.49513">
        <ele>26.71</ele>
        <time>2021-07-20T07:53:08Z</time>
      </trkpt>
      <trkpt lat="48.70055" lon="2.4953">
        <ele>26.66</ele>
        <time>2021-07-20T07:53:20Z</time>
      </trkpt>
      <trkpt lat="48.70051" lon="2.49542">
        <ele>25.74</ele>
        <time>2021-07-20T07:53:31Z</time>
      </trkpt>
      <trkpt lat="48.70045" lon="2.49558">
        <ele>25.74</ele>
        <time>2021-07-20T07:53:43Z</time>
      </trkpt>
      <trkpt lat="48.70034" lon="2.49573">
        <ele>25.66</ele>
        <time>2021-07-20T07:53:53Z</time>
      </trkpt>
      <trkpt lat="48.70021" lon="2.49576">
        <ele>25.64</ele>
        <time>2021-07-20T07:54:05Z</time>
      </trkpt>
      <trkpt lat="48.70012" lon="2.49573">
        <ele>25.61</ele>
        <time>2021-07-20T07:54:16Z</time>
      </trkpt>
      <trkpt lat="48.70008" lon="2.49559">
        <ele>25.57</ele>
        <time>2021-07-20T07:54:28Z</time>
      </trkpt>
      <trkpt lat="48.7" lon="2.49541">
        <ele>25.52</ele>
        <time>2021-07-20T07:54:40Z</time>
      </trkpt>
      <trkpt lat="48.69992" lon="2.49531">
        <ele>25.49</ele>
        <time>2021-07-20T07:54:50Z</time>
      </trkpt>
      <trkpt lat="48.69981" lon="2.49521">
        <ele>25.38</ele>
        <time>2021-07-20T07:55:01Z</time>
      </trkpt>
      <trkpt lat="48.69972" lon="2.49514">
        <ele>25.31</ele>
        <time>2021-07-20T07:55:09Z</time>
      </trkpt>
      <trkpt lat="48.69962" lon="2.49507">
        <ele>25.26</ele>
        <time>2021-07-20T07:55:18Z</time>
      </trkpt>
      <trkpt lat="48.69951" lon="2.49498">
        <ele>25.27</ele>
        <time>2021-07-20T07:55:26Z</time>
      </trkpt>
      <trkpt lat="48.69941" lon="2.495">
        <ele>25.2</ele>
        <time>2021-07-20T07:55:34Z</time>
      </trkpt>
      <trkpt lat="48.69928" lon="2.49503">
        <ele>25.13</ele>
        <time>2021-07-20T07:55:46Z</time>
      </trkpt>
      <trkpt lat="48.69917" lon="2.4951">
        <ele>25.11</ele>
        <time>2021-07-20T07:55:58Z</time>
      </trkpt>
      <trkpt lat="48.69908" lon="2.49515">
        <ele>25.08</ele>
        <time>2021-07-20T07:56:06Z</time>
      </trkpt>
      <trkpt lat="48.69893" lon="2.49525">
        <ele>25.1</ele>
        <time>2021-07-20T07:56:18Z</time>
      </trkpt>
      <trkpt lat="48.69886" lon="2.49534">
        <ele>25.11</ele>
        <time>2021-07-20T07:56:26Z</time>
      </trkpt>
      <trkpt lat="48.69882" lon="2.49543">
        <ele>25.09</ele>
        <time>2021-07-20T07:56:34Z</time>
      </trkpt>
      <trkpt lat="48.6988" lon="2.49546">
        <ele>25.11</ele>
        <time>2021-07-20T07:56:36Z</time>
      </trkpt>
      <trkpt lat="48.69875" lon="2.49561">
        <ele>25.09</ele>
        <time>2021-07-20T07:56:45Z</time>
      </trkpt>
      <trkpt lat="48.69874" lon="2.49578">
        <ele>25.13</ele>
        <time>2021-07-20T07:56:57Z</time>
      </trkpt>
      <trkpt lat="48.69874" lon="2.49597">
        <ele>25.15</ele>
        <time>2021-07-20T07:57:09Z</time>
      </trkpt>
      <trkpt lat="48.69879" lon="2.49614">
        <ele>25.21</ele>
        <time>2021-07-20T07:57:23Z</time>
      </trkpt>
      <trkpt lat="48.69889" lon="2.49628">
        <ele>25.17</ele>
        <time>2021-07-20T07:57:36Z</time>
      </trkpt>
      <trkpt lat="48.69897" lon="2.49641">
        <ele>25.2</ele>
        <time>2021-07-20T07:57:49Z</time>
      </trkpt>
      <trkpt lat="48.69905" lon="2.49648">
        <ele>25.16</ele>
        <time>2021-07-20T07:57:56Z</time>
      </trkpt>
      <trkpt lat="48.69916" lon="2.4966">
        <ele>25.2</ele>
        <time>2021-07-20T07:58:08Z</time>
      </trkpt>
      <trkpt lat="48.69918" lon="2.49667">
        <ele>25.19</ele>
        <time>2021-07-20T07:58:14Z</time>
      </trkpt>
      <trkpt lat="48.69912" lon="2.49676">
        <ele>25.16</ele>
        <time>2021-07-20T07:58:24Z</time>
      </trkpt>
      <trkpt lat="48.69907" lon="2.49682">
        <ele>25.13</ele>
        <time>2021-07-20T07:58:33Z</time>
      </trkpt>
      <trkpt lat="48.69902" lon="2.49692">
        <ele>25.15</ele>
        <time>2021-07-20T07:58:45Z</time>
      </trkpt>
      <trkpt lat="48.69893" lon="2.49709">
        <ele>25.11</ele>
        <time>2021-07-20T07:58:59Z</time>
      </trkpt>
      <trkpt lat="48.69889" lon="2.49717">
        <ele>25.06</ele>
        <time>2021-07-20T07:59:04Z</time>
      </trkpt>
      <trkpt lat="48.69871" lon="2.49739">
        <ele>24.95</ele>
        <time>2021-07-20T07:59:17Z</time>
      </trkpt>
      <trkpt lat="48.69863" lon="2.49756">
        <ele>24.8</ele>
        <time>2021-07-20T07:59:29Z</time>
      </trkpt>
      <trkpt lat="48.69854" lon="2.4977">
        <ele>24.71</ele>
        <time>2021-07-20T07:59:39Z</time>
      </trkpt>
      <trkpt lat="48.69847" lon="2.49781">
        <ele>24.66</ele>
        <time>2021-07-20T07:59:51Z</time>
      </trkpt>
      <trkpt lat="48.69842" lon="2.49797">
        <ele>24.54</ele>
        <time>2021-07-20T08:00:04Z</time>
      </trkpt>
      <trkpt lat="48.69836" lon="2.49804">
        <ele>24.42</ele>
        <time>2021-07-20T08:00:14Z</time>
      </trkpt>
      <trkpt lat="48.69824" lon="2.49817">
        <ele>24.3</ele>
        <time>2021-07-20T08:00:25Z</time>
      </trkpt>
      <trkpt lat="48.69813" lon="2.49837">
        <ele>24.18</ele>
        <time>2021-07-20T08:00:38Z</time>
      </trkpt>
      <trkpt lat="48.69803" lon="2.49847">
        <ele>24.1</ele>
        <time>2021-07-20T08:00:51Z</time>
      </trkpt>
      <trkpt lat="48.69796" lon="2.49867">
        <ele>23.99</ele>
        <time>2021-07-20T08:01:03Z</time>
      </trkpt>
      <trkpt lat="48.69785" lon="2.49884">
        <ele>23.9</ele>
        <time>2021-07-20T08:01:16Z</time>
      </trkpt>
      <trkpt lat="48.69784" lon="2.49887">
        <ele>23.89</ele>
        <time>2021-07-20T08:01:18Z</time>
      </trkpt>
      <trkpt lat="48.69777" lon="2.49898">
        <ele>23.83</ele>
        <time>2021-07-20T08:01:33Z</time>
      </trkpt>
      <trkpt lat="48.6977" lon="2.49904">
        <ele>23.75</ele>
        <time>2021-07-20T08:01:40Z</time>
      </trkpt>
      <trkpt lat="48.69761" lon="2.49917">
        <ele>23.67</ele>
        <time>2021-07-20T08:01:51Z</time>
      </trkpt>
      <trkpt lat="48.69758" lon="2.49924">
        <ele>23.66</ele>
        <time>2021-07-20T08:01:57Z</time>
      </trkpt>
      <trkpt lat="48.69746" lon="2.49943">
        <ele>23.57</ele>
        <time>2021-07-20T08:02:10Z</time>
      </trkpt>
      <trkpt lat="48.69729" lon="2.49963">
        <ele>23.54</ele>
        <time>2021-07-20T08:02:22Z</time>
      </trkpt>
      <trkpt lat="48.69719" lon="2.49975">
        <ele>23.53</ele>
        <time>2021-07-20T08:02:28Z</time>
      </trkpt>
      <trkpt lat="48.69712" lon="2.49993">
        <ele>23.46</ele>
        <time>2021-07-20T08:02:38Z</time>
      </trkpt>
      <trkpt lat="48.69704" lon="2.50003">
        <ele>23.46</ele>
        <time>2021-07-20T08:02:47Z</time>
      </trkpt>
      <trkpt lat="48.69696" lon="2.50014">
        <ele>23.49</ele>
        <time>2021-07-20T08:02:59Z</time>
      </trkpt>
      <trkpt lat="48.69692" lon="2.50023">
        <ele>23.39</ele>
        <time>2021-07-20T08:03:09Z</time>
      </trkpt>
      <trkpt lat="48.69685" lon="2.50035">
        <ele>23.38</ele>
        <time>2021-07-20T08:03:19Z</time>
      </trkpt>
      <trkpt lat="48.69676" lon="2.5004">
        <ele>23.37</ele>
        <time>2021-07-20T08:03:30Z</time>
      </trkpt>
      <trkpt lat="48.69664" lon="2.5006">
        <ele>23.33</ele>
        <time>2021-07-20T08:03:42Z</time>
      </trkpt>
      <trkpt lat="48.69657" lon="2.50069">
        <ele>23.28</ele>
        <time>2021-07-20T08:03:50Z</time>
      </trkpt>
      <trkpt lat="48.69651" lon="2.50081">
        <ele>23.24</ele>
        <time>2021-07-20T08:04:00Z</time>
      </trkpt>
      <trkpt lat="48.69647" lon="2.50095">
        <ele>23.16</ele>
        <time>2021-07-20T08:04:13Z</time>
      </trkpt>
      <trkpt lat="48.69641" lon="2.50112">
        <ele>23.15</ele>
        <time>2021-07-20T08:04:24Z</time>
      </trkpt>
      <trkpt lat="48.69639" lon="2.50117">
        <ele>23.14</ele>
        <time>2021-07-20T08:04:27Z</time>
      </trkpt>
      <trkpt lat="48.69631" lon="2.50135">
        <ele>23.1</ele>
        <time>2021-07-20T08:04:35Z</time>
      </trkpt>
      <trkpt lat="48.69625" lon="2.50141">
        <ele>23.09</ele>
        <time>2021-07-20T08:04:40Z</time>
      </trkpt>
      <trkpt lat="48.69611" lon="2.50155">
        <ele>23.06</ele>
        <time>2021-07-20T08:04:49Z</time>
      </trkpt>
      <trkpt lat="48.69601" lon="2.50162">
        <ele>23.05</ele>
        <time>2021-07-20T08:04:57Z</time>
      </trkpt>
      <trkpt lat="48.6959" lon="2.50168">
        <ele>23.09</ele>
        <time>2021-07-20T08:05:06Z</time>
      </trkpt>
      <trkpt lat="48.69582" lon="2.5017">
        <ele>23.11</ele>
        <time>2021-07-20T08:05:14Z</time>
      </trkpt>
      <trkpt lat="48.69575" lon="2.50161">
        <ele>23.17</ele>
        <time>2021-07-20T08:05:22Z</time>
      </trkpt>
      <trkpt lat="48.69568" lon="2.5016">
        <ele>23.21</ele>
        <time>2021-07-20T08:05:29Z</time>
      </trkpt>
      <trkpt lat="48.69559" lon="2.50174">
        <ele>23.26</ele>
        <time>2021-07-20T08:05:39Z</time>
      </trkpt>
      <trkpt lat="48.69557" lon="2.50182">
        <ele>23.29</ele>
        <time>2021-07-20T08:05:43Z</time>
      </trkpt>
      <trkpt lat="48.69547" lon="2.50189">
        <ele>23.36</ele>
        <time>2021-07-20T08:05:53Z</time>
      </trkpt>
      <trkpt lat="48.69537" lon="2.50193">
        <ele>23.4</ele>
        <time>2021-07-20T08:06:03Z</time>
      </trkpt>
      <trkpt lat="48.6953" lon="2.50198">
        <ele>23.44</ele>
        <time>2021-07-20T08:06:12Z</time>
      </trkpt>
      <trkpt lat="48.69524" lon="2.50202">
        <ele>23.5</ele>
        <time>2021-07-20T08:06:20Z</time>
      </trkpt>
      <trkpt lat="48.69522" lon="2.50202">
        <ele>26.33</ele>
        <time>2021-07-20T08:06:23Z</time>
      </trkpt>
      <trkpt lat="48.69516" lon="2.50208">
        <ele>27.12</ele>
        <time>2021-07-20T08:06:34Z</time>
      </trkpt>
      <trkpt lat="48.69505" lon="2.50212">
        <ele>27.13</ele>
        <time>2021-07-20T08:06:48Z</time>
      </trkpt>
      <trkpt lat="48.69501" lon="2.50212">
        <ele>27.13</ele>
        <time>2021-07-20T08:06:58Z</time>
      </trkpt>
      <trkpt lat="48.695" lon="2.50211">
        <ele>27.14</ele>
        <time>2021-07-20T08:07:12Z</time>
      </trkpt>
      <trkpt lat="48.69499" lon="2.50211">
        <ele>27.16</ele>
        <time>2021-07-20T08:07:26Z</time>
      </trkpt>
      <trkpt lat="48.69494" lon="2.50209">
        <ele>27.17</ele>
        <time>2021-07-20T08:07:33Z</time>
      </trkpt>
      <trkpt lat="48.69486" lon="2.50204">
        <ele>27.18</ele>
        <time>2021-07-20T08:07:44Z</time>
      </trkpt>
      <trkpt lat="48.69478" lon="2.50208">
        <ele>27.21</ele>
        <time>2021-07-20T08:07:53Z</time>
      </trkpt>
      <trkpt lat="48.69471" lon="2.50212">
        <ele>27.19</ele>
        <time>2021-07-20T08:08:00Z</time>
      </trkpt>
      <trkpt lat="48.69465" lon="2.50223">
        <ele>27.96</ele>
        <time>2021-07-20T08:08:08Z</time>
      </trkpt>
      <trkpt lat="48.69461" lon="2.50229">
        <ele>27.95</ele>
        <time>2021-07-20T08:08:17Z</time>
      </trkpt>
      <trkpt lat="48.6946" lon="2.50241">
        <ele>27.95</ele>
        <time>2021-07-20T08:08:23Z</time>
      </trkpt>
      <trkpt lat="48.69452" lon="2.5025">
        <ele>28.85</ele>
        <time>2021-07-20T08:08:31Z</time>
      </trkpt>
      <trkpt lat="48.69449" lon="2.5025">
        <ele>28.85</ele>
        <time>2021-07-20T08:08:34Z</time>
      </trkpt>
      <trkpt lat="48.69438" lon="2.50249">
        <ele>30.83</ele>
        <time>2021-07-20T08:08:44Z</time>
      </trkpt>
      <trkpt lat="48.6943" lon="2.50249">
        <ele>30.82</ele>
        <time>2021-07-20T08:08:52Z</time>
      </trkpt>
      <trkpt lat="48.69422" lon="2.50246">
        <ele>31.65</ele>
        <time>2021-07-20T08:09:00Z</time>
      </trkpt>
      <trkpt lat="48.69413" lon="2.50242">
        <ele>32.6</ele>
        <time>2021-07-20T08:09:09Z</time>
      </trkpt>
      <trkpt lat="48.69402" lon="2.50239">
        <ele>33.46</ele>
        <time>2021-07-20T08:09:21Z</time>
      </trkpt>
      <trkpt lat="48.69393" lon="2.5024">
        <ele>33.48</ele>
        <time>2021-07-20T08:09:29Z</time>
      </trkpt>
      <trkpt lat="48.69382" lon="2.50248">
        <ele>34.4</ele>
        <time>2021-07-20T08:09:42Z</time>
      </trkpt>
      <trkpt lat="48.69373" lon="2.50253">
        <ele>36.1</ele>
        <time>2021-07-20T08:09:54Z</time>
      </trkpt>
      <trkpt lat="48.69364" lon="2.5026">
        <ele>36.88</ele>
        <time>2021-07-20T08:10:05Z</time>
      </trkpt>
      <trkpt lat="48.69356" lon="2.50263">
        <ele>38.02</ele>
        <time>2021-07-20T08:10:14Z</time>
      </trkpt>
      <trkpt lat="48.69343" lon="2.5027">
        <ele>38.01</ele>
        <time>2021-07-20T08:10:27Z</time>
      </trkpt>
      <trkpt lat="48.69326" lon="2.50269">
        <ele>38.97</ele>
        <time>2021-07-20T08:10:41Z</time>
      </trkpt>
      <trkpt lat="48.69313" lon="2.50265">
        <ele>39.99</ele>
        <time>2021-07-20T08:10:49Z</time>
      </trkpt>
      <trkpt lat="48.69302" lon="2.50264">
        <ele>41.65</ele>
        <time>2021-07-20T08:11:00Z</time>
      </trkpt>
      <trkpt lat="48.69293" lon="2.50265">
        <ele>41.66</ele>
        <time>2021-07-20T08:11:09Z</time>
      </trkpt>
      <trkpt lat="48.69279" lon="2.50269">
        <ele>44.19</ele>
        <time>2021-07-20T08:11:23Z</time>
      </trkpt>
      <trkpt lat="48.69276" lon="2.50273">
        <ele>45.14</ele>
        <time>2021-07-20T08:11:34Z</time>
      </trkpt>
      <trkpt lat="48.69273" lon="2.50284">
        <ele>45.09</ele>
        <time>2021-07-20T08:11:46Z</time>
      </trkpt>
      <trkpt lat="48.69272" lon="2.50299">
        <ele>45.86</ele>
        <time>2021-07-20T08:11:56Z</time>
      </trkpt>
      <trkpt lat="48.69271" lon="2.50301">
        <ele>45.86</ele>
        <time>2021-07-20T08:11:57Z</time>
      </trkpt>
      <trkpt lat="48.6927" lon="2.50316">
        <ele>45.85</ele>
        <time>2021-07-20T08:12:09Z</time>
      </trkpt>
      <trkpt lat="48.69268" lon="2.5033">
        <ele>45.84</ele>
        <time>2021-07-20T08:12:20Z</time>
      </trkpt>
      <trkpt lat="48.6927" lon="2.50349">
        <ele>45.82</ele>
        <time>2021-07-20T08:12:32Z</time>
      </trkpt>
      <trkpt lat="48.6927" lon="2.50367">
        <ele>45.8</ele>
        <time>2021-07-20T08:12:43Z</time>
      </trkpt>
      <trkpt lat="48.69269" lon="2.50381">
        <ele>45.79</ele>
        <time>2021-07-20T08:12:52Z</time>
      </trkpt>
      <trkpt lat="48.69264" lon="2.50396">
        <ele>45.79</ele>
        <time>2021-07-20T08:13:01Z</time>
      </trkpt>
      <trkpt lat="48.69263" lon="2.50404">
        <ele>45.78</ele>
        <time>2021-07-20T08:13:07Z</time>
      </trkpt>
      <trkpt lat="48.69263" lon="2.50428">
        <ele>45.76</ele>
        <time>2021-07-20T08:13:20Z</time>
      </trkpt>
      <trkpt lat="48.69256" lon="2.50434">
        <ele>45.77</ele>
        <time>2021-07-20T08:13:31Z</time>
      </trkpt>
      <trkpt lat="48.69251" lon="2.5044">
        <ele>45.77</ele>
        <time>2021-07-20T08:13:35Z</time>
      </trkpt>
      <trkpt lat="48.69246" lon="2.5045">
        <ele>45.78</ele>
        <time>2021-07-20T08:13:42Z</time>
      </trkpt>
      <trkpt lat="48.69243" lon="2.50466">
        <ele>46.51</ele>
        <time>2021-07-20T08:13:53Z</time>
      </trkpt>
      <trkpt lat="48.6924" lon="2.50482">
        <ele>47.24</ele>
        <time>2021-07-20T08:14:04Z</time>
      </trkpt>
      <trkpt lat="48.69236" lon="2.50502">
        <ele>47.24</ele>
        <time>2021-07-20T08:14:16Z</time>
      </trkpt>
      <trkpt lat="48.69234" lon="2.5052">
        <ele>47.23</ele>
        <time>2021-07-20T08:14:26Z</time>
      </trkpt>
      <trkpt lat="48.69231" lon="2.50539">
        <ele>48.17</ele>
        <time>2021-07-20T08:14:37Z</time>
      </trkpt>
      <trkpt lat="48.6923" lon="2.50557">
        <ele>48.15</ele>
        <time>2021-07-20T08:14:50Z</time>
      </trkpt>
      <trkpt lat="48.69231" lon="2.50571">
        <ele>48.15</ele>
        <time>2021-07-20T08:15:01Z</time>
      </trkpt>
      <trkpt lat="48.69232" lon="2.50578">
        <ele>48.13</ele>
        <time>2021-07-20T08:15:15Z</time>
      </trkpt>
      <trkpt lat="48.69233" lon="2.50587">
        <ele>48.12</ele>
        <time>2021-07-20T08:15:21Z</time>
      </trkpt>
      <trkpt lat="48.69235" lon="2.50605">
        <ele>48.11</ele>
        <time>2021-07-20T08:15:33Z</time>
      </trkpt>
      <trkpt lat="48.69235" lon="2.50616">
        <ele>48.09</ele>
        <time>2021-07-20T08:15:41Z</time>
      </trkpt>
      <trkpt lat="48.69231" lon="2.50628">
        <ele>49.08</ele>
        <time>2021-07-20T08:15:50Z</time>
      </trkpt>
      <trkpt lat="48.6923" lon="2.50631">
        <ele>49.09</ele>
        <time>2021-07-20T08:15:52Z</time>
      </trkpt>
      <trkpt lat="48.69228" lon="2.50646">
        <ele>49.06</ele>
        <time>2021-07-20T08:16:04Z</time>
      </trkpt>
      <trkpt lat="48.69227" lon="2.50647">
        <ele>49.06</ele>
        <time>2021-07-20T08:16:06Z</time>
      </trkpt>
      <trkpt lat="48.69219" lon="2.50654">
        <ele>49.09</ele>
        <time>2021-07-20T08:16:17Z</time>
      </trkpt>
      <trkpt lat="48.69207" lon="2.50656">
        <ele>49.95</ele>
        <time>2021-07-20T08:16:28Z</time>
      </trkpt>
      <trkpt lat="48.69198" lon="2.50659">
        <ele>50.91</ele>
        <time>2021-07-20T08:16:40Z</time>
      </trkpt>
      <trkpt lat="48.69189" lon="2.50659">
        <ele>52.56</ele>
        <time>2021-07-20T08:16:51Z</time>
      </trkpt>
      <trkpt lat="48.69176" lon="2.50655">
        <ele>52.58</ele>
        <time>2021-07-20T08:17:02Z</time>
      </trkpt>
      <trkpt lat="48.69165" lon="2.50659">
        <ele>53.66</ele>
        <time>2021-07-20T08:17:12Z</time>
      </trkpt>
      <trkpt lat="48.69154" lon="2.50661">
        <ele>55.4</ele>
        <time>2021-07-20T08:17:24Z</time>
      </trkpt>
      <trkpt lat="48.69148" lon="2.50664">
        <ele>57.02</ele>
        <time>2021-07-20T08:17:35Z</time>
      </trkpt>
      <trkpt lat="48.69146" lon="2.50672">
        <ele>57.01</ele>
        <time>2021-07-20T08:17:49Z</time>
      </trkpt>
      <trkpt lat="48.69145" lon="2.50681">
        <ele>57.01</ele>
        <time>2021-07-20T08:18:01Z</time>
      </trkpt>
      <trkpt lat="48.69144" lon="2.50694">
        <ele>57.02</ele>
        <time>2021-07-20T08:18:13Z</time>
      </trkpt>
      <trkpt lat="48.69143" lon="2.5071">
        <ele>57.77</ele>
        <time>2021-07-20T08:18:26Z</time>
      </trkpt>
      <trkpt lat="48.69142" lon="2.50728">
        <ele>57.78</ele>
        <time>2021-07-20T08:18:37Z</time>
      </trkpt>
      <trkpt lat="48.69141" lon="2.50743">
        <ele>57.78</ele>
        <time>2021-07-20T08:18:48Z</time>
      </trkpt>
      <trkpt lat="48.69138" lon="2.50759">
        <ele>57.78</ele>
        <time>2021-07-20T08:19:01Z</time>
      </trkpt>
      <trkpt lat="48.69133" lon="2.50774">
        <ele>57.77</ele>
        <time>2021-07-20T08:19:12Z</time>
      </trkpt>
      <trkpt lat="48.69124" lon="2.50798">
        <ele>57.76</ele>
        <time>2021-07-20T08:19:27Z</time>
      </trkpt>
      <trkpt lat="48.69116" lon="2.50822">
        <ele>57.75</ele>
        <time>2021-07-20T08:19:38Z</time>
      </trkpt>
      <trkpt lat="48.69106" lon="2.50829">
        <ele>57.74</ele>
        <time>2021-07-20T08:19:50Z</time>
      </trkpt>
      <trkpt lat="48.6909" lon="2.50833">
        <ele>58.58</ele>
        <time>2021-07-20T08:20:03Z</time>
      </trkpt>
      <trkpt lat="48.69081" lon="2.50839">
        <ele>58.56</ele>
        <time>2021-07-20T08:20:13Z</time>
      </trkpt>
      <trkpt lat="48.69072" lon="2.50844">
        <ele>58.54</ele>
        <time>2021-07-20T08:20:25Z</time>
      </trkpt>
      <trkpt lat="48.69061" lon="2.50854">
        <ele>59.32</ele>
        <time>2021-07-20T08:20:35Z</time>
      </trkpt>
      <trkpt lat="48.69051" lon="2.50862">
        <ele>60.04</ele>
        <time>2021-07-20T08:20:46Z</time>
      </trkpt>
      <trkpt lat="48.69047" lon="2.50864">
        <ele>60.02</ele>
        <time>2021-07-20T08:20:51Z</time>
      </trkpt>
      <trkpt lat="48.69045" lon="2.5087">
        <ele>60.01</ele>
        <time>2021-07-20T08:20:55Z</time>
      </trkpt>
      <trkpt lat="48.69039" lon="2.50873">
        <ele>59.99</ele>
        <time>2021-07-20T08:21:12Z</time>
      </trkpt>
      <trkpt lat="48.6904" lon="2.50871">
        <ele>59.99</ele>
        <time>2021-07-20T08:21:24Z</time>
      </trkpt>
      <trkpt lat="48.69041" lon="2.50871">
        <ele>60.83</ele>
        <time>2021-07-20T08:21:38Z</time>
      </trkpt>
      <trkpt lat="48.6904" lon="2.50874">
        <ele>60.87</ele>
        <time>2021-07-20T08:21:50Z</time>
      </trkpt>
      <trkpt lat="48.6904" lon="2.50873">
        <ele>60.92</ele>
        <time>2021-07-20T08:22:06Z</time>
      </trkpt>
      <trkpt lat="48.6904" lon="2.50872">
        <ele>60.98</ele>
        <time>2021-07-20T08:22:21Z</time>
      </trkpt>
      <trkpt lat="48.69038" lon="2.50873">
        <ele>61.03</ele>
        <time>2021-07-20T08:22:34Z</time>
      </trkpt>
      <trkpt lat="48.69038" lon="2.50877">
        <ele>61.08</ele>
        <time>2021-07-20T08:22:48Z</time>
      </trkpt>
      <trkpt lat="48.69037" lon="2.5088">
        <ele>61.07</ele>
        <time>2021-07-20T08:23:02Z</time>
      </trkpt>
      <trkpt lat="48.69038" lon="2.50884">
        <ele>61.19</ele>
        <time>2021-07-20T08:23:15Z</time>
      </trkpt>
      <trkpt lat="48.69038" lon="2.50888">
        <ele>61.25</ele>
        <time>2021-07-20T08:23:28Z</time>
      </trkpt>
      <trkpt lat="48.69036" lon="2.50897">
        <ele>61.31</ele>
        <time>2021-07-20T08:23:38Z</time>
      </trkpt>
      <trkpt lat="48.69031" lon="2.50911">
        <ele>61.35</ele>
        <time>2021-07-20T08:23:51Z</time>
      </trkpt>
      <trkpt lat="48.69026" lon="2.50924">
        <ele>61.46</ele>
        <time>2021-07-20T08:24:00Z</time>
      </trkpt>
      <trkpt lat="48.6902" lon="2.50939">
        <ele>61.59</ele>
        <time>2021-07-20T08:24:14Z</time>
      </trkpt>
      <trkpt lat="48.69013" lon="2.50937">
        <ele>61.56</ele>
        <time>2021-07-20T08:24:24Z</time>
      </trkpt>
      <trkpt lat="48.69008" lon="2.50932">
        <ele>61.57</ele>
        <time>2021-07-20T08:24:34Z</time>
      </trkpt>
      <trkpt lat="48.68999" lon="2.50926">
        <ele>61.62</ele>
        <time>2021-07-20T08:24:45Z</time>
      </trkpt>
      <trkpt lat="48.68991" lon="2.50916">
        <ele>62.39</ele>
        <time>2021-07-20T08:24:57Z</time>
      </trkpt>
      <trkpt lat="48.68982" lon="2.50908">
        <ele>63.19</ele>
        <time>2021-07-20T08:25:09Z</time>
      </trkpt>
      <trkpt lat="48.6897" lon="2.509">
        <ele>64.1</ele>
        <time>2021-07-20T08:25:21Z</time>
      </trkpt>
      <trkpt lat="48.68957" lon="2.50892">
        <ele>64.1</ele>
        <time>2021-07-20T08:25:35Z</time>
      </trkpt>
      <trkpt lat="48.68945" lon="2.50884">
        <ele>64.95</ele>
        <time>2021-07-20T08:25:47Z</time>
      </trkpt>
      <trkpt lat="48.68931" lon="2.50879">
        <ele>65.66</ele>
        <time>2021-07-20T08:26:00Z</time>
      </trkpt>
      <trkpt lat="48.68921" lon="2.50867">
        <ele>65.63</ele>
        <time>2021-07-20T08:26:11Z</time>
      </trkpt>
      <trkpt lat="48.68915" lon="2.50854">
        <ele>65.6</ele>
        <time>2021-07-20T08:26:20Z</time>
      </trkpt>
      <trkpt lat="48.68906" lon="2.50838">
        <ele>66.74</ele>
        <time>2021-07-20T08:26:31Z</time>
      </trkpt>
      <trkpt lat="48.68899" lon="2.50826">
        <ele>66.7</ele>
        <time>2021-07-20T08:26:41Z</time>
      </trkpt>
      <trkpt lat="48.68889" lon="2.50814">
        <ele>66.64</ele>
        <time>2021-07-20T08:26:52Z</time>
      </trkpt>
      <trkpt lat="48.6888" lon="2.50797">
        <ele>66.6</ele>
        <time>2021-07-20T08:27:05Z</time>
      </trkpt>
      <trkpt lat="48.6887" lon="2.50782">
        <ele>66.56</ele>
        <time>2021-07-20T08:27:17Z</time>
      </trkpt>
      <trkpt lat="48.68863" lon="2.50769">
        <ele>66.49</ele>
        <time>2021-07-20T08:27:29Z</time>
      </trkpt>
      <trkpt lat="48.68859" lon="2.50766">
        <ele>66.4</ele>
        <time>2021-07-20T08:27:38Z</time>
      </trkpt>
      <trkpt lat="48.68852" lon="2.50768">
        <ele>66.36</ele>
        <time>2021-07-20T08:27:48Z</time>
      </trkpt>
      <trkpt lat="48.68842" lon="2.50768">
        <ele>66.26</ele>
        <time>2021-07-20T08:27:58Z</time>
      </trkpt>
      <trkpt lat="48.68837" lon="2.50769">
        <ele>66.2</ele>
        <time>2021-07-20T08:28:02Z</time>
      </trkpt>
      <trkpt lat="48.6883" lon="2.50774">
        <ele>66.91</ele>
        <time>2021-07-20T08:28:08Z</time>
      </trkpt>
      <trkpt lat="48.68819" lon="2.50772">
        <ele>66.87</ele>
        <time>2021-07-20T08:28:19Z</time>
      </trkpt>
      <trkpt lat="48.68811" lon="2.50779">
        <ele>66.82</ele>
        <time>2021-07-20T08:28:31Z</time>
      </trkpt>
      <trkpt lat="48.68801" lon="2.50781">
        <ele>66.78</ele>
        <time>2021-07-20T08:28:41Z</time>
      </trkpt>
      <trkpt lat="48.6879" lon="2.50781">
        <ele>66.73</ele>
        <time>2021-07-20T08:28:51Z</time>
      </trkpt>
      <trkpt lat="48.68782" lon="2.50782">
        <ele>66.66</ele>
        <time>2021-07-20T08:28:59Z</time>
      </trkpt>
      <trkpt lat="48.68772" lon="2.50786">
        <ele>66.59</ele>
        <time>2021-07-20T08:29:08Z</time>
      </trkpt>
      <trkpt lat="48.68761" lon="2.50788">
        <ele>67.27</ele>
        <time>2021-07-20T08:29:18Z</time>
      </trkpt>
      <trkpt lat="48.68758" lon="2.50789">
        <ele>67.25</ele>
        <time>2021-07-20T08:29:21Z</time>
      </trkpt>
      <trkpt lat="48.6875" lon="2.50794">
        <ele>67.21</ele>
        <time>2021-07-20T08:29:29Z</time>
      </trkpt>
      <trkpt lat="48.68741" lon="2.50798">
        <ele>67.18</ele>
        <time>2021-07-20T08:29:39Z</time>
      </trkpt>
      <trkpt lat="48.68734" lon="2.50795">
        <ele>67.03</ele>
        <time>2021-07-20T08:29:52Z</time>
      </trkpt>
      <trkpt lat="48.68733" lon="2.50795">
        <ele>67</ele>
        <time>2021-07-20T08:29:53Z</time>
      </trkpt>
      <trkpt lat="48.68725" lon="2.50793">
        <ele>67.77</ele>
        <time>2021-07-20T08:30:06Z</time>
      </trkpt>
      <trkpt lat="48.68725" lon="2.50793">
        <ele>67.83</ele>
        <time>2021-07-20T08:30:21Z</time>
      </trkpt>
      <trkpt lat="48.68724" lon="2.50792">
        <ele>67.79</ele>
        <time>2021-07-20T08:30:32Z</time>
      </trkpt>
      <trkpt lat="48.68718" lon="2.50788">
        <ele>67.84</ele>
        <time>2021-07-20T08:30:42Z</time>
      </trkpt>
      <trkpt lat="48.68707" lon="2.50788">
        <ele>67.82</ele>
        <time>2021-07-20T08:30:53Z</time>
      </trkpt>
      <trkpt lat="48.68696" lon="2.50789">
        <ele>67.82</ele>
        <time>2021-07-20T08:31:04Z</time>
      </trkpt>
      <trkpt lat="48.68685" lon="2.50792">
        <ele>67.83</ele>
        <time>2021-07-20T08:31:14Z</time>
      </trkpt>
      <trkpt lat="48.68676" lon="2.50796">
        <ele>67.86</ele>
        <time>2021-07-20T08:31:25Z</time>
      </trkpt>
      <trkpt lat="48.68664" lon="2.50801">
        <ele>67.89</ele>
        <time>2021-07-20T08:31:35Z</time>
      </trkpt>
      <trkpt lat="48.68655" lon="2.50806">
        <ele>68.69</ele>
        <time>2021-07-20T08:31:46Z</time>
      </trkpt>
      <trkpt lat="48.68643" lon="2.50809">
        <ele>68.65</ele>
        <time>2021-07-20T08:31:56Z</time>
      </trkpt>
      <trkpt lat="48.68631" lon="2.50814">
        <ele>68.64</ele>
        <time>2021-07-20T08:32:05Z</time>
      </trkpt>
      <trkpt lat="48.68621" lon="2.50818">
        <ele>68.62</ele>
        <time>2021-07-20T08:32:15Z</time>
      </trkpt>
      <trkpt lat="48.68608" lon="2.50819">
        <ele>68.62</ele>
        <time>2021-07-20T08:32:27Z</time>
      </trkpt>
      <trkpt lat="48.68596" lon="2.50823">
        <ele>68.61</ele>
        <time>2021-07-20T08:32:40Z</time>
      </trkpt>
      <trkpt lat="48.6859" lon="2.50824">
        <ele>68.62</ele>
        <time>2021-07-20T08:32:46Z</time>
      </trkpt>
      <trkpt lat="48.68576" lon="2.50825">
        <ele>68.68</ele>
        <time>2021-07-20T08:32:58Z</time>
      </trkpt>
      <trkpt lat="48.6856" lon="2.50829">
        <ele>68.6</ele>
        <time>2021-07-20T08:33:11Z</time>
      </trkpt>
      <trkpt lat="48.68548" lon="2.50835">
        <ele>68.68</ele>
        <time>2021-07-20T08:33:22Z</time>
      </trkpt>
      <trkpt lat="48.6854" lon="2.50829">
        <ele>68.62</ele>
        <time>2021-07-20T08:33:31Z</time>
      </trkpt>
      <trkpt lat="48.68532" lon="2.50832">
        <ele>68.56</ele>
        <time>2021-07-20T08:33:40Z</time>
      </trkpt>
      <trkpt lat="48.68518" lon="2.50839">
        <ele>68.55</ele>
        <time>2021-07-20T08:33:53Z</time>
      </trkpt>
      <trkpt lat="48.68504" lon="2.50838">
        <ele>69.29</ele>
        <time>2021-07-20T08:34:05Z</time>
      </trkpt>
      <trkpt lat="48.68495" lon="2.50838">
        <ele>69.25</ele>
        <time>2021-07-20T08:34:15Z</time>
      </trkpt>
      <trkpt lat="48.68481" lon="2.50837">
        <ele>69.19</ele>
        <time>2021-07-20T08:34:27Z</time>
      </trkpt>
      <trkpt lat="48.6847" lon="2.50843">
        <ele>69.18</ele>
        <time>2021-07-20T08:34:39Z</time>
      </trkpt>
      <trkpt lat="48.68461" lon="2.50852">
        <ele>69.15</ele>
        <time>2021-07-20T08:34:52Z</time>
      </trkpt>
      <trkpt lat="48.68452" lon="2.50867">
        <ele>69.04</ele>
        <time>2021-07-20T08:35:03Z</time>
      </trkpt>
      <trkpt lat="48.6844" lon="2.50875">
        <ele>68.98</ele>
        <time>2021-07-20T08:35:14Z</time>
      </trkpt>
      <trkpt lat="48.68429" lon="2.50883">
        <ele>68.97</ele>
        <time>2021-07-20T08:35:23Z</time>
      </trkpt>
      <trkpt lat="48.68417" lon="2.50897">
        <ele>68.83</ele>
        <time>2021-07-20T08:35:35Z</time>
      </trkpt>
      <trkpt lat="48.6841" lon="2.50908">
        <ele>68.79</ele>
        <time>2021-07-20T08:35:46Z</time>
      </trkpt>
      <trkpt lat="48.68406" lon="2.50914">
        <ele>68.76</ele>
        <time>2021-07-20T08:35:51Z</time>
      </trkpt>
      <trkpt lat="48.68393" lon="2.50919">
        <ele>68.73</ele>
        <time>2021-07-20T08:36:03Z</time>
      </trkpt>
      <trkpt lat="48.68386" lon="2.50917">
        <ele>68.64</ele>
        <time>2021-07-20T08:36:11Z</time>
      </trkpt>
      <trkpt lat="48.68374" lon="2.50916">
        <ele>68.57</ele>
        <time>2021-07-20T08:36:21Z</time>
      </trkpt>
      <trkpt lat="48.68364" lon="2.50917">
        <ele>68.44</ele>
        <time>2021-07-20T08:36:33Z</time>
      </trkpt>
      <trkpt lat="48.68356" lon="2.50915">
        <ele>68.39</ele>
        <time>2021-07-20T08:36:43Z</time>
      </trkpt>
      <trkpt lat="48.68347" lon="2.50912">
        <ele>68.45</ele>
        <time>2021-07-20T08:36:51Z</time>
      </trkpt>
      <trkpt lat="48.68336" lon="2.50909">
        <ele>68.37</ele>
        <time>2021-07-20T08:37:02Z</time>
      </trkpt>
      <trkpt lat="48.68329" lon="2.50902">
        <ele>68.3</ele>
        <time>2021-07-20T08:37:12Z</time>
      </trkpt>
      <trkpt lat="48.68326" lon="2.50894">
        <ele>68.14</ele>
        <time>2021-07-20T08:37:24Z</time>
      </trkpt>
      <trkpt lat="48.68326" lon="2.50894">
        <ele>68.13</ele>
        <time>2021-07-20T08:37:25Z</time>
      </trkpt>
      <trkpt lat="48.68324" lon="2.50882">
        <ele>68.17</ele>
        <time>2021-07-20T08:37:35Z</time>
      </trkpt>
      <trkpt lat="48.68323" lon="2.50865">
        <ele>68.1</ele>
        <time>2021-07-20T08:37:46Z</time>
      </trkpt>
      <trkpt lat="48.6832" lon="2.50847">
        <ele>68.02</ele>
        <time>2021-07-20T08:37:57Z</time>
      </trkpt>
      <trkpt lat="48.68316" lon="2.50831">
        <ele>68</ele>
        <time>2021-07-20T08:38:08Z</time>
      </trkpt>
      <trkpt lat="48.68318" lon="2.50818">
        <ele>67.9</ele>
        <time>2021-07-20T08:38:18Z</time>
      </trkpt>
      <trkpt lat="48.68315" lon="2.50802">
        <ele>67.9</ele>
        <time>2021-07-20T08:38:28Z</time>
      </trkpt>
      <trkpt lat="48.68314" lon="2.50791">
        <ele>67.91</ele>
        <time>2021-07-20T08:38:35Z</time>
      </trkpt>
      <trkpt lat="48.68313" lon="2.50764">
        <ele>67.81</ele>
        <time>2021-07-20T08:38:48Z</time>
      </trkpt>
      <trkpt lat="48.68308" lon="2.50743">
        <ele>67.71</ele>
        <time>2021-07-20T08:39:00Z</time>
      </trkpt>
      <trkpt lat="48.68307" lon="2.50727">
        <ele>67.72</ele>
        <time>2021-07-20T08:39:10Z</time>
      </trkpt>
      <trkpt lat="48.683" lon="2.50713">
        <ele>67.72</ele>
        <time>2021-07-20T08:39:21Z</time>
      </trkpt>
      <trkpt lat="48.68298" lon="2.50704">
        <ele>67.69</ele>
        <time>2021-07-20T08:39:29Z</time>
      </trkpt>
      <trkpt lat="48.68293" lon="2.50692">
        <ele>67.61</ele>
        <time>2021-07-20T08:39:42Z</time>
      </trkpt>
      <trkpt lat="48.68291" lon="2.50683">
        <ele>67.6</ele>
        <time>2021-07-20T08:39:47Z</time>
      </trkpt>
      <trkpt lat="48.68286" lon="2.50673">
        <ele>67.58</ele>
        <time>2021-07-20T08:40:03Z</time>
      </trkpt>
      <trkpt lat="48.68276" lon="2.50681">
        <ele>68.36</ele>
        <time>2021-07-20T08:40:14Z</time>
      </trkpt>
      <trkpt lat="48.68271" lon="2.50687">
        <ele>68.38</ele>
        <time>2021-07-20T08:40:19Z</time>
      </trkpt>
      <trkpt lat="48.68261" lon="2.50696">
        <ele>68.4</ele>
        <time>2021-07-20T08:40:27Z</time>
      </trkpt>
      <trkpt lat="48.68253" lon="2.50707">
        <ele>68.39</ele>
        <time>2021-07-20T08:40:37Z</time>
      </trkpt>
      <trkpt lat="48.68245" lon="2.50718">
        <ele>68.38</ele>
        <time>2021-07-20T08:40:47Z</time>
      </trkpt>
      <trkpt lat="48.68235" lon="2.5073">
        <ele>68.38</ele>
        <time>2021-07-20T08:40:59Z</time>
      </trkpt>
      <trkpt lat="48.68227" lon="2.5074">
        <ele>68.38</ele>
        <time>2021-07-20T08:41:08Z</time>
      </trkpt>
      <trkpt lat="48.68219" lon="2.50751">
        <ele>68.37</ele>
        <time>2021-07-20T08:41:17Z</time>
      </trkpt>
      <trkpt lat="48.68209" lon="2.5076">
        <ele>68.36</ele>
        <time>2021-07-20T08:41:27Z</time>
      </trkpt>
      <trkpt lat="48.68205" lon="2.50764">
        <ele>68.37</ele>
        <time>2021-07-20T08:41:32Z</time>
      </trkpt>
      <trkpt lat="48.682" lon="2.5077">
        <ele>68.37</ele>
        <time>2021-07-20T08:41:37Z</time>
      </trkpt>
      <trkpt lat="48.68197" lon="2.50776">
        <ele>68.38</ele>
        <time>2021-07-20T08:41:41Z</time>
      </trkpt>
      <trkpt lat="48.6819" lon="2.50786">
        <ele>68.41</ele>
        <time>2021-07-20T08:41:50Z</time>
      </trkpt>
      <trkpt lat="48.68187" lon="2.50793">
        <ele>68.43</ele>
        <time>2021-07-20T08:42:00Z</time>
      </trkpt>
      <trkpt lat="48.68192" lon="2.50801">
        <ele>68.44</ele>
        <time>2021-07-20T08:42:11Z</time>
      </trkpt>
      <trkpt lat="48.682" lon="2.50815">
        <ele>68.52</ele>
        <time>2021-07-20T08:42:23Z</time>
      </trkpt>
      <trkpt lat="48.68201" lon="2.50819">
        <ele>68.54</ele>
        <time>2021-07-20T08:42:33Z</time>
      </trkpt>
      <trkpt lat="48.68201" lon="2.50822">
        <ele>68.58</ele>
        <time>2021-07-20T08:42:46Z</time>
      </trkpt>
      <trkpt lat="48.68198" lon="2.50821">
        <ele>68.64</ele>
        <time>2021-07-20T08:42:55Z</time>
      </trkpt>
      <trkpt lat="48.68196" lon="2.50814">
        <ele>68.68</ele>
        <time>2021-07-20T08:43:04Z</time>
      </trkpt>
      <trkpt lat="48.6819" lon="2.50811">
        <ele>68.73</ele>
        <time>2021-07-20T08:43:15Z</time>
      </trkpt>
      <trkpt lat="48.68175" lon="2.50819">
        <ele>68.77</ele>
        <time>2021-07-20T08:43:27Z</time>
      </trkpt>
      <trkpt lat="48.68172" lon="2.50822">
        <ele>68.79</ele>
        <time>2021-07-20T08:43:34Z</time>
      </trkpt>
      <trkpt lat="48.68163" lon="2.50828">
        <ele>68.84</ele>
        <time>2021-07-20T08:43:45Z</time>
      </trkpt>
      <trkpt lat="48.68155" lon="2.50837">
        <ele>68.87</ele>
        <time>2021-07-20T08:43:54Z</time>
      </trkpt>
      <trkpt lat="48.68151" lon="2.50844">
        <ele>68.87</ele>
        <time>2021-07-20T08:44:00Z</time>
      </trkpt>
      <trkpt lat="48.68149" lon="2.50846">
        <ele>68.89</ele>
        <time>2021-07-20T08:44:02Z</time>
      </trkpt>
      <trkpt lat="48.68146" lon="2.5085">
        <ele>68.89</ele>
        <time>2021-07-20T08:44:06Z</time>
      </trkpt>
      <trkpt lat="48.68139" lon="2.5086">
        <ele>68.88</ele>
        <time>2021-07-20T08:44:14Z</time>
      </trkpt>
      <trkpt lat="48.68136" lon="2.50863">
        <ele>68.89</ele>
        <time>2021-07-20T08:44:17Z</time>
      </trkpt>
      <trkpt lat="48.68131" lon="2.50871">
        <ele>68.9</ele>
        <time>2021-07-20T08:44:25Z</time>
      </trkpt>
      <trkpt lat="48.68122" lon="2.50884">
        <ele>68.93</ele>
        <time>2021-07-20T08:44:35Z</time>
      </trkpt>
      <trkpt lat="48.68116" lon="2.50894">
        <ele>68.93</ele>
        <time>2021-07-20T08:44:43Z</time>
      </trkpt>
      <trkpt lat="48.68108" lon="2.50903">
        <ele>68.91</ele>
        <time>2021-07-20T08:44:51Z</time>
      </trkpt>
      <trkpt lat="48.68103" lon="2.50911">
        <ele>68.91</ele>
        <time>2021-07-20T08:44:58Z</time>
      </trkpt>
      <trkpt lat="48.68101" lon="2.50913">
        <ele>68.92</ele>
        <time>2021-07-20T08:45:00Z</time>
      </trkpt>
      <trkpt lat="48.68092" lon="2.50921">
        <ele>68.92</ele>
        <time>2021-07-20T08:45:08Z</time>
      </trkpt>
      <trkpt lat="48.68087" lon="2.5093">
        <ele>68.92</ele>
        <time>2021-07-20T08:45:15Z</time>
      </trkpt>
      <trkpt lat="48.68083" lon="2.50937">
        <ele>68.89</ele>
        <time>2021-07-20T08:45:21Z</time>
      </trkpt>
      <trkpt lat="48.68075" lon="2.50946">
        <ele>68.85</ele>
        <time>2021-07-20T08:45:29Z</time>
      </trkpt>
      <trkpt lat="48.68073" lon="2.50949">
        <ele>68.84</ele>
        <time>2021-07-20T08:45:31Z</time>
      </trkpt>
      <trkpt lat="48.68071" lon="2.50954">
        <ele>68.84</ele>
        <time>2021-07-20T08:45:35Z</time>
      </trkpt>
      <trkpt lat="48.68069" lon="2.50957">
        <ele>68.84</ele>
        <time>2021-07-20T08:45:37Z</time>
      </trkpt>
      <trkpt lat="48.68063" lon="2.50968">
        <ele>68.85</ele>
        <time>2021-07-20T08:45:46Z</time>
      </trkpt>
      <trkpt lat="48.68059" lon="2.50975">
        <ele>68.85</ele>
        <time>2021-07-20T08:45:52Z</time>
      </trkpt>
      <trkpt lat="48.6805" lon="2.50985">
        <ele>68.81</ele>
        <time>2021-07-20T08:46:01Z</time>
      </trkpt>
      <trkpt lat="48.68047" lon="2.50991">
        <ele>68.79</ele>
        <time>2021-07-20T08:46:06Z</time>
      </trkpt>
      <trkpt lat="48.68045" lon="2.50994">
        <ele>68.78</ele>
        <time>2021-07-20T08:46:09Z</time>
      </trkpt>
      <trkpt lat="48.68042" lon="2.51001">
        <ele>68.76</ele>
        <time>2021-07-20T08:46:15Z</time>
      </trkpt>
      <trkpt lat="48.68035" lon="2.51009">
        <ele>68.74</ele>
        <time>2021-07-20T08:46:23Z</time>
      </trkpt>
      <trkpt lat="48.68026" lon="2.51025">
        <ele>69.59</ele>
        <time>2021-07-20T08:46:35Z</time>
      </trkpt>
      <trkpt lat="48.68016" lon="2.5104">
        <ele>69.58</ele>
        <time>2021-07-20T08:46:46Z</time>
      </trkpt>
      <trkpt lat="48.68008" lon="2.5105">
        <ele>69.62</ele>
        <time>2021-07-20T08:46:55Z</time>
      </trkpt>
      <trkpt lat="48.67999" lon="2.51061">
        <ele>69.59</ele>
        <time>2021-07-20T08:47:07Z</time>
      </trkpt>
      <trkpt lat="48.67992" lon="2.51066">
        <ele>69.55</ele>
        <time>2021-07-20T08:47:16Z</time>
      </trkpt>
      <trkpt lat="48.67985" lon="2.51074">
        <ele>69.52</ele>
        <time>2021-07-20T08:47:24Z</time>
      </trkpt>
      <trkpt lat="48.67979" lon="2.51083">
        <ele>69.48</ele>
        <time>2021-07-20T08:47:32Z</time>
      </trkpt>
      <trkpt lat="48.67971" lon="2.51093">
        <ele>69.42</ele>
        <time>2021-07-20T08:47:40Z</time>
      </trkpt>
      <trkpt lat="48.67965" lon="2.511">
        <ele>69.39</ele>
        <time>2021-07-20T08:47:46Z</time>
      </trkpt>
      <trkpt lat="48.67959" lon="2.51109">
        <ele>69.35</ele>
        <time>2021-07-20T08:47:55Z</time>
      </trkpt>
      <trkpt lat="48.67951" lon="2.5112">
        <ele>69.25</ele>
        <time>2021-07-20T08:48:05Z</time>
      </trkpt>
      <trkpt lat="48.67943" lon="2.5113">
        <ele>69.19</ele>
        <time>2021-07-20T08:48:13Z</time>
      </trkpt>
      <trkpt lat="48.6793" lon="2.51134">
        <ele>69.09</ele>
        <time>2021-07-20T08:48:24Z</time>
      </trkpt>
      <trkpt lat="48.67922" lon="2.51138">
        <ele>68.97</ele>
        <time>2021-07-20T08:48:34Z</time>
      </trkpt>
      <trkpt lat="48.67915" lon="2.51151">
        <ele>68.84</ele>
        <time>2021-07-20T08:48:45Z</time>
      </trkpt>
      <trkpt lat="48.67912" lon="2.51168">
        <ele>68.71</ele>
        <time>2021-07-20T08:48:57Z</time>
      </trkpt>
      <trkpt lat="48.67907" lon="2.51178">
        <ele>68.57</ele>
        <time>2021-07-20T08:49:07Z</time>
      </trkpt>
      <trkpt lat="48.67895" lon="2.51194">
        <ele>68.43</ele>
        <time>2021-07-20T08:49:19Z</time>
      </trkpt>
      <trkpt lat="48.67886" lon="2.51208">
        <ele>68.28</ele>
        <time>2021-07-20T08:49:28Z</time>
      </trkpt>
      <trkpt lat="48.67879" lon="2.51218">
        <ele>68.16</ele>
        <time>2021-07-20T08:49:36Z</time>
      </trkpt>
      <trkpt lat="48.67873" lon="2.51216">
        <ele>68.08</ele>
        <time>2021-07-20T08:49:42Z</time>
      </trkpt>
      <trkpt lat="48.67873" lon="2.51227">
        <ele>67.99</ele>
        <time>2021-07-20T08:49:51Z</time>
      </trkpt>
      <trkpt lat="48.67875" lon="2.51236">
        <ele>67.93</ele>
        <time>2021-07-20T08:49:57Z</time>
      </trkpt>
      <trkpt lat="48.67877" lon="2.51243">
        <ele>67.89</ele>
        <time>2021-07-20T08:50:00Z</time>
      </trkpt>
      <trkpt lat="48.67883" lon="2.51262">
        <ele>67.81</ele>
        <time>2021-07-20T08:50:08Z</time>
      </trkpt>
      <trkpt lat="48.67888" lon="2.51283">
        <ele>67.75</ele>
        <time>2021-07-20T08:50:16Z</time>
      </trkpt>
      <trkpt lat="48.67893" lon="2.51295">
        <ele>67.68</ele>
        <time>2021-07-20T08:50:24Z</time>
      </trkpt>
      <trkpt lat="48.67896" lon="2.51307">
        <ele>67.64</ele>
        <time>2021-07-20T08:50:31Z</time>
      </trkpt>
      <trkpt lat="48.67902" lon="2.51323">
        <ele>67.6</ele>
        <time>2021-07-20T08:50:41Z</time>
      </trkpt>
      <trkpt lat="48.67909" lon="2.5134">
        <ele>67.56</ele>
        <time>2021-07-20T08:50:54Z</time>
      </trkpt>
      <trkpt lat="48.67914" lon="2.51353">
        <ele>67.54</ele>
        <time>2021-07-20T08:51:05Z</time>
      </trkpt>
      <trkpt lat="48.67916" lon="2.51364">
        <ele>67.54</ele>
        <time>2021-07-20T08:51:10Z</time>
      </trkpt>
      <trkpt lat="48.6792" lon="2.51377">
        <ele>67.53</ele>
        <time>2021-07-20T08:51:18Z</time>
      </trkpt>
      <trkpt lat="48.67924" lon="2.51391">
        <ele>67.56</ele>
        <time>2021-07-20T08:51:27Z</time>
      </trkpt>
      <trkpt lat="48.67928" lon="2.51405">
        <ele>67.58</ele>
        <time>2021-07-20T08:51:38Z</time>
      </trkpt>
      <trkpt lat="48.67934" lon="2.51422">
        <ele>67.62</ele>
        <time>2021-07-20T08:51:49Z</time>
      </trkpt>
      <trkpt lat="48.6794" lon="2.51442">
        <ele>67.66</ele>
        <time>2021-07-20T08:51:59Z</time>
      </trkpt>
      <trkpt lat="48.67944" lon="2.51457">
        <ele>67.7</ele>
        <time>2021-07-20T08:52:09Z</time>
      </trkpt>
      <trkpt lat="48.67951" lon="2.51472">
        <ele>67.75</ele>
        <time>2021-07-20T08:52:20Z</time>
      </trkpt>
      <trkpt lat="48.67952" lon="2.51474">
        <ele>65.49</ele>
        <time>2021-07-20T08:52:22Z</time>
      </trkpt>
      <trkpt lat="48.67955" lon="2.51491">
        <ele>65.53</ele>
        <time>2021-07-20T08:52:32Z</time>
      </trkpt>
      <trkpt lat="48.67961" lon="2.51506">
        <ele>65.58</ele>
        <time>2021-07-20T08:52:41Z</time>
      </trkpt>
      <trkpt lat="48.67967" lon="2.51523">
        <ele>65.63</ele>
        <time>2021-07-20T08:52:52Z</time>
      </trkpt>
      <trkpt lat="48.67972" lon="2.51538">
        <ele>65.66</ele>
        <time>2021-07-20T08:53:01Z</time>
      </trkpt>
      <trkpt lat="48.67975" lon="2.51549">
        <ele>65.69</ele>
        <time>2021-07-20T08:53:08Z</time>
      </trkpt>
      <trkpt lat="48.67979" lon="2.51567">
        <ele>65.73</ele>
        <time>2021-07-20T08:53:18Z</time>
      </trkpt>
      <trkpt lat="48.67983" lon="2.51584">
        <ele>65.81</ele>
        <time>2021-07-20T08:53:29Z</time>
      </trkpt>
      <trkpt lat="48.67985" lon="2.51593">
        <ele>65.83</ele>
        <time>2021-07-20T08:53:35Z</time>
      </trkpt>
      <trkpt lat="48.67991" lon="2.51608">
        <ele>65.89</ele>
        <time>2021-07-20T08:53:46Z</time>
      </trkpt>
      <trkpt lat="48.67998" lon="2.51628">
        <ele>65.98</ele>
        <time>2021-07-20T08:54:00Z</time>
      </trkpt>
      <trkpt lat="48.68002" lon="2.51646">
        <ele>66.07</ele>
        <time>2021-07-20T08:54:11Z</time>
      </trkpt>
      <trkpt lat="48.68006" lon="2.51661">
        <ele>66.16</ele>
        <time>2021-07-20T08:54:22Z</time>
      </trkpt>
      <trkpt lat="48.68014" lon="2.51678">
        <ele>66.25</ele>
        <time>2021-07-20T08:54:34Z</time>
      </trkpt>
      <trkpt lat="48.68021" lon="2.51693">
        <ele>66.33</ele>
        <time>2021-07-20T08:54:44Z</time>
      </trkpt>
      <trkpt lat="48.68024" lon="2.51707">
        <ele>66.4</ele>
        <time>2021-07-20T08:54:53Z</time>
      </trkpt>
      <trkpt lat="48.68029" lon="2.51722">
        <ele>66.46</ele>
        <time>2021-07-20T08:55:02Z</time>
      </trkpt>
      <trkpt lat="48.68035" lon="2.51736">
        <ele>66.56</ele>
        <time>2021-07-20T08:55:13Z</time>
      </trkpt>
      <trkpt lat="48.6804" lon="2.51759">
        <ele>65.89</ele>
        <time>2021-07-20T08:55:26Z</time>
      </trkpt>
      <trkpt lat="48.68044" lon="2.51774">
        <ele>65.99</ele>
        <time>2021-07-20T08:55:36Z</time>
      </trkpt>
      <trkpt lat="48.68048" lon="2.51793">
        <ele>66.1</ele>
        <time>2021-07-20T08:55:48Z</time>
      </trkpt>
      <trkpt lat="48.6805" lon="2.51803">
        <ele>65.22</ele>
        <time>2021-07-20T08:55:53Z</time>
      </trkpt>
      <trkpt lat="48.68055" lon="2.51817">
        <ele>65.31</ele>
        <time>2021-07-20T08:56:02Z</time>
      </trkpt>
      <trkpt lat="48.68058" lon="2.51827">
        <ele>65.38</ele>
        <time>2021-07-20T08:56:08Z</time>
      </trkpt>
      <trkpt lat="48.68063" lon="2.51839">
        <ele>65.48</ele>
        <time>2021-07-20T08:56:18Z</time>
      </trkpt>
      <trkpt lat="48.68069" lon="2.51855">
        <ele>65.6</ele>
        <time>2021-07-20T08:56:29Z</time>
      </trkpt>
      <trkpt lat="48.68075" lon="2.51873">
        <ele>65.72</ele>
        <time>2021-07-20T08:56:40Z</time>
      </trkpt>
      <trkpt lat="48.68082" lon="2.51887">
        <ele>65.82</ele>
        <time>2021-07-20T08:56:50Z</time>
      </trkpt>
      <trkpt lat="48.68092" lon="2.51894">
        <ele>65.95</ele>
        <time>2021-07-20T08:57:02Z</time>
      </trkpt>
      <trkpt lat="48.68103" lon="2.51899">
        <ele>66.06</ele>
        <time>2021-07-20T08:57:12Z</time>
      </trkpt>
      <trkpt lat="48.68115" lon="2.51905">
        <ele>66.19</ele>
        <time>2021-07-20T08:57:23Z</time>
      </trkpt>
      <trkpt lat="48.68127" lon="2.51915">
        <ele>66.31</ele>
        <time>2021-07-20T08:57:35Z</time>
      </trkpt>
      <trkpt lat="48.68137" lon="2.51919">
        <ele>66.41</ele>
        <time>2021-07-20T08:57:43Z</time>
      </trkpt>
      <trkpt lat="48.68144" lon="2.51921">
        <ele>66.47</ele>
        <time>2021-07-20T08:57:51Z</time>
      </trkpt>
      <trkpt lat="48.68158" lon="2.5193">
        <ele>66.62</ele>
        <time>2021-07-20T08:58:04Z</time>
      </trkpt>
      <trkpt lat="48.68167" lon="2.51938">
        <ele>66.74</ele>
        <time>2021-07-20T08:58:15Z</time>
      </trkpt>
      <trkpt lat="48.68177" lon="2.51941">
        <ele>66.86</ele>
        <time>2021-07-20T08:58:25Z</time>
      </trkpt>
      <trkpt lat="48.68187" lon="2.51945">
        <ele>66.95</ele>
        <time>2021-07-20T08:58:34Z</time>
      </trkpt>
      <trkpt lat="48.68191" lon="2.5195">
        <ele>67.06</ele>
        <time>2021-07-20T08:58:44Z</time>
      </trkpt>
      <trkpt lat="48.68201" lon="2.51961">
        <ele>67.17</ele>
        <time>2021-07-20T08:58:54Z</time>
      </trkpt>
      <trkpt lat="48.68208" lon="2.51967">
        <ele>67.28</ele>
        <time>2021-07-20T08:59:04Z</time>
      </trkpt>
      <trkpt lat="48.68218" lon="2.51971">
        <ele>67.39</ele>
        <time>2021-07-20T08:59:15Z</time>
      </trkpt>
      <trkpt lat="48.68226" lon="2.51974">
        <ele>67.47</ele>
        <time>2021-07-20T08:59:23Z</time>
      </trkpt>
      <trkpt lat="48.68237" lon="2.51981">
        <ele>66.7</ele>
        <time>2021-07-20T08:59:33Z</time>
      </trkpt>
      <trkpt lat="48.68247" lon="2.51985">
        <ele>66.77</ele>
        <time>2021-07-20T08:59:42Z</time>
      </trkpt>
      <trkpt lat="48.68257" lon="2.5199">
        <ele>66.86</ele>
        <time>2021-07-20T08:59:52Z</time>
      </trkpt>
      <trkpt lat="48.68266" lon="2.51995">
        <ele>66.94</ele>
        <time>2021-07-20T09:00:01Z</time>
      </trkpt>
      <trkpt lat="48.68274" lon="2.52001">
        <ele>67.02</ele>
        <time>2021-07-20T09:00:11Z</time>
      </trkpt>
      <trkpt lat="48.68284" lon="2.52006">
        <ele>67.1</ele>
        <time>2021-07-20T09:00:21Z</time>
      </trkpt>
      <trkpt lat="48.68295" lon="2.52013">
        <ele>67.2</ele>
        <time>2021-07-20T09:00:32Z</time>
      </trkpt>
      <trkpt lat="48.68309" lon="2.52021">
        <ele>67.28</ele>
        <time>2021-07-20T09:00:43Z</time>
      </trkpt>
      <trkpt lat="48.68316" lon="2.52026">
        <ele>67.33</ele>
        <time>2021-07-20T09:00:50Z</time>
      </trkpt>
      <trkpt lat="48.68327" lon="2.52029">
        <ele>67.41</ele>
        <time>2021-07-20T09:00:59Z</time>
      </trkpt>
      <trkpt lat="48.68329" lon="2.5203">
        <ele>67.42</ele>
        <time>2021-07-20T09:01:00Z</time>
      </trkpt>
      <trkpt lat="48.6834" lon="2.52037">
        <ele>67.5</ele>
        <time>2021-07-20T09:01:10Z</time>
      </trkpt>
      <trkpt lat="48.68355" lon="2.52049">
        <ele>66.85</ele>
        <time>2021-07-20T09:01:24Z</time>
      </trkpt>
      <trkpt lat="48.68365" lon="2.52057">
        <ele>66.92</ele>
        <time>2021-07-20T09:01:33Z</time>
      </trkpt>
      <trkpt lat="48.68372" lon="2.5206">
        <ele>66.18</ele>
        <time>2021-07-20T09:01:40Z</time>
      </trkpt>
      <trkpt lat="48.68383" lon="2.52065">
        <ele>66.26</ele>
        <time>2021-07-20T09:01:50Z</time>
      </trkpt>
      <trkpt lat="48.68387" lon="2.52067">
        <ele>66.31</ele>
        <time>2021-07-20T09:01:54Z</time>
      </trkpt>
      <trkpt lat="48.68394" lon="2.52072">
        <ele>66.38</ele>
        <time>2021-07-20T09:02:01Z</time>
      </trkpt>
      <trkpt lat="48.68399" lon="2.52077">
        <ele>65.58</ele>
        <time>2021-07-20T09:02:07Z</time>
      </trkpt>
      <trkpt lat="48.68405" lon="2.52083">
        <ele>65.67</ele>
        <time>2021-07-20T09:02:15Z</time>
      </trkpt>
      <trkpt lat="48.68419" lon="2.52087">
        <ele>64.86</ele>
        <time>2021-07-20T09:02:26Z</time>
      </trkpt>
      <trkpt lat="48.68433" lon="2.52093">
        <ele>63.35</ele>
        <time>2021-07-20T09:02:40Z</time>
      </trkpt>
      <trkpt lat="48.68445" lon="2.52102">
        <ele>62.43</ele>
        <time>2021-07-20T09:02:52Z</time>
      </trkpt>
      <trkpt lat="48.68456" lon="2.52112">
        <ele>61.91</ele>
        <time>2021-07-20T09:03:03Z</time>
      </trkpt>
      <trkpt lat="48.68472" lon="2.52116">
        <ele>60.21</ele>
        <time>2021-07-20T09:03:16Z</time>
      </trkpt>
      <trkpt lat="48.68481" lon="2.52124">
        <ele>57.8</ele>
        <time>2021-07-20T09:03:25Z</time>
      </trkpt>
      <trkpt lat="48.68487" lon="2.52129">
        <ele>57.33</ele>
        <time>2021-07-20T09:03:35Z</time>
      </trkpt>
      <trkpt lat="48.68492" lon="2.52134">
        <ele>57.47</ele>
        <time>2021-07-20T09:03:50Z</time>
      </trkpt>
      <trkpt lat="48.68501" lon="2.52139">
        <ele>56.46</ele>
        <time>2021-07-20T09:04:02Z</time>
      </trkpt>
      <trkpt lat="48.68506" lon="2.52139">
        <ele>55.54</ele>
        <time>2021-07-20T09:04:15Z</time>
      </trkpt>
      <trkpt lat="48.68519" lon="2.52145">
        <ele>55.64</ele>
        <time>2021-07-20T09:04:26Z</time>
      </trkpt>
      <trkpt lat="48.68527" lon="2.5215">
        <ele>54.42</ele>
        <time>2021-07-20T09:04:36Z</time>
      </trkpt>
      <trkpt lat="48.68536" lon="2.52154">
        <ele>52.17</ele>
        <time>2021-07-20T09:04:48Z</time>
      </trkpt>
      <trkpt lat="48.68546" lon="2.52162">
        <ele>51.14</ele>
        <time>2021-07-20T09:04:59Z</time>
      </trkpt>
      <trkpt lat="48.68557" lon="2.52169">
        <ele>50.37</ele>
        <time>2021-07-20T09:05:10Z</time>
      </trkpt>
      <trkpt lat="48.68577" lon="2.52174">
        <ele>49.63</ele>
        <time>2021-07-20T09:05:26Z</time>
      </trkpt>
      <trkpt lat="48.68594" lon="2.52184">
        <ele>48.66</ele>
        <time>2021-07-20T09:05:39Z</time>
      </trkpt>
      <trkpt lat="48.686" lon="2.52189">
        <ele>46.08</ele>
        <time>2021-07-20T09:05:47Z</time>
      </trkpt>
      <trkpt lat="48.68609" lon="2.52191">
        <ele>44.38</ele>
        <time>2021-07-20T09:05:58Z</time>
      </trkpt>
      <trkpt lat="48.68622" lon="2.52195">
        <ele>42.88</ele>
        <time>2021-07-20T09:06:11Z</time>
      </trkpt>
      <trkpt lat="48.68633" lon="2.52204">
        <ele>41.23</ele>
        <time>2021-07-20T09:06:21Z</time>
      </trkpt>
      <trkpt lat="48.68642" lon="2.52208">
        <ele>40.34</ele>
        <time>2021-07-20T09:06:31Z</time>
      </trkpt>
      <trkpt lat="48.68656" lon="2.52218">
        <ele>38.5</ele>
        <time>2021-07-20T09:06:44Z</time>
      </trkpt>
      <trkpt lat="48.68663" lon="2.52223">
        <ele>38.41</ele>
        <time>2021-07-20T09:06:51Z</time>
      </trkpt>
      <trkpt lat="48.68669" lon="2.52227">
        <ele>37.63</ele>
        <time>2021-07-20T09:06:57Z</time>
      </trkpt>
      <trkpt lat="48.68677" lon="2.52231">
        <ele>37.67</ele>
        <time>2021-07-20T09:07:05Z</time>
      </trkpt>
      <trkpt lat="48.6868" lon="2.52232">
        <ele>36.18</ele>
        <time>2021-07-20T09:07:08Z</time>
      </trkpt>
      <trkpt lat="48.68683" lon="2.52233">
        <ele>36.13</ele>
        <time>2021-07-20T09:07:11Z</time>
      </trkpt>
      <trkpt lat="48.6869" lon="2.5224">
        <ele>36.17</ele>
        <time>2021-07-20T09:07:18Z</time>
      </trkpt>
      <trkpt lat="48.68698" lon="2.52247">
        <ele>35.06</ele>
        <time>2021-07-20T09:07:27Z</time>
      </trkpt>
      <trkpt lat="48.68709" lon="2.52257">
        <ele>33.29</ele>
        <time>2021-07-20T09:07:40Z</time>
      </trkpt>
      <trkpt lat="48.68717" lon="2.52268">
        <ele>32.35</ele>
        <time>2021-07-20T09:07:51Z</time>
      </trkpt>
      <trkpt lat="48.68726" lon="2.52271">
        <ele>32.42</ele>
        <time>2021-07-20T09:08:03Z</time>
      </trkpt>
      <trkpt lat="48.68733" lon="2.52276">
        <ele>32.47</ele>
        <time>2021-07-20T09:08:14Z</time>
      </trkpt>
      <trkpt lat="48.68746" lon="2.5228">
        <ele>32.53</ele>
        <time>2021-07-20T09:08:27Z</time>
      </trkpt>
      <trkpt lat="48.68759" lon="2.52288">
        <ele>32.57</ele>
        <time>2021-07-20T09:08:40Z</time>
      </trkpt>
      <trkpt lat="48.68768" lon="2.52299">
        <ele>32.57</ele>
        <time>2021-07-20T09:08:50Z</time>
      </trkpt>
      <trkpt lat="48.68772" lon="2.52306">
        <ele>32.57</ele>
        <time>2021-07-20T09:08:58Z</time>
      </trkpt>
      <trkpt lat="48.68776" lon="2.52312">
        <ele>32.7</ele>
        <time>2021-07-20T09:09:10Z</time>
      </trkpt>
      <trkpt lat="48.68781" lon="2.52314">
        <ele>31.67</ele>
        <time>2021-07-20T09:09:22Z</time>
      </trkpt>
      <trkpt lat="48.6878" lon="2.52321">
        <ele>31.76</ele>
        <time>2021-07-20T09:09:35Z</time>
      </trkpt>
      <trkpt lat="48.6878" lon="2.52324">
        <ele>31.86</ele>
        <time>2021-07-20T09:09:51Z</time>
      </trkpt>
      <trkpt lat="48.68784" lon="2.52322">
        <ele>31.82</ele>
        <time>2021-07-20T09:10:05Z</time>
      </trkpt>
      <trkpt lat="48.68783" lon="2.52322">
        <ele>30.96</ele>
        <time>2021-07-20T09:10:21Z</time>
      </trkpt>
      <trkpt lat="48.68783" lon="2.52321">
        <ele>30.97</ele>
        <time>2021-07-20T09:10:36Z</time>
      </trkpt>
      <trkpt lat="48.68783" lon="2.52322">
        <ele>30.98</ele>
        <time>2021-07-20T09:10:47Z</time>
      </trkpt>
      <trkpt lat="48.68783" lon="2.52322">
        <ele>31.01</ele>
        <time>2021-07-20T09:10:57Z</time>
      </trkpt>
      <trkpt lat="48.68783" lon="2.5232">
        <ele>31</ele>
        <time>2021-07-20T09:11:10Z</time>
      </trkpt>
      <trkpt lat="48.68781" lon="2.52323">
        <ele>31</ele>
        <time>2021-07-20T09:11:23Z</time>
      </trkpt>
      <trkpt lat="48.68785" lon="2.5233">
        <ele>31.01</ele>
        <time>2021-07-20T09:11:35Z</time>
      </trkpt>
      <trkpt lat="48.68786" lon="2.52328">
        <ele>31</ele>
        <time>2021-07-20T09:11:51Z</time>
      </trkpt>
      <trkpt lat="48.68784" lon="2.52326">
        <ele>31.02</ele>
        <time>2021-07-20T09:12:00Z</time>
      </trkpt>
      <trkpt lat="48.68781" lon="2.52322">
        <ele>31.04</ele>
        <time>2021-07-20T09:12:11Z</time>
      </trkpt>
      <trkpt lat="48.68777" lon="2.52318">
        <ele>31.05</ele>
        <time>2021-07-20T09:12:21Z</time>
      </trkpt>
      <trkpt lat="48.68769" lon="2.5231">
        <ele>31.02</ele>
        <time>2021-07-20T09:12:30Z</time>
      </trkpt>
      <trkpt lat="48.68768" lon="2.52309">
        <ele>31.05</ele>
        <time>2021-07-20T09:12:38Z</time>
      </trkpt>
      <trkpt lat="48.68767" lon="2.52307">
        <ele>31.13</ele>
        <time>2021-07-20T09:12:55Z</time>
      </trkpt>
      <trkpt lat="48.6877" lon="2.52308">
        <ele>31.03</ele>
        <time>2021-07-20T09:13:02Z</time>
      </trkpt>
      <trkpt lat="48.68776" lon="2.52314">
        <ele>31.09</ele>
        <time>2021-07-20T09:13:12Z</time>
      </trkpt>
      <trkpt lat="48.68779" lon="2.52316">
        <ele>31.12</ele>
        <time>2021-07-20T09:13:23Z</time>
      </trkpt>
      <trkpt lat="48.68779" lon="2.52315">
        <ele>31.17</ele>
        <time>2021-07-20T09:13:35Z</time>
      </trkpt>
      <trkpt lat="48.68778" lon="2.52315">
        <ele>31.18</ele>
        <time>2021-07-20T09:13:48Z</time>
      </trkpt>
      <trkpt lat="48.68777" lon="2.52315">
        <ele>31.17</ele>
        <time>2021-07-20T09:14:07Z</time>
      </trkpt>
      <trkpt lat="48.68776" lon="2.52316">
        <ele>31.16</ele>
        <time>2021-07-20T09:14:19Z</time>
      </trkpt>
      <trkpt lat="48.68777" lon="2.52318">
        <ele>31.15</ele>
        <time>2021-07-20T09:14:37Z</time>
      </trkpt>
      <trkpt lat="48.68778" lon="2.52319">
        <ele>31.18</ele>
        <time>2021-07-20T09:14:55Z</time>
      </trkpt>
      <trkpt lat="48.68777" lon="2.52316">
        <ele>31.11</ele>
        <time>2021-07-20T09:15:09Z</time>
      </trkpt>
      <trkpt lat="48.68777" lon="2.5231">
        <ele>31.09</ele>
        <time>2021-07-20T09:15:26Z</time>
      </trkpt>
      <trkpt lat="48.68777" lon="2.5231">
        <ele>31.11</ele>
        <time>2021-07-20T09:15:38Z</time>
      </trkpt>
      <trkpt lat="48.68779" lon="2.52312">
        <ele>31.12</ele>
        <time>2021-07-20T09:15:58Z</time>
      </trkpt>
      <trkpt lat="48.6878" lon="2.52314">
        <ele>31.12</ele>
        <time>2021-07-20T09:16:17Z</time>
      </trkpt>
      <trkpt lat="48.68782" lon="2.52316">
        <ele>31.12</ele>
        <time>2021-07-20T09:16:27Z</time>
      </trkpt>
      <trkpt lat="48.68781" lon="2.52319">
        <ele>31.07</ele>
        <time>2021-07-20T09:16:36Z</time>
      </trkpt>
      <trkpt lat="48.68785" lon="2.52318">
        <ele>31.09</ele>
        <time>2021-07-20T09:16:52Z</time>
      </trkpt>
      <trkpt lat="48.68789" lon="2.52317">
        <ele>31.16</ele>
        <time>2021-07-20T09:17:03Z</time>
      </trkpt>
      <trkpt lat="48.68789" lon="2.52316">
        <ele>31.16</ele>
        <time>2021-07-20T09:17:04Z</time>
      </trkpt>
      <trkpt lat="48.68792" lon="2.52314">
        <ele>31.17</ele>
        <time>2021-07-20T09:17:07Z</time>
      </trkpt>
      <trkpt lat="48.68801" lon="2.52313">
        <ele>31.2</ele>
        <time>2021-07-20T09:17:16Z</time>
      </trkpt>
      <trkpt lat="48.6881" lon="2.52312">
        <ele>31.2</ele>
        <time>2021-07-20T09:17:26Z</time>
      </trkpt>
      <trkpt lat="48.68817" lon="2.52306">
        <ele>31.22</ele>
        <time>2021-07-20T09:17:34Z</time>
      </trkpt>
      <trkpt lat="48.68823" lon="2.52296">
        <ele>31.28</ele>
        <time>2021-07-20T09:17:42Z</time>
      </trkpt>
      <trkpt lat="48.68828" lon="2.52285">
        <ele>31.28</ele>
        <time>2021-07-20T09:17:49Z</time>
      </trkpt>
      <trkpt lat="48.68834" lon="2.52273">
        <ele>31.3</ele>
        <time>2021-07-20T09:17:58Z</time>
      </trkpt>
      <trkpt lat="48.68839" lon="2.52266">
        <ele>31.32</ele>
        <time>2021-07-20T09:18:05Z</time>
      </trkpt>
      <trkpt lat="48.68844" lon="2.52261">
        <ele>31.31</ele>
        <time>2021-07-20T09:18:12Z</time>
      </trkpt>
      <trkpt lat="48.68845" lon="2.5226">
        <ele>31.33</ele>
        <time>2021-07-20T09:18:13Z</time>
      </trkpt>
      <trkpt lat="48.68854" lon="2.52252">
        <ele>31.32</ele>
        <time>2021-07-20T09:18:23Z</time>
      </trkpt>
      <trkpt lat="48.68865" lon="2.52243">
        <ele>31.33</ele>
        <time>2021-07-20T09:18:36Z</time>
      </trkpt>
      <trkpt lat="48.68874" lon="2.52231">
        <ele>31.3</ele>
        <time>2021-07-20T09:18:48Z</time>
      </trkpt>
      <trkpt lat="48.68882" lon="2.52217">
        <ele>31.29</ele>
        <time>2021-07-20T09:18:58Z</time>
      </trkpt>
      <trkpt lat="48.6889" lon="2.52202">
        <ele>31.21</ele>
        <time>2021-07-20T09:19:09Z</time>
      </trkpt>
      <trkpt lat="48.68896" lon="2.52189">
        <ele>31.14</ele>
        <time>2021-07-20T09:19:17Z</time>
      </trkpt>
      <trkpt lat="48.68899" lon="2.52182">
        <ele>31.19</ele>
        <time>2021-07-20T09:19:22Z</time>
      </trkpt>
      <trkpt lat="48.68905" lon="2.5217">
        <ele>31.12</ele>
        <time>2021-07-20T09:19:30Z</time>
      </trkpt>
      <trkpt lat="48.6891" lon="2.52159">
        <ele>31.16</ele>
        <time>2021-07-20T09:19:39Z</time>
      </trkpt>
      <trkpt lat="48.68916" lon="2.52147">
        <ele>31.14</ele>
        <time>2021-07-20T09:19:49Z</time>
      </trkpt>
      <trkpt lat="48.68922" lon="2.52138">
        <ele>31.1</ele>
        <time>2021-07-20T09:20:00Z</time>
      </trkpt>
      <trkpt lat="48.68927" lon="2.52123">
        <ele>31.09</ele>
        <time>2021-07-20T09:20:10Z</time>
      </trkpt>
      <trkpt lat="48.68931" lon="2.52111">
        <ele>31.08</ele>
        <time>2021-07-20T09:20:19Z</time>
      </trkpt>
      <trkpt lat="48.68941" lon="2.52101">
        <ele>31</ele>
        <time>2021-07-20T09:20:31Z</time>
      </trkpt>
      <trkpt lat="48.68956" lon="2.52092">
        <ele>30.97</ele>
        <time>2021-07-20T09:20:42Z</time>
      </trkpt>
      <trkpt lat="48.68964" lon="2.52085">
        <ele>30.92</ele>
        <time>2021-07-20T09:20:50Z</time>
      </trkpt>
      <trkpt lat="48.68974" lon="2.52077">
        <ele>30.88</ele>
        <time>2021-07-20T09:20:59Z</time>
      </trkpt>
      <trkpt lat="48.68979" lon="2.52073">
        <ele>30.88</ele>
        <time>2021-07-20T09:21:06Z</time>
      </trkpt>
      <trkpt lat="48.68981" lon="2.52072">
        <ele>30.87</ele>
        <time>2021-07-20T09:21:09Z</time>
      </trkpt>
      <trkpt lat="48.68992" lon="2.5207">
        <ele>30.84</ele>
        <time>2021-07-20T09:21:20Z</time>
      </trkpt>
      <trkpt lat="48.69002" lon="2.52071">
        <ele>30.82</ele>
        <time>2021-07-20T09:21:32Z</time>
      </trkpt>
      <trkpt lat="48.69008" lon="2.52072">
        <ele>30.79</ele>
        <time>2021-07-20T09:21:43Z</time>
      </trkpt>
      <trkpt lat="48.69014" lon="2.52076">
        <ele>30.75</ele>
        <time>2021-07-20T09:21:52Z</time>
      </trkpt>
      <trkpt lat="48.69023" lon="2.52083">
        <ele>30.71</ele>
        <time>2021-07-20T09:22:02Z</time>
      </trkpt>
      <trkpt lat="48.69032" lon="2.52089">
        <ele>30.67</ele>
        <time>2021-07-20T09:22:14Z</time>
      </trkpt>
      <trkpt lat="48.6904" lon="2.52098">
        <ele>30.68</ele>
        <time>2021-07-20T09:22:24Z</time>
      </trkpt>
      <trkpt lat="48.69043" lon="2.521">
        <ele>30.68</ele>
        <time>2021-07-20T09:22:26Z</time>
      </trkpt>
      <trkpt lat="48.69048" lon="2.52108">
        <ele>30.62</ele>
        <time>2021-07-20T09:22:40Z</time>
      </trkpt>
      <trkpt lat="48.69048" lon="2.52116">
        <ele>30.61</ele>
        <time>2021-07-20T09:22:53Z</time>
      </trkpt>
      <trkpt lat="48.69049" lon="2.52115">
        <ele>30.59</ele>
        <time>2021-07-20T09:23:03Z</time>
      </trkpt>
      <trkpt lat="48.69049" lon="2.52113">
        <ele>30.66</ele>
        <time>2021-07-20T09:23:21Z</time>
      </trkpt>
      <trkpt lat="48.69048" lon="2.52113">
        <ele>30.71</ele>
        <time>2021-07-20T09:23:37Z</time>
      </trkpt>
      <trkpt lat="48.69052" lon="2.52115">
        <ele>30.73</ele>
        <time>2021-07-20T09:23:54Z</time>
      </trkpt>
      <trkpt lat="48.69053" lon="2.52115">
        <ele>30.81</ele>
        <time>2021-07-20T09:24:14Z</time>
      </trkpt>
      <trkpt lat="48.69059" lon="2.52117">
        <ele>30.87</ele>
        <time>2021-07-20T09:24:22Z</time>
      </trkpt>
      <trkpt lat="48.69064" lon="2.52119">
        <ele>30.91</ele>
        <time>2021-07-20T09:24:28Z</time>
      </trkpt>
      <trkpt lat="48.69072" lon="2.52125">
        <ele>30.99</ele>
        <time>2021-07-20T09:24:38Z</time>
      </trkpt>
      <trkpt lat="48.6908" lon="2.52129">
        <ele>31.07</ele>
        <time>2021-07-20T09:24:47Z</time>
      </trkpt>
      <trkpt lat="48.69088" lon="2.52133">
        <ele>31.14</ele>
        <time>2021-07-20T09:24:56Z</time>
      </trkpt>
      <trkpt lat="48.69102" lon="2.52137">
        <ele>31.23</ele>
        <time>2021-07-20T09:25:09Z</time>
      </trkpt>
      <trkpt lat="48.6911" lon="2.5214">
        <ele>31.3</ele>
        <time>2021-07-20T09:25:19Z</time>
      </trkpt>
      <trkpt lat="48.69118" lon="2.52136">
        <ele>31.33</ele>
        <time>2021-07-20T09:25:29Z</time>
      </trkpt>
      <trkpt lat="48.69122" lon="2.52141">
        <ele>31.38</ele>
        <time>2021-07-20T09:25:34Z</time>
      </trkpt>
      <trkpt lat="48.69129" lon="2.52157">
        <ele>31.41</ele>
        <time>2021-07-20T09:25:44Z</time>
      </trkpt>
      <trkpt lat="48.69134" lon="2.52172">
        <ele>31.45</ele>
        <time>2021-07-20T09:25:54Z</time>
      </trkpt>
      <trkpt lat="48.69137" lon="2.52181">
        <ele>31.5</ele>
        <time>2021-07-20T09:26:00Z</time>
      </trkpt>
      <trkpt lat="48.6914" lon="2.52195">
        <ele>31.51</ele>
        <time>2021-07-20T09:26:08Z</time>
      </trkpt>
      <trkpt lat="48.69144" lon="2.52209">
        <ele>31.56</ele>
        <time>2021-07-20T09:26:16Z</time>
      </trkpt>
      <trkpt lat="48.69147" lon="2.5222">
        <ele>31.59</ele>
        <time>2021-07-20T09:26:23Z</time>
      </trkpt>
      <trkpt lat="48.69152" lon="2.52232">
        <ele>31.57</ele>
        <time>2021-07-20T09:26:32Z</time>
      </trkpt>
      <trkpt lat="48.69155" lon="2.52246">
        <ele>31.59</ele>
        <time>2021-07-20T09:26:41Z</time>
      </trkpt>
      <trkpt lat="48.69159" lon="2.52265">
        <ele>31.6</ele>
        <time>2021-07-20T09:26:51Z</time>
      </trkpt>
      <trkpt lat="48.69163" lon="2.5228">
        <ele>31.6</ele>
        <time>2021-07-20T09:27:01Z</time>
      </trkpt>
      <trkpt lat="48.69167" lon="2.52296">
        <ele>31.61</ele>
        <time>2021-07-20T09:27:09Z</time>
      </trkpt>
      <trkpt lat="48.69174" lon="2.52318">
        <ele>31.6</ele>
        <time>2021-07-20T09:27:21Z</time>
      </trkpt>
      <trkpt lat="48.69178" lon="2.5233">
        <ele>31.59</ele>
        <time>2021-07-20T09:27:29Z</time>
      </trkpt>
      <trkpt lat="48.69184" lon="2.52344">
        <ele>31.63</ele>
        <time>2021-07-20T09:27:39Z</time>
      </trkpt>
      <trkpt lat="48.69189" lon="2.52354">
        <ele>31.7</ele>
        <time>2021-07-20T09:27:46Z</time>
      </trkpt>
      <trkpt lat="48.69194" lon="2.52371">
        <ele>31.7</ele>
        <time>2021-07-20T09:27:56Z</time>
      </trkpt>
      <trkpt lat="48.69197" lon="2.52381">
        <ele>31.69</ele>
        <time>2021-07-20T09:28:02Z</time>
      </trkpt>
      <trkpt lat="48.69206" lon="2.5239">
        <ele>31.74</ele>
        <time>2021-07-20T09:28:11Z</time>
      </trkpt>
      <trkpt lat="48.69217" lon="2.52395">
        <ele>31.74</ele>
        <time>2021-07-20T09:28:20Z</time>
      </trkpt>
      <trkpt lat="48.69227" lon="2.52403">
        <ele>31.74</ele>
        <time>2021-07-20T09:28:30Z</time>
      </trkpt>
      <trkpt lat="48.69238" lon="2.52408">
        <ele>31.75</ele>
        <time>2021-07-20T09:28:41Z</time>
      </trkpt>
      <trkpt lat="48.69248" lon="2.52412">
        <ele>31.8</ele>
        <time>2021-07-20T09:28:51Z</time>
      </trkpt>
      <trkpt lat="48.69256" lon="2.52417">
        <ele>31.84</ele>
        <time>2021-07-20T09:29:00Z</time>
      </trkpt>
      <trkpt lat="48.69267" lon="2.52424">
        <ele>31.85</ele>
        <time>2021-07-20T09:29:08Z</time>
      </trkpt>
      <trkpt lat="48.69275" lon="2.52431">
        <ele>31.87</ele>
        <time>2021-07-20T09:29:16Z</time>
      </trkpt>
      <trkpt lat="48.69282" lon="2.5244">
        <ele>31.9</ele>
        <time>2021-07-20T09:29:25Z</time>
      </trkpt>
      <trkpt lat="48.69291" lon="2.5245">
        <ele>31.93</ele>
        <time>2021-07-20T09:29:35Z</time>
      </trkpt>
      <trkpt lat="48.69298" lon="2.52456">
        <ele>31.95</ele>
        <time>2021-07-20T09:29:42Z</time>
      </trkpt>
      <trkpt lat="48.69306" lon="2.52466">
        <ele>31.96</ele>
        <time>2021-07-20T09:29:54Z</time>
      </trkpt>
      <trkpt lat="48.69312" lon="2.52474">
        <ele>31.98</ele>
        <time>2021-07-20T09:30:03Z</time>
      </trkpt>
      <trkpt lat="48.69323" lon="2.52486">
        <ele>31.96</ele>
        <time>2021-07-20T09:30:14Z</time>
      </trkpt>
      <trkpt lat="48.6933" lon="2.52495">
        <ele>31.95</ele>
        <time>2021-07-20T09:30:23Z</time>
      </trkpt>
      <trkpt lat="48.69335" lon="2.52506">
        <ele>31.93</ele>
        <time>2021-07-20T09:30:32Z</time>
      </trkpt>
      <trkpt lat="48.69341" lon="2.52522">
        <ele>31.93</ele>
        <time>2021-07-20T09:30:42Z</time>
      </trkpt>
      <trkpt lat="48.69346" lon="2.52537">
        <ele>31.88</ele>
        <time>2021-07-20T09:30:53Z</time>
      </trkpt>
      <trkpt lat="48.69347" lon="2.52548">
        <ele>31.89</ele>
        <time>2021-07-20T09:31:02Z</time>
      </trkpt>
      <trkpt lat="48.69347" lon="2.52557">
        <ele>31.88</ele>
        <time>2021-07-20T09:31:14Z</time>
      </trkpt>
      <trkpt lat="48.69352" lon="2.52578">
        <ele>31.89</ele>
        <time>2021-07-20T09:31:26Z</time>
      </trkpt>
      <trkpt lat="48.69356" lon="2.526">
        <ele>31.88</ele>
        <time>2021-07-20T09:31:38Z</time>
      </trkpt>
      <trkpt lat="48.69358" lon="2.52615">
        <ele>31.87</ele>
        <time>2021-07-20T09:31:49Z</time>
      </trkpt>
      <trkpt lat="48.69361" lon="2.52635">
        <ele>31.86</ele>
        <time>2021-07-20T09:31:59Z</time>
      </trkpt>
      <trkpt lat="48.69365" lon="2.52648">
        <ele>31.84</ele>
        <time>2021-07-20T09:32:07Z</time>
      </trkpt>
      <trkpt lat="48.69366" lon="2.52673">
        <ele>31.8</ele>
        <time>2021-07-20T09:32:20Z</time>
      </trkpt>
      <trkpt lat="48.69367" lon="2.52695">
        <ele>31.73</ele>
        <time>2021-07-20T09:32:33Z</time>
      </trkpt>
      <trkpt lat="48.69368" lon="2.52709">
        <ele>31.68</ele>
        <time>2021-07-20T09:32:43Z</time>
      </trkpt>
      <trkpt lat="48.69368" lon="2.52727">
        <ele>31.62</ele>
        <time>2021-07-20T09:32:54Z</time>
      </trkpt>
      <trkpt lat="48.69366" lon="2.52744">
        <ele>31.52</ele>
        <time>2021-07-20T09:33:05Z</time>
      </trkpt>
      <trkpt lat="48.69369" lon="2.52765">
        <ele>31.41</ele>
        <time>2021-07-20T09:33:17Z</time>
      </trkpt>
      <trkpt lat="48.69372" lon="2.5278">
        <ele>31.31</ele>
        <time>2021-07-20T09:33:25Z</time>
      </trkpt>
      <trkpt lat="48.69377" lon="2.528">
        <ele>31.21</ele>
        <time>2021-07-20T09:33:35Z</time>
      </trkpt>
      <trkpt lat="48.69384" lon="2.52816">
        <ele>31.12</ele>
        <time>2021-07-20T09:33:45Z</time>
      </trkpt>
      <trkpt lat="48.6939" lon="2.52827">
        <ele>31.06</ele>
        <time>2021-07-20T09:33:54Z</time>
      </trkpt>
      <trkpt lat="48.69396" lon="2.52836">
        <ele>31.01</ele>
        <time>2021-07-20T09:34:02Z</time>
      </trkpt>
      <trkpt lat="48.69403" lon="2.52845">
        <ele>30.97</ele>
        <time>2021-07-20T09:34:10Z</time>
      </trkpt>
      <trkpt lat="48.69412" lon="2.52853">
        <ele>30.93</ele>
        <time>2021-07-20T09:34:19Z</time>
      </trkpt>
      <trkpt lat="48.69421" lon="2.52865">
        <ele>30.9</ele>
        <time>2021-07-20T09:34:28Z</time>
      </trkpt>
      <trkpt lat="48.69428" lon="2.52877">
        <ele>30.9</ele>
        <time>2021-07-20T09:34:37Z</time>
      </trkpt>
      <trkpt lat="48.69434" lon="2.52886">
        <ele>30.9</ele>
        <time>2021-07-20T09:34:45Z</time>
      </trkpt>
      <trkpt lat="48.69439" lon="2.52897">
        <ele>30.9</ele>
        <time>2021-07-20T09:34:53Z</time>
      </trkpt>
      <trkpt lat="48.69444" lon="2.52911">
        <ele>30.91</ele>
        <time>2021-07-20T09:35:02Z</time>
      </trkpt>
      <trkpt lat="48.6945" lon="2.52923">
        <ele>30.92</ele>
        <time>2021-07-20T09:35:10Z</time>
      </trkpt>
      <trkpt lat="48.69456" lon="2.52939">
        <ele>30.92</ele>
        <time>2021-07-20T09:35:19Z</time>
      </trkpt>
      <trkpt lat="48.69459" lon="2.52951">
        <ele>30.93</ele>
        <time>2021-07-20T09:35:28Z</time>
      </trkpt>
      <trkpt lat="48.69464" lon="2.5296">
        <ele>30.94</ele>
        <time>2021-07-20T09:35:35Z</time>
      </trkpt>
      <trkpt lat="48.69467" lon="2.52974">
        <ele>30.94</ele>
        <time>2021-07-20T09:35:43Z</time>
      </trkpt>
      <trkpt lat="48.69472" lon="2.52986">
        <ele>30.92</ele>
        <time>2021-07-20T09:35:51Z</time>
      </trkpt>
      <trkpt lat="48.69478" lon="2.52993">
        <ele>30.92</ele>
        <time>2021-07-20T09:36:00Z</time>
      </trkpt>
      <trkpt lat="48.69487" lon="2.53001">
        <ele>30.88</ele>
        <time>2021-07-20T09:36:11Z</time>
      </trkpt>
      <trkpt lat="48.69497" lon="2.53008">
        <ele>30.82</ele>
        <time>2021-07-20T09:36:23Z</time>
      </trkpt>
      <trkpt lat="48.69503" lon="2.53009">
        <ele>30.8</ele>
        <time>2021-07-20T09:36:28Z</time>
      </trkpt>
      <trkpt lat="48.69515" lon="2.53017">
        <ele>30.77</ele>
        <time>2021-07-20T09:36:38Z</time>
      </trkpt>
      <trkpt lat="48.69526" lon="2.53023">
        <ele>30.72</ele>
        <time>2021-07-20T09:36:47Z</time>
      </trkpt>
      <trkpt lat="48.69536" lon="2.53034">
        <ele>30.67</ele>
        <time>2021-07-20T09:36:57Z</time>
      </trkpt>
      <trkpt lat="48.69549" lon="2.53042">
        <ele>30.63</ele>
        <time>2021-07-20T09:37:07Z</time>
      </trkpt>
      <trkpt lat="48.69557" lon="2.53045">
        <ele>30.61</ele>
        <time>2021-07-20T09:37:15Z</time>
      </trkpt>
      <trkpt lat="48.69569" lon="2.53048">
        <ele>30.59</ele>
        <time>2021-07-20T09:37:23Z</time>
      </trkpt>
      <trkpt lat="48.69581" lon="2.53056">
        <ele>30.59</ele>
        <time>2021-07-20T09:37:32Z</time>
      </trkpt>
      <trkpt lat="48.69591" lon="2.53061">
        <ele>30.58</ele>
        <time>2021-07-20T09:37:40Z</time>
      </trkpt>
      <trkpt lat="48.69592" lon="2.53062">
        <ele>30.59</ele>
        <time>2021-07-20T09:37:41Z</time>
      </trkpt>
      <trkpt lat="48.69602" lon="2.53069">
        <ele>30.59</ele>
        <time>2021-07-20T09:37:50Z</time>
      </trkpt>
      <trkpt lat="48.69607" lon="2.53073">
        <ele>30.6</ele>
        <time>2021-07-20T09:37:57Z</time>
      </trkpt>
      <trkpt lat="48.69611" lon="2.53079">
        <ele>30.61</ele>
        <time>2021-07-20T09:38:06Z</time>
      </trkpt>
      <trkpt lat="48.69612" lon="2.53081">
        <ele>30.62</ele>
        <time>2021-07-20T09:38:08Z</time>
      </trkpt>
      <trkpt lat="48.69619" lon="2.5309">
        <ele>30.65</ele>
        <time>2021-07-20T09:38:17Z</time>
      </trkpt>
      <trkpt lat="48.69625" lon="2.53096">
        <ele>30.71</ele>
        <time>2021-07-20T09:38:26Z</time>
      </trkpt>
      <trkpt lat="48.69631" lon="2.5311">
        <ele>30.73</ele>
        <time>2021-07-20T09:38:37Z</time>
      </trkpt>
      <trkpt lat="48.69637" lon="2.53122">
        <ele>30.78</ele>
        <time>2021-07-20T09:38:49Z</time>
      </trkpt>
      <trkpt lat="48.6964" lon="2.53128">
        <ele>33.11</ele>
        <time>2021-07-20T09:38:54Z</time>
      </trkpt>
      <trkpt lat="48.69641" lon="2.53138">
        <ele>33.16</ele>
        <time>2021-07-20T09:39:03Z</time>
      </trkpt>
      <trkpt lat="48.69642" lon="2.5315">
        <ele>33.18</ele>
        <time>2021-07-20T09:39:13Z</time>
      </trkpt>
      <trkpt lat="48.69642" lon="2.53162">
        <ele>33.98</ele>
        <time>2021-07-20T09:39:25Z</time>
      </trkpt>
      <trkpt lat="48.6964" lon="2.53168">
        <ele>34</ele>
        <time>2021-07-20T09:39:35Z</time>
      </trkpt>
      <trkpt lat="48.69641" lon="2.53168">
        <ele>34.05</ele>
        <time>2021-07-20T09:39:51Z</time>
      </trkpt>
      <trkpt lat="48.69642" lon="2.53169">
        <ele>34.14</ele>
        <time>2021-07-20T09:40:12Z</time>
      </trkpt>
      <trkpt lat="48.69642" lon="2.5317">
        <ele>34.19</ele>
        <time>2021-07-20T09:40:26Z</time>
      </trkpt>
      <trkpt lat="48.69641" lon="2.53169">
        <ele>34.24</ele>
        <time>2021-07-20T09:40:39Z</time>
      </trkpt>
      <trkpt lat="48.69641" lon="2.53177">
        <ele>34.27</ele>
        <time>2021-07-20T09:40:49Z</time>
      </trkpt>
      <trkpt lat="48.69641" lon="2.53189">
        <ele>34.32</ele>
        <time>2021-07-20T09:40:59Z</time>
      </trkpt>
      <trkpt lat="48.69642" lon="2.53197">
        <ele>34.37</ele>
        <time>2021-07-20T09:41:13Z</time>
      </trkpt>
      <trkpt lat="48.69639" lon="2.53201">
        <ele>31.78</ele>
        <time>2021-07-20T09:41:22Z</time>
      </trkpt>
      <trkpt lat="48.69638" lon="2.53203">
        <ele>31.82</ele>
        <time>2021-07-20T09:41:36Z</time>
      </trkpt>
      <trkpt lat="48.69638" lon="2.53203">
        <ele>31.83</ele>
        <time>2021-07-20T09:41:37Z</time>
      </trkpt>
      <trkpt lat="48.69642" lon="2.53205">
        <ele>31.86</ele>
        <time>2021-07-20T09:41:49Z</time>
      </trkpt>
      <trkpt lat="48.69642" lon="2.53205">
        <ele>31.87</ele>
        <time>2021-07-20T09:41:50Z</time>
      </trkpt>
      <trkpt lat="48.69649" lon="2.53204">
        <ele>31.91</ele>
        <time>2021-07-20T09:42:02Z</time>
      </trkpt>
      <trkpt lat="48.69661" lon="2.53203">
        <ele>31.94</ele>
        <time>2021-07-20T09:42:16Z</time>
      </trkpt>
      <trkpt lat="48.69668" lon="2.53204">
        <ele>31.97</ele>
        <time>2021-07-20T09:42:25Z</time>
      </trkpt>
      <trkpt lat="48.69675" lon="2.53218">
        <ele>32</ele>
        <time>2021-07-20T09:42:36Z</time>
      </trkpt>
      <trkpt lat="48.69683" lon="2.5323">
        <ele>34.63</ele>
        <time>2021-07-20T09:42:47Z</time>
      </trkpt>
      <trkpt lat="48.69687" lon="2.53236">
        <ele>35.51</ele>
        <time>2021-07-20T09:42:53Z</time>
      </trkpt>
      <trkpt lat="48.69693" lon="2.53245">
        <ele>36.37</ele>
        <time>2021-07-20T09:43:02Z</time>
      </trkpt>
      <trkpt lat="48.69697" lon="2.53251">
        <ele>36.46</ele>
        <time>2021-07-20T09:43:08Z</time>
      </trkpt>
      <trkpt lat="48.69705" lon="2.53268">
        <ele>38.35</ele>
        <time>2021-07-20T09:43:20Z</time>
      </trkpt>
      <trkpt lat="48.6971" lon="2.53281">
        <ele>39.15</ele>
        <time>2021-07-20T09:43:31Z</time>
      </trkpt>
      <trkpt lat="48.69715" lon="2.5329">
        <ele>40.03</ele>
        <time>2021-07-20T09:43:40Z</time>
      </trkpt>
      <trkpt lat="48.69718" lon="2.53296">
        <ele>42.27</ele>
        <time>2021-07-20T09:43:47Z</time>
      </trkpt>
      <trkpt lat="48.69722" lon="2.53303">
        <ele>43.25</ele>
        <time>2021-07-20T09:43:56Z</time>
      </trkpt>
      <trkpt lat="48.69725" lon="2.53307">
        <ele>43.17</ele>
        <time>2021-07-20T09:44:03Z</time>
      </trkpt>
      <trkpt lat="48.6973" lon="2.53315">
        <ele>44.1</ele>
        <time>2021-07-20T09:44:13Z</time>
      </trkpt>
      <trkpt lat="48.69734" lon="2.53322">
        <ele>45.95</ele>
        <time>2021-07-20T09:44:22Z</time>
      </trkpt>
      <trkpt lat="48.69737" lon="2.53329">
        <ele>46.88</ele>
        <time>2021-07-20T09:44:32Z</time>
      </trkpt>
      <trkpt lat="48.6974" lon="2.53335">
        <ele>46.82</ele>
        <time>2021-07-20T09:44:40Z</time>
      </trkpt>
      <trkpt lat="48.69743" lon="2.53343">
        <ele>48.56</ele>
        <time>2021-07-20T09:44:50Z</time>
      </trkpt>
      <trkpt lat="48.69745" lon="2.53347">
        <ele>48.66</ele>
        <time>2021-07-20T09:45:02Z</time>
      </trkpt>
      <trkpt lat="48.6975" lon="2.53358">
        <ele>49.54</ele>
        <time>2021-07-20T09:45:15Z</time>
      </trkpt>
      <trkpt lat="48.69755" lon="2.53369">
        <ele>52.2</ele>
        <time>2021-07-20T09:45:29Z</time>
      </trkpt>
      <trkpt lat="48.6976" lon="2.53381">
        <ele>52.17</ele>
        <time>2021-07-20T09:45:39Z</time>
      </trkpt>
      <trkpt lat="48.69766" lon="2.53393">
        <ele>54.73</ele>
        <time>2021-07-20T09:45:51Z</time>
      </trkpt>
      <trkpt lat="48.6977" lon="2.53403">
        <ele>55.74</ele>
        <time>2021-07-20T09:46:04Z</time>
      </trkpt>
      <trkpt lat="48.69778" lon="2.53418">
        <ele>57.53</ele>
        <time>2021-07-20T09:46:17Z</time>
      </trkpt>
      <trkpt lat="48.69779" lon="2.53428">
        <ele>58.41</ele>
        <time>2021-07-20T09:46:25Z</time>
      </trkpt>
      <trkpt lat="48.6978" lon="2.53444">
        <ele>60.01</ele>
        <time>2021-07-20T09:46:38Z</time>
      </trkpt>
      <trkpt lat="48.69782" lon="2.53453">
        <ele>60.79</ele>
        <time>2021-07-20T09:46:49Z</time>
      </trkpt>
      <trkpt lat="48.69784" lon="2.53463">
        <ele>60.76</ele>
        <time>2021-07-20T09:46:58Z</time>
      </trkpt>
      <trkpt lat="48.69786" lon="2.53477">
        <ele>62.36</ele>
        <time>2021-07-20T09:47:11Z</time>
      </trkpt>
      <trkpt lat="48.69789" lon="2.53489">
        <ele>63.33</ele>
        <time>2021-07-20T09:47:23Z</time>
      </trkpt>
      <trkpt lat="48.69795" lon="2.53501">
        <ele>65.37</ele>
        <time>2021-07-20T09:47:37Z</time>
      </trkpt>
      <trkpt lat="48.698" lon="2.53509">
        <ele>66.86</ele>
        <time>2021-07-20T09:47:46Z</time>
      </trkpt>
      <trkpt lat="48.69807" lon="2.53518">
        <ele>66.8</ele>
        <time>2021-07-20T09:47:57Z</time>
      </trkpt>
      <trkpt lat="48.69808" lon="2.53521">
        <ele>68.06</ele>
        <time>2021-07-20T09:48:00Z</time>
      </trkpt>
      <trkpt lat="48.69812" lon="2.53535">
        <ele>68.92</ele>
        <time>2021-07-20T09:48:13Z</time>
      </trkpt>
      <trkpt lat="48.69816" lon="2.53546">
        <ele>70.6</ele>
        <time>2021-07-20T09:48:23Z</time>
      </trkpt>
      <trkpt lat="48.6982" lon="2.53558">
        <ele>71.54</ele>
        <time>2021-07-20T09:48:32Z</time>
      </trkpt>
      <trkpt lat="48.69824" lon="2.5357">
        <ele>72.48</ele>
        <time>2021-07-20T09:48:41Z</time>
      </trkpt>
      <trkpt lat="48.69828" lon="2.53581">
        <ele>72.51</ele>
        <time>2021-07-20T09:48:50Z</time>
      </trkpt>
      <trkpt lat="48.69831" lon="2.5359">
        <ele>73.48</ele>
        <time>2021-07-20T09:48:58Z</time>
      </trkpt>
      <trkpt lat="48.69835" lon="2.53597">
        <ele>74.49</ele>
        <time>2021-07-20T09:49:06Z</time>
      </trkpt>
      <trkpt lat="48.69837" lon="2.536">
        <ele>74.44</ele>
        <time>2021-07-20T09:49:14Z</time>
      </trkpt>
      <trkpt lat="48.69836" lon="2.53599">
        <ele>74.52</ele>
        <time>2021-07-20T09:49:30Z</time>
      </trkpt>
      <trkpt lat="48.69838" lon="2.536">
        <ele>74.6</ele>
        <time>2021-07-20T09:49:49Z</time>
      </trkpt>
      <trkpt lat="48.69839" lon="2.53603">
        <ele>74.6</ele>
        <time>2021-07-20T09:49:58Z</time>
      </trkpt>
      <trkpt lat="48.69839" lon="2.53603">
        <ele>74.72</ele>
        <time>2021-07-20T09:50:10Z</time>
      </trkpt>
      <trkpt lat="48.69837" lon="2.53602">
        <ele>74.8</ele>
        <time>2021-07-20T09:50:27Z</time>
      </trkpt>
      <trkpt lat="48.69839" lon="2.5361">
        <ele>74.82</ele>
        <time>2021-07-20T09:50:39Z</time>
      </trkpt>
      <trkpt lat="48.6984" lon="2.53613">
        <ele>74.87</ele>
        <time>2021-07-20T09:50:41Z</time>
      </trkpt>
      <trkpt lat="48.69843" lon="2.53623">
        <ele>74.9</ele>
        <time>2021-07-20T09:50:49Z</time>
      </trkpt>
      <trkpt lat="48.69848" lon="2.53638">
        <ele>74.96</ele>
        <time>2021-07-20T09:51:01Z</time>
      </trkpt>
      <trkpt lat="48.6985" lon="2.53641">
        <ele>74.97</ele>
        <time>2021-07-20T09:51:03Z</time>
      </trkpt>
      <trkpt lat="48.69855" lon="2.53657">
        <ele>74.98</ele>
        <time>2021-07-20T09:51:12Z</time>
      </trkpt>
      <trkpt lat="48.6986" lon="2.53671">
        <ele>75.79</ele>
        <time>2021-07-20T09:51:22Z</time>
      </trkpt>
      <trkpt lat="48.69867" lon="2.5369">
        <ele>75.78</ele>
        <time>2021-07-20T09:51:35Z</time>
      </trkpt>
      <trkpt lat="48.69876" lon="2.53703">
        <ele>76.59</ele>
        <time>2021-07-20T09:51:44Z</time>
      </trkpt>
      <trkpt lat="48.69885" lon="2.53718">
        <ele>76.57</ele>
        <time>2021-07-20T09:51:56Z</time>
      </trkpt>
      <trkpt lat="48.69893" lon="2.53731">
        <ele>76.52</ele>
        <time>2021-07-20T09:52:06Z</time>
      </trkpt>
      <trkpt lat="48.69897" lon="2.53744">
        <ele>76.51</ele>
        <time>2021-07-20T09:52:16Z</time>
      </trkpt>
      <trkpt lat="48.69904" lon="2.53755">
        <ele>76.47</ele>
        <time>2021-07-20T09:52:24Z</time>
      </trkpt>
      <trkpt lat="48.69907" lon="2.53764">
        <ele>76.57</ele>
        <time>2021-07-20T09:52:30Z</time>
      </trkpt>
      <trkpt lat="48.69909" lon="2.53768">
        <ele>76.54</ele>
        <time>2021-07-20T09:52:33Z</time>
      </trkpt>
      <trkpt lat="48.6991" lon="2.53771">
        <ele>76.54</ele>
        <time>2021-07-20T09:52:35Z</time>
      </trkpt>
      <trkpt lat="48.69919" lon="2.53783">
        <ele>76.5</ele>
        <time>2021-07-20T09:52:45Z</time>
      </trkpt>
      <trkpt lat="48.69924" lon="2.53793">
        <ele>76.47</ele>
        <time>2021-07-20T09:52:53Z</time>
      </trkpt>
      <trkpt lat="48.69931" lon="2.53805">
        <ele>77.46</ele>
        <time>2021-07-20T09:53:02Z</time>
      </trkpt>
      <trkpt lat="48.69938" lon="2.53815">
        <ele>77.46</ele>
        <time>2021-07-20T09:53:09Z</time>
      </trkpt>
      <trkpt lat="48.69945" lon="2.53824">
        <ele>77.52</ele>
        <time>2021-07-20T09:53:17Z</time>
      </trkpt>
      <trkpt lat="48.69951" lon="2.53835">
        <ele>77.54</ele>
        <time>2021-07-20T09:53:24Z</time>
      </trkpt>
      <trkpt lat="48.69957" lon="2.53846">
        <ele>77.52</ele>
        <time>2021-07-20T09:53:32Z</time>
      </trkpt>
      <trkpt lat="48.69962" lon="2.53854">
        <ele>77.56</ele>
        <time>2021-07-20T09:53:40Z</time>
      </trkpt>
      <trkpt lat="48.69971" lon="2.53865">
        <ele>77.6</ele>
        <time>2021-07-20T09:53:50Z</time>
      </trkpt>
      <trkpt lat="48.69973" lon="2.53867">
        <ele>77.53</ele>
        <time>2021-07-20T09:53:52Z</time>
      </trkpt>
      <trkpt lat="48.69979" lon="2.53881">
        <ele>78.56</ele>
        <time>2021-07-20T09:54:02Z</time>
      </trkpt>
      <trkpt lat="48.69984" lon="2.5389">
        <ele>78.55</ele>
        <time>2021-07-20T09:54:10Z</time>
      </trkpt>
      <trkpt lat="48.69991" lon="2.53906">
        <ele>78.58</ele>
        <time>2021-07-20T09:54:23Z</time>
      </trkpt>
      <trkpt lat="48.69998" lon="2.53921">
        <ele>78.6</ele>
        <time>2021-07-20T09:54:33Z</time>
      </trkpt>
      <trkpt lat="48.70005" lon="2.53935">
        <ele>78.71</ele>
        <time>2021-07-20T09:54:45Z</time>
      </trkpt>
      <trkpt lat="48.70012" lon="2.53948">
        <ele>78.71</ele>
        <time>2021-07-20T09:54:58Z</time>
      </trkpt>
      <trkpt lat="48.70029" lon="2.53958">
        <ele>78.76</ele>
        <time>2021-07-20T09:55:09Z</time>
      </trkpt>
      <trkpt lat="48.70039" lon="2.53969">
        <ele>78.76</ele>
        <time>2021-07-20T09:55:19Z</time>
      </trkpt>
      <trkpt lat="48.70049" lon="2.53982">
        <ele>78.72</ele>
        <time>2021-07-20T09:55:30Z</time>
      </trkpt>
      <trkpt lat="48.70056" lon="2.53991">
        <ele>79.58</ele>
        <time>2021-07-20T09:55:39Z</time>
      </trkpt>
      <trkpt lat="48.70056" lon="2.53993">
        <ele>79.58</ele>
        <time>2021-07-20T09:55:40Z</time>
      </trkpt>
      <trkpt lat="48.7006" lon="2.54003">
        <ele>79.59</ele>
        <time>2021-07-20T09:55:49Z</time>
      </trkpt>
      <trkpt lat="48.70067" lon="2.54012">
        <ele>79.65</ele>
        <time>2021-07-20T09:56:01Z</time>
      </trkpt>
      <trkpt lat="48.70069" lon="2.54022">
        <ele>79.67</ele>
        <time>2021-07-20T09:56:11Z</time>
      </trkpt>
      <trkpt lat="48.70066" lon="2.54031">
        <ele>80.47</ele>
        <time>2021-07-20T09:56:18Z</time>
      </trkpt>
      <trkpt lat="48.70065" lon="2.54048">
        <ele>80.48</ele>
        <time>2021-07-20T09:56:32Z</time>
      </trkpt>
      <trkpt lat="48.70066" lon="2.54063">
        <ele>80.48</ele>
        <time>2021-07-20T09:56:44Z</time>
      </trkpt>
      <trkpt lat="48.70072" lon="2.54078">
        <ele>80.5</ele>
        <time>2021-07-20T09:56:56Z</time>
      </trkpt>
      <trkpt lat="48.70075" lon="2.54098">
        <ele>80.48</ele>
        <time>2021-07-20T09:57:07Z</time>
      </trkpt>
      <trkpt lat="48.70077" lon="2.54107">
        <ele>80.46</ele>
        <time>2021-07-20T09:57:11Z</time>
      </trkpt>
      <trkpt lat="48.70088" lon="2.54124">
        <ele>80.48</ele>
        <time>2021-07-20T09:57:25Z</time>
      </trkpt>
      <trkpt lat="48.70091" lon="2.54137">
        <ele>80.47</ele>
        <time>2021-07-20T09:57:31Z</time>
      </trkpt>
      <trkpt lat="48.70099" lon="2.54146">
        <ele>80.45</ele>
        <time>2021-07-20T09:57:40Z</time>
      </trkpt>
      <trkpt lat="48.70101" lon="2.5416">
        <ele>80.41</ele>
        <time>2021-07-20T09:57:48Z</time>
      </trkpt>
      <trkpt lat="48.70107" lon="2.5417">
        <ele>80.38</ele>
        <time>2021-07-20T09:57:57Z</time>
      </trkpt>
      <trkpt lat="48.70111" lon="2.54174">
        <ele>80.39</ele>
        <time>2021-07-20T09:58:07Z</time>
      </trkpt>
      <trkpt lat="48.70113" lon="2.54178">
        <ele>80.37</ele>
        <time>2021-07-20T09:58:19Z</time>
      </trkpt>
      <trkpt lat="48.7012" lon="2.54188">
        <ele>80.32</ele>
        <time>2021-07-20T09:58:30Z</time>
      </trkpt>
      <trkpt lat="48.70131" lon="2.542">
        <ele>80.38</ele>
        <time>2021-07-20T09:58:41Z</time>
      </trkpt>
      <trkpt lat="48.70138" lon="2.54214">
        <ele>80.39</ele>
        <time>2021-07-20T09:58:53Z</time>
      </trkpt>
      <trkpt lat="48.70146" lon="2.54229">
        <ele>80.32</ele>
        <time>2021-07-20T09:59:04Z</time>
      </trkpt>
      <trkpt lat="48.7015" lon="2.54244">
        <ele>81.14</ele>
        <time>2021-07-20T09:59:14Z</time>
      </trkpt>
      <trkpt lat="48.70151" lon="2.54247">
        <ele>81.13</ele>
        <time>2021-07-20T09:59:16Z</time>
      </trkpt>
      <trkpt lat="48.70151" lon="2.54255">
        <ele>81.14</ele>
        <time>2021-07-20T09:59:23Z</time>
      </trkpt>
      <trkpt lat="48.70157" lon="2.54262">
        <ele>81.12</ele>
        <time>2021-07-20T09:59:34Z</time>
      </trkpt>
      <trkpt lat="48.70161" lon="2.54265">
        <ele>81.09</ele>
        <time>2021-07-20T09:59:38Z</time>
      </trkpt>
      <trkpt lat="48.70172" lon="2.54271">
        <ele>81.11</ele>
        <time>2021-07-20T09:59:49Z</time>
      </trkpt>
      <trkpt lat="48.70179" lon="2.54288">
        <ele>81.11</ele>
        <time>2021-07-20T09:59:59Z</time>
      </trkpt>
      <trkpt lat="48.70186" lon="2.54301">
        <ele>81.07</ele>
        <time>2021-07-20T10:00:08Z</time>
      </trkpt>
      <trkpt lat="48.70193" lon="2.5432">
        <ele>81.03</ele>
        <time>2021-07-20T10:00:19Z</time>
      </trkpt>
      <trkpt lat="48.702" lon="2.54328">
        <ele>81.05</ele>
        <time>2021-07-20T10:00:27Z</time>
      </trkpt>
      <trkpt lat="48.70209" lon="2.54331">
        <ele>81.1</ele>
        <time>2021-07-20T10:00:35Z</time>
      </trkpt>
      <trkpt lat="48.70214" lon="2.54334">
        <ele>81.11</ele>
        <time>2021-07-20T10:00:40Z</time>
      </trkpt>
      <trkpt lat="48.70217" lon="2.54338">
        <ele>81.1</ele>
        <time>2021-07-20T10:00:48Z</time>
      </trkpt>
      <trkpt lat="48.70218" lon="2.54346">
        <ele>81.12</ele>
        <time>2021-07-20T10:01:04Z</time>
      </trkpt>
      <trkpt lat="48.70222" lon="2.54337">
        <ele>81.11</ele>
        <time>2021-07-20T10:01:12Z</time>
      </trkpt>
      <trkpt lat="48.70223" lon="2.54334">
        <ele>81.17</ele>
        <time>2021-07-20T10:01:22Z</time>
      </trkpt>
      <trkpt lat="48.70223" lon="2.54335">
        <ele>81.19</ele>
        <time>2021-07-20T10:01:32Z</time>
      </trkpt>
      <trkpt lat="48.70221" lon="2.54341">
        <ele>81.22</ele>
        <time>2021-07-20T10:01:41Z</time>
      </trkpt>
      <trkpt lat="48.70223" lon="2.5435">
        <ele>81.19</ele>
        <time>2021-07-20T10:01:49Z</time>
      </trkpt>
      <trkpt lat="48.70228" lon="2.54357">
        <ele>81.25</ele>
        <time>2021-07-20T10:01:59Z</time>
      </trkpt>
      <trkpt lat="48.70234" lon="2.54364">
        <ele>82.07</ele>
        <time>2021-07-20T10:02:09Z</time>
      </trkpt>
      <trkpt lat="48.70238" lon="2.5437">
        <ele>81.96</ele>
        <time>2021-07-20T10:02:19Z</time>
      </trkpt>
      <trkpt lat="48.70244" lon="2.54378">
        <ele>82.84</ele>
        <time>2021-07-20T10:02:31Z</time>
      </trkpt>
      <trkpt lat="48.70251" lon="2.54392">
        <ele>82.71</ele>
        <time>2021-07-20T10:02:42Z</time>
      </trkpt>
      <trkpt lat="48.70266" lon="2.54407">
        <ele>82.66</ele>
        <time>2021-07-20T10:02:56Z</time>
      </trkpt>
      <trkpt lat="48.70268" lon="2.5441">
        <ele>82.62</ele>
        <time>2021-07-20T10:02:58Z</time>
      </trkpt>
      <trkpt lat="48.7027" lon="2.54423">
        <ele>82.56</ele>
        <time>2021-07-20T10:03:07Z</time>
      </trkpt>
      <trkpt lat="48.70272" lon="2.54438">
        <ele>82.5</ele>
        <time>2021-07-20T10:03:16Z</time>
      </trkpt>
      <trkpt lat="48.70272" lon="2.5445">
        <ele>82.49</ele>
        <time>2021-07-20T10:03:25Z</time>
      </trkpt>
      <trkpt lat="48.70276" lon="2.54459">
        <ele>82.5</ele>
        <time>2021-07-20T10:03:35Z</time>
      </trkpt>
      <trkpt lat="48.70282" lon="2.54472">
        <ele>82.41</ele>
        <time>2021-07-20T10:03:46Z</time>
      </trkpt>
      <trkpt lat="48.70286" lon="2.54483">
        <ele>82.41</ele>
        <time>2021-07-20T10:03:56Z</time>
      </trkpt>
      <trkpt lat="48.70287" lon="2.54484">
        <ele>82.41</ele>
        <time>2021-07-20T10:03:57Z</time>
      </trkpt>
      <trkpt lat="48.70299" lon="2.54483">
        <ele>82.39</ele>
        <time>2021-07-20T10:04:08Z</time>
      </trkpt>
      <trkpt lat="48.70307" lon="2.54487">
        <ele>82.35</ele>
        <time>2021-07-20T10:04:17Z</time>
      </trkpt>
      <trkpt lat="48.70316" lon="2.54491">
        <ele>82.3</ele>
        <time>2021-07-20T10:04:27Z</time>
      </trkpt>
      <trkpt lat="48.70329" lon="2.54499">
        <ele>82.28</ele>
        <time>2021-07-20T10:04:38Z</time>
      </trkpt>
      <trkpt lat="48.70341" lon="2.54504">
        <ele>82.31</ele>
        <time>2021-07-20T10:04:49Z</time>
      </trkpt>
      <trkpt lat="48.70349" lon="2.54511">
        <ele>82.33</ele>
        <time>2021-07-20T10:04:57Z</time>
      </trkpt>
      <trkpt lat="48.70361" lon="2.54516">
        <ele>82.34</ele>
        <time>2021-07-20T10:05:07Z</time>
      </trkpt>
      <trkpt lat="48.70371" lon="2.54525">
        <ele>83.16</ele>
        <time>2021-07-20T10:05:17Z</time>
      </trkpt>
      <trkpt lat="48.70377" lon="2.54532">
        <ele>83.2</ele>
        <time>2021-07-20T10:05:26Z</time>
      </trkpt>
      <trkpt lat="48.70385" lon="2.54536">
        <ele>83.25</ele>
        <time>2021-07-20T10:05:36Z</time>
      </trkpt>
      <trkpt lat="48.70394" lon="2.54544">
        <ele>83.29</ele>
        <time>2021-07-20T10:05:47Z</time>
      </trkpt>
      <trkpt lat="48.70404" lon="2.5455">
        <ele>83.38</ele>
        <time>2021-07-20T10:05:58Z</time>
      </trkpt>
      <trkpt lat="48.70416" lon="2.54555">
        <ele>83.4</ele>
        <time>2021-07-20T10:06:09Z</time>
      </trkpt>
      <trkpt lat="48.70426" lon="2.5456">
        <ele>83.4</ele>
        <time>2021-07-20T10:06:18Z</time>
      </trkpt>
      <trkpt lat="48.70434" lon="2.54564">
        <ele>83.4</ele>
        <time>2021-07-20T10:06:26Z</time>
      </trkpt>
      <trkpt lat="48.70442" lon="2.54569">
        <ele>83.38</ele>
        <time>2021-07-20T10:06:34Z</time>
      </trkpt>
      <trkpt lat="48.70452" lon="2.54572">
        <ele>83.46</ele>
        <time>2021-07-20T10:06:43Z</time>
      </trkpt>
      <trkpt lat="48.70459" lon="2.54572">
        <ele>83.48</ele>
        <time>2021-07-20T10:06:50Z</time>
      </trkpt>
      <trkpt lat="48.70467" lon="2.54574">
        <ele>83.52</ele>
        <time>2021-07-20T10:06:57Z</time>
      </trkpt>
      <trkpt lat="48.70474" lon="2.54576">
        <ele>83.56</ele>
        <time>2021-07-20T10:07:04Z</time>
      </trkpt>
      <trkpt lat="48.70482" lon="2.54575">
        <ele>83.61</ele>
        <time>2021-07-20T10:07:12Z</time>
      </trkpt>
      <trkpt lat="48.70493" lon="2.54571">
        <ele>84.63</ele>
        <time>2021-07-20T10:07:25Z</time>
      </trkpt>
      <trkpt lat="48.70503" lon="2.54567">
        <ele>84.63</ele>
        <time>2021-07-20T10:07:37Z</time>
      </trkpt>
      <trkpt lat="48.70506" lon="2.54564">
        <ele>84.62</ele>
        <time>2021-07-20T10:07:40Z</time>
      </trkpt>
      <trkpt lat="48.70517" lon="2.54556">
        <ele>84.6</ele>
        <time>2021-07-20T10:07:49Z</time>
      </trkpt>
      <trkpt lat="48.70526" lon="2.54555">
        <ele>84.56</ele>
        <time>2021-07-20T10:07:58Z</time>
      </trkpt>
      <trkpt lat="48.70532" lon="2.54558">
        <ele>84.57</ele>
        <time>2021-07-20T10:08:04Z</time>
      </trkpt>
      <trkpt lat="48.70543" lon="2.5457">
        <ele>84.58</ele>
        <time>2021-07-20T10:08:15Z</time>
      </trkpt>
      <trkpt lat="48.70547" lon="2.54572">
        <ele>84.59</ele>
        <time>2021-07-20T10:08:19Z</time>
      </trkpt>
      <trkpt lat="48.70552" lon="2.54589">
        <ele>84.62</ele>
        <time>2021-07-20T10:08:31Z</time>
      </trkpt>
      <trkpt lat="48.70558" lon="2.54595">
        <ele>84.65</ele>
        <time>2021-07-20T10:08:39Z</time>
      </trkpt>
      <trkpt lat="48.70565" lon="2.54599">
        <ele>84.7</ele>
        <time>2021-07-20T10:08:49Z</time>
      </trkpt>
      <trkpt lat="48.70567" lon="2.546">
        <ele>84.69</ele>
        <time>2021-07-20T10:08:51Z</time>
      </trkpt>
      <trkpt lat="48.70575" lon="2.546">
        <ele>84.71</ele>
        <time>2021-07-20T10:08:59Z</time>
      </trkpt>
      <trkpt lat="48.70583" lon="2.54603">
        <ele>84.76</ele>
        <time>2021-07-20T10:09:08Z</time>
      </trkpt>
      <trkpt lat="48.70593" lon="2.54605">
        <ele>84.8</ele>
        <time>2021-07-20T10:09:18Z</time>
      </trkpt>
      <trkpt lat="48.70603" lon="2.54607">
        <ele>84.81</ele>
        <time>2021-07-20T10:09:26Z</time>
      </trkpt>
      <trkpt lat="48.7061" lon="2.54609">
        <ele>84.84</ele>
        <time>2021-07-20T10:09:32Z</time>
      </trkpt>
      <trkpt lat="48.70617" lon="2.54611">
        <ele>84.86</ele>
        <time>2021-07-20T10:09:41Z</time>
      </trkpt>
      <trkpt lat="48.70623" lon="2.54611">
        <ele>84.9</ele>
        <time>2021-07-20T10:09:52Z</time>
      </trkpt>
      <trkpt lat="48.70631" lon="2.54613">
        <ele>84.91</ele>
        <time>2021-07-20T10:10:01Z</time>
      </trkpt>
      <trkpt lat="48.70642" lon="2.54618">
        <ele>84.94</ele>
        <time>2021-07-20T10:10:14Z</time>
      </trkpt>
      <trkpt lat="48.7065" lon="2.54622">
        <ele>84.96</ele>
        <time>2021-07-20T10:10:25Z</time>
      </trkpt>
      <trkpt lat="48.70658" lon="2.54624">
        <ele>84.97</ele>
        <time>2021-07-20T10:10:32Z</time>
      </trkpt>
      <trkpt lat="48.70668" lon="2.54624">
        <ele>84.99</ele>
        <time>2021-07-20T10:10:40Z</time>
      </trkpt>
      <trkpt lat="48.70677" lon="2.54626">
        <ele>84.98</ele>
        <time>2021-07-20T10:10:48Z</time>
      </trkpt>
      <trkpt lat="48.70685" lon="2.54625">
        <ele>84.98</ele>
        <time>2021-07-20T10:10:58Z</time>
      </trkpt>
      <trkpt lat="48.70691" lon="2.54617">
        <ele>84.99</ele>
        <time>2021-07-20T10:11:08Z</time>
      </trkpt>
      <trkpt lat="48.70694" lon="2.54611">
        <ele>84.99</ele>
        <time>2021-07-20T10:11:13Z</time>
      </trkpt>
      <trkpt lat="48.70698" lon="2.54604">
        <ele>84.94</ele>
        <time>2021-07-20T10:11:19Z</time>
      </trkpt>
      <trkpt lat="48.707" lon="2.54599">
        <ele>84.98</ele>
        <time>2021-07-20T10:11:23Z</time>
      </trkpt>
      <trkpt lat="48.70706" lon="2.54585">
        <ele>84.98</ele>
        <time>2021-07-20T10:11:33Z</time>
      </trkpt>
      <trkpt lat="48.70711" lon="2.54581">
        <ele>84.99</ele>
        <time>2021-07-20T10:11:42Z</time>
      </trkpt>
      <trkpt lat="48.7072" lon="2.54568">
        <ele>85.02</ele>
        <time>2021-07-20T10:11:52Z</time>
      </trkpt>
      <trkpt lat="48.70725" lon="2.54559">
        <ele>84.99</ele>
        <time>2021-07-20T10:11:59Z</time>
      </trkpt>
      <trkpt lat="48.7073" lon="2.54553">
        <ele>85.02</ele>
        <time>2021-07-20T10:12:07Z</time>
      </trkpt>
      <trkpt lat="48.70736" lon="2.54539">
        <ele>85.04</ele>
        <time>2021-07-20T10:12:17Z</time>
      </trkpt>
      <trkpt lat="48.70744" lon="2.54522">
        <ele>85.05</ele>
        <time>2021-07-20T10:12:29Z</time>
      </trkpt>
      <trkpt lat="48.70751" lon="2.54511">
        <ele>85.06</ele>
        <time>2021-07-20T10:12:39Z</time>
      </trkpt>
      <trkpt lat="48.70754" lon="2.54503">
        <ele>85.07</ele>
        <time>2021-07-20T10:12:44Z</time>
      </trkpt>
      <trkpt lat="48.70758" lon="2.54496">
        <ele>85.07</ele>
        <time>2021-07-20T10:12:50Z</time>
      </trkpt>
      <trkpt lat="48.70766" lon="2.54485">
        <ele>85.07</ele>
        <time>2021-07-20T10:13:00Z</time>
      </trkpt>
      <trkpt lat="48.70769" lon="2.54484">
        <ele>85.07</ele>
        <time>2021-07-20T10:13:03Z</time>
      </trkpt>
      <trkpt lat="48.70778" lon="2.54483">
        <ele>85.08</ele>
        <time>2021-07-20T10:13:11Z</time>
      </trkpt>
      <trkpt lat="48.70784" lon="2.5449">
        <ele>85.08</ele>
        <time>2021-07-20T10:13:18Z</time>
      </trkpt>
      <trkpt lat="48.70793" lon="2.54506">
        <ele>85.09</ele>
        <time>2021-07-20T10:13:29Z</time>
      </trkpt>
      <trkpt lat="48.70802" lon="2.54521">
        <ele>85.12</ele>
        <time>2021-07-20T10:13:39Z</time>
      </trkpt>
      <trkpt lat="48.70808" lon="2.54534">
        <ele>85.16</ele>
        <time>2021-07-20T10:13:49Z</time>
      </trkpt>
      <trkpt lat="48.70815" lon="2.54545">
        <ele>85.2</ele>
        <time>2021-07-20T10:13:58Z</time>
      </trkpt>
      <trkpt lat="48.70825" lon="2.5456">
        <ele>85.2</ele>
        <time>2021-07-20T10:14:10Z</time>
      </trkpt>
      <trkpt lat="48.7083" lon="2.5457">
        <ele>85.24</ele>
        <time>2021-07-20T10:14:18Z</time>
      </trkpt>
      <trkpt lat="48.70836" lon="2.54581">
        <ele>85.26</ele>
        <time>2021-07-20T10:14:26Z</time>
      </trkpt>
      <trkpt lat="48.70843" lon="2.54592">
        <ele>85.26</ele>
        <time>2021-07-20T10:14:34Z</time>
      </trkpt>
      <trkpt lat="48.70848" lon="2.546">
        <ele>85.28</ele>
        <time>2021-07-20T10:14:42Z</time>
      </trkpt>
      <trkpt lat="48.70855" lon="2.54607">
        <ele>85.29</ele>
        <time>2021-07-20T10:14:49Z</time>
      </trkpt>
      <trkpt lat="48.70861" lon="2.54611">
        <ele>85.34</ele>
        <time>2021-07-20T10:14:56Z</time>
      </trkpt>
      <trkpt lat="48.70871" lon="2.5462">
        <ele>85.33</ele>
        <time>2021-07-20T10:15:06Z</time>
      </trkpt>
      <trkpt lat="48.70876" lon="2.54624">
        <ele>85.35</ele>
        <time>2021-07-20T10:15:12Z</time>
      </trkpt>
      <trkpt lat="48.70883" lon="2.5463">
        <ele>85.37</ele>
        <time>2021-07-20T10:15:20Z</time>
      </trkpt>
      <trkpt lat="48.70894" lon="2.54638">
        <ele>85.38</ele>
        <time>2021-07-20T10:15:33Z</time>
      </trkpt>
      <trkpt lat="48.70905" lon="2.54646">
        <ele>85.4</ele>
        <time>2021-07-20T10:15:45Z</time>
      </trkpt>
      <trkpt lat="48.70914" lon="2.54653">
        <ele>85.39</ele>
        <time>2021-07-20T10:15:54Z</time>
      </trkpt>
      <trkpt lat="48.70921" lon="2.54658">
        <ele>85.39</ele>
        <time>2021-07-20T10:16:01Z</time>
      </trkpt>
      <trkpt lat="48.7093" lon="2.54666">
        <ele>85.39</ele>
        <time>2021-07-20T10:16:12Z</time>
      </trkpt>
      <trkpt lat="48.70939" lon="2.54672">
        <ele>85.38</ele>
        <time>2021-07-20T10:16:22Z</time>
      </trkpt>
      <trkpt lat="48.70944" lon="2.54674">
        <ele>85.37</ele>
        <time>2021-07-20T10:16:34Z</time>
      </trkpt>
      <trkpt lat="48.70952" lon="2.5468">
        <ele>85.36</ele>
        <time>2021-07-20T10:16:43Z</time>
      </trkpt>
      <trkpt lat="48.70961" lon="2.54685">
        <ele>85.36</ele>
        <time>2021-07-20T10:16:52Z</time>
      </trkpt>
      <trkpt lat="48.70971" lon="2.54694">
        <ele>85.36</ele>
        <time>2021-07-20T10:17:04Z</time>
      </trkpt>
      <trkpt lat="48.70984" lon="2.54703">
        <ele>85.34</ele>
        <time>2021-07-20T10:17:14Z</time>
      </trkpt>
      <trkpt lat="48.70991" lon="2.54708">
        <ele>85.33</ele>
        <time>2021-07-20T10:17:21Z</time>
      </trkpt>
      <trkpt lat="48.70999" lon="2.54713">
        <ele>85.33</ele>
        <time>2021-07-20T10:17:28Z</time>
      </trkpt>
      <trkpt lat="48.71007" lon="2.5472">
        <ele>85.33</ele>
        <time>2021-07-20T10:17:35Z</time>
      </trkpt>
      <trkpt lat="48.71016" lon="2.54729">
        <ele>85.32</ele>
        <time>2021-07-20T10:17:44Z</time>
      </trkpt>
      <trkpt lat="48.71025" lon="2.54735">
        <ele>85.31</ele>
        <time>2021-07-20T10:17:52Z</time>
      </trkpt>
      <trkpt lat="48.71035" lon="2.54744">
        <ele>85.29</ele>
        <time>2021-07-20T10:18:02Z</time>
      </trkpt>
      <trkpt lat="48.71046" lon="2.54751">
        <ele>85.28</ele>
        <time>2021-07-20T10:18:10Z</time>
      </trkpt>
      <trkpt lat="48.71056" lon="2.54758">
        <ele>85.27</ele>
        <time>2021-07-20T10:18:19Z</time>
      </trkpt>
      <trkpt lat="48.71066" lon="2.54765">
        <ele>85.23</ele>
        <time>2021-07-20T10:18:28Z</time>
      </trkpt>
      <trkpt lat="48.71074" lon="2.54771">
        <ele>85.3</ele>
        <time>2021-07-20T10:18:36Z</time>
      </trkpt>
      <trkpt lat="48.71083" lon="2.54778">
        <ele>85.28</ele>
        <time>2021-07-20T10:18:44Z</time>
      </trkpt>
      <trkpt lat="48.71092" lon="2.54786">
        <ele>85.28</ele>
        <time>2021-07-20T10:18:53Z</time>
      </trkpt>
      <trkpt lat="48.71104" lon="2.54793">
        <ele>85.28</ele>
        <time>2021-07-20T10:19:03Z</time>
      </trkpt>
      <trkpt lat="48.71112" lon="2.54802">
        <ele>85.29</ele>
        <time>2021-07-20T10:19:12Z</time>
      </trkpt>
      <trkpt lat="48.7112" lon="2.54806">
        <ele>85.3</ele>
        <time>2021-07-20T10:19:21Z</time>
      </trkpt>
      <trkpt lat="48.71129" lon="2.54813">
        <ele>85.31</ele>
        <time>2021-07-20T10:19:29Z</time>
      </trkpt>
      <trkpt lat="48.71138" lon="2.54821">
        <ele>85.32</ele>
        <time>2021-07-20T10:19:38Z</time>
      </trkpt>
      <trkpt lat="48.71146" lon="2.54825">
        <ele>85.34</ele>
        <time>2021-07-20T10:19:46Z</time>
      </trkpt>
      <trkpt lat="48.71156" lon="2.54832">
        <ele>85.36</ele>
        <time>2021-07-20T10:19:56Z</time>
      </trkpt>
      <trkpt lat="48.71164" lon="2.54839">
        <ele>85.37</ele>
        <time>2021-07-20T10:20:04Z</time>
      </trkpt>
      <trkpt lat="48.71174" lon="2.54848">
        <ele>85.38</ele>
        <time>2021-07-20T10:20:14Z</time>
      </trkpt>
      <trkpt lat="48.71179" lon="2.5485">
        <ele>85.38</ele>
        <time>2021-07-20T10:20:22Z</time>
      </trkpt>
      <trkpt lat="48.71181" lon="2.54852">
        <ele>85.39</ele>
        <time>2021-07-20T10:20:32Z</time>
      </trkpt>
      <trkpt lat="48.71188" lon="2.54859">
        <ele>85.39</ele>
        <time>2021-07-20T10:20:41Z</time>
      </trkpt>
      <trkpt lat="48.71197" lon="2.54865">
        <ele>85.4</ele>
        <time>2021-07-20T10:20:50Z</time>
      </trkpt>
      <trkpt lat="48.71206" lon="2.54867">
        <ele>85.4</ele>
        <time>2021-07-20T10:20:59Z</time>
      </trkpt>
      <trkpt lat="48.71215" lon="2.54871">
        <ele>85.41</ele>
        <time>2021-07-20T10:21:07Z</time>
      </trkpt>
      <trkpt lat="48.71224" lon="2.54876">
        <ele>85.42</ele>
        <time>2021-07-20T10:21:16Z</time>
      </trkpt>
      <trkpt lat="48.71226" lon="2.54878">
        <ele>82.71</ele>
        <time>2021-07-20T10:21:18Z</time>
      </trkpt>
      <trkpt lat="48.71235" lon="2.54884">
        <ele>82.81</ele>
        <time>2021-07-20T10:21:28Z</time>
      </trkpt>
      <trkpt lat="48.71245" lon="2.5489">
        <ele>82.84</ele>
        <time>2021-07-20T10:21:38Z</time>
      </trkpt>
      <trkpt lat="48.71253" lon="2.54895">
        <ele>82.84</ele>
        <time>2021-07-20T10:21:47Z</time>
      </trkpt>
      <trkpt lat="48.71262" lon="2.54902">
        <ele>82.85</ele>
        <time>2021-07-20T10:21:56Z</time>
      </trkpt>
      <trkpt lat="48.71269" lon="2.5491">
        <ele>82.84</ele>
        <time>2021-07-20T10:22:04Z</time>
      </trkpt>
      <trkpt lat="48.71276" lon="2.54919">
        <ele>82.01</ele>
        <time>2021-07-20T10:22:17Z</time>
      </trkpt>
      <trkpt lat="48.7128" lon="2.54924">
        <ele>81.96</ele>
        <time>2021-07-20T10:22:28Z</time>
      </trkpt>
      <trkpt lat="48.71281" lon="2.54926">
        <ele>81.14</ele>
        <time>2021-07-20T10:22:39Z</time>
      </trkpt>
      <trkpt lat="48.71282" lon="2.54926">
        <ele>81.11</ele>
        <time>2021-07-20T10:22:41Z</time>
      </trkpt>
      <trkpt lat="48.71287" lon="2.54922">
        <ele>81.1</ele>
        <time>2021-07-20T10:22:54Z</time>
      </trkpt>
      <trkpt lat="48.71292" lon="2.54917">
        <ele>81.07</ele>
        <time>2021-07-20T10:23:00Z</time>
      </trkpt>
      <trkpt lat="48.713" lon="2.54909">
        <ele>80.95</ele>
        <time>2021-07-20T10:23:11Z</time>
      </trkpt>
      <trkpt lat="48.71311" lon="2.549">
        <ele>80.94</ele>
        <time>2021-07-20T10:23:24Z</time>
      </trkpt>
      <trkpt lat="48.71322" lon="2.54891">
        <ele>80.98</ele>
        <time>2021-07-20T10:23:36Z</time>
      </trkpt>
      <trkpt lat="48.71332" lon="2.54881">
        <ele>80.94</ele>
        <time>2021-07-20T10:23:49Z</time>
      </trkpt>
      <trkpt lat="48.71339" lon="2.54877">
        <ele>80</ele>
        <time>2021-07-20T10:23:58Z</time>
      </trkpt>
      <trkpt lat="48.71351" lon="2.54871">
        <ele>78.86</ele>
        <time>2021-07-20T10:24:09Z</time>
      </trkpt>
      <trkpt lat="48.71361" lon="2.54864">
        <ele>78.86</ele>
        <time>2021-07-20T10:24:19Z</time>
      </trkpt>
      <trkpt lat="48.71375" lon="2.54858">
        <ele>78.77</ele>
        <time>2021-07-20T10:24:31Z</time>
      </trkpt>
      <trkpt lat="48.71388" lon="2.5485">
        <ele>78.64</ele>
        <time>2021-07-20T10:24:42Z</time>
      </trkpt>
      <trkpt lat="48.71399" lon="2.54844">
        <ele>77.79</ele>
        <time>2021-07-20T10:24:53Z</time>
      </trkpt>
      <trkpt lat="48.71413" lon="2.54835">
        <ele>77.74</ele>
        <time>2021-07-20T10:25:07Z</time>
      </trkpt>
      <trkpt lat="48.71425" lon="2.54832">
        <ele>76.87</ele>
        <time>2021-07-20T10:25:18Z</time>
      </trkpt>
      <trkpt lat="48.7144" lon="2.54827">
        <ele>75.83</ele>
        <time>2021-07-20T10:25:31Z</time>
      </trkpt>
      <trkpt lat="48.71451" lon="2.54826">
        <ele>75.78</ele>
        <time>2021-07-20T10:25:40Z</time>
      </trkpt>
      <trkpt lat="48.71464" lon="2.54822">
        <ele>75.68</ele>
        <time>2021-07-20T10:25:52Z</time>
      </trkpt>
      <trkpt lat="48.71477" lon="2.54817">
        <ele>74.83</ele>
        <time>2021-07-20T10:26:02Z</time>
      </trkpt>
      <trkpt lat="48.71491" lon="2.54814">
        <ele>74.74</ele>
        <time>2021-07-20T10:26:16Z</time>
      </trkpt>
      <trkpt lat="48.71505" lon="2.54812">
        <ele>74.65</ele>
        <time>2021-07-20T10:26:29Z</time>
      </trkpt>
      <trkpt lat="48.7151" lon="2.54812">
        <ele>74.68</ele>
        <time>2021-07-20T10:26:32Z</time>
      </trkpt>
      <trkpt lat="48.71525" lon="2.54808">
        <ele>73.68</ele>
        <time>2021-07-20T10:26:44Z</time>
      </trkpt>
      <trkpt lat="48.71538" lon="2.54806">
        <ele>72.8</ele>
        <time>2021-07-20T10:26:56Z</time>
      </trkpt>
      <trkpt lat="48.7155" lon="2.54806">
        <ele>72.65</ele>
        <time>2021-07-20T10:27:08Z</time>
      </trkpt>
      <trkpt lat="48.71564" lon="2.54806">
        <ele>71.91</ele>
        <time>2021-07-20T10:27:22Z</time>
      </trkpt>
      <trkpt lat="48.71576" lon="2.54804">
        <ele>70.78</ele>
        <time>2021-07-20T10:27:36Z</time>
      </trkpt>
      <trkpt lat="48.71586" lon="2.54801">
        <ele>70.8</ele>
        <time>2021-07-20T10:27:45Z</time>
      </trkpt>
      <trkpt lat="48.71598" lon="2.54801">
        <ele>70.77</ele>
        <time>2021-07-20T10:27:55Z</time>
      </trkpt>
      <trkpt lat="48.716" lon="2.54801">
        <ele>70.74</ele>
        <time>2021-07-20T10:27:57Z</time>
      </trkpt>
      <trkpt lat="48.71619" lon="2.54798">
        <ele>69.97</ele>
        <time>2021-07-20T10:28:11Z</time>
      </trkpt>
      <trkpt lat="48.71631" lon="2.54797">
        <ele>69.14</ele>
        <time>2021-07-20T10:28:23Z</time>
      </trkpt>
      <trkpt lat="48.71647" lon="2.54796">
        <ele>69.15</ele>
        <time>2021-07-20T10:28:35Z</time>
      </trkpt>
      <trkpt lat="48.71661" lon="2.54794">
        <ele>69.14</ele>
        <time>2021-07-20T10:28:47Z</time>
      </trkpt>
      <trkpt lat="48.71673" lon="2.5479">
        <ele>69.19</ele>
        <time>2021-07-20T10:29:00Z</time>
      </trkpt>
      <trkpt lat="48.71686" lon="2.54788">
        <ele>68.15</ele>
        <time>2021-07-20T10:29:11Z</time>
      </trkpt>
      <trkpt lat="48.71704" lon="2.54788">
        <ele>67.35</ele>
        <time>2021-07-20T10:29:24Z</time>
      </trkpt>
      <trkpt lat="48.71717" lon="2.54788">
        <ele>67.33</ele>
        <time>2021-07-20T10:29:35Z</time>
      </trkpt>
      <trkpt lat="48.71727" lon="2.54787">
        <ele>66.41</ele>
        <time>2021-07-20T10:29:44Z</time>
      </trkpt>
      <trkpt lat="48.71737" lon="2.54786">
        <ele>66.39</ele>
        <time>2021-07-20T10:29:56Z</time>
      </trkpt>
      <trkpt lat="48.71755" lon="2.54781">
        <ele>66.38</ele>
        <time>2021-07-20T10:30:09Z</time>
      </trkpt>
      <trkpt lat="48.71769" lon="2.54775">
        <ele>66.3</ele>
        <time>2021-07-20T10:30:22Z</time>
      </trkpt>
      <trkpt lat="48.71773" lon="2.54763">
        <ele>66.31</ele>
        <time>2021-07-20T10:30:33Z</time>
      </trkpt>
      <trkpt lat="48.71772" lon="2.54753">
        <ele>66.28</ele>
        <time>2021-07-20T10:30:42Z</time>
      </trkpt>
      <trkpt lat="48.7177" lon="2.5474">
        <ele>66.19</ele>
        <time>2021-07-20T10:30:52Z</time>
      </trkpt>
      <trkpt lat="48.71776" lon="2.54739">
        <ele>66.13</ele>
        <time>2021-07-20T10:31:00Z</time>
      </trkpt>
      <trkpt lat="48.71781" lon="2.54746">
        <ele>66.02</ele>
        <time>2021-07-20T10:31:08Z</time>
      </trkpt>
      <trkpt lat="48.71786" lon="2.54751">
        <ele>65.92</ele>
        <time>2021-07-20T10:31:17Z</time>
      </trkpt>
      <trkpt lat="48.71787" lon="2.54755">
        <ele>65.82</ele>
        <time>2021-07-20T10:31:27Z</time>
      </trkpt>
      <trkpt lat="48.71791" lon="2.54757">
        <ele>65.77</ele>
        <time>2021-07-20T10:31:37Z</time>
      </trkpt>
      <trkpt lat="48.71795" lon="2.5476">
        <ele>65.66</ele>
        <time>2021-07-20T10:31:50Z</time>
      </trkpt>
      <trkpt lat="48.71804" lon="2.54766">
        <ele>65.57</ele>
        <time>2021-07-20T10:32:00Z</time>
      </trkpt>
      <trkpt lat="48.7182" lon="2.54772">
        <ele>65.48</ele>
        <time>2021-07-20T10:32:13Z</time>
      </trkpt>
      <trkpt lat="48.71825" lon="2.54776">
        <ele>65.47</ele>
        <time>2021-07-20T10:32:22Z</time>
      </trkpt>
      <trkpt lat="48.7183" lon="2.54786">
        <ele>65.42</ele>
        <time>2021-07-20T10:32:33Z</time>
      </trkpt>
      <trkpt lat="48.71839" lon="2.54788">
        <ele>65.27</ele>
        <time>2021-07-20T10:32:43Z</time>
      </trkpt>
      <trkpt lat="48.7185" lon="2.54786">
        <ele>65.2</ele>
        <time>2021-07-20T10:32:53Z</time>
      </trkpt>
      <trkpt lat="48.71862" lon="2.54788">
        <ele>65.16</ele>
        <time>2021-07-20T10:33:04Z</time>
      </trkpt>
      <trkpt lat="48.71873" lon="2.54784">
        <ele>65.05</ele>
        <time>2021-07-20T10:33:13Z</time>
      </trkpt>
      <trkpt lat="48.71885" lon="2.54783">
        <ele>64.97</ele>
        <time>2021-07-20T10:33:22Z</time>
      </trkpt>
      <trkpt lat="48.71891" lon="2.54784">
        <ele>67.22</ele>
        <time>2021-07-20T10:33:27Z</time>
      </trkpt>
      <trkpt lat="48.71901" lon="2.54784">
        <ele>67.19</ele>
        <time>2021-07-20T10:33:36Z</time>
      </trkpt>
      <trkpt lat="48.7191" lon="2.54781">
        <ele>67.17</ele>
        <time>2021-07-20T10:33:44Z</time>
      </trkpt>
      <trkpt lat="48.71916" lon="2.54781">
        <ele>67.84</ele>
        <time>2021-07-20T10:33:54Z</time>
      </trkpt>
      <trkpt lat="48.71924" lon="2.54779">
        <ele>68.66</ele>
        <time>2021-07-20T10:34:02Z</time>
      </trkpt>
      <trkpt lat="48.71931" lon="2.54778">
        <ele>68.59</ele>
        <time>2021-07-20T10:34:09Z</time>
      </trkpt>
      <trkpt lat="48.71945" lon="2.54777">
        <ele>68.39</ele>
        <time>2021-07-20T10:34:21Z</time>
      </trkpt>
      <trkpt lat="48.71957" lon="2.54775">
        <ele>69.08</ele>
        <time>2021-07-20T10:34:32Z</time>
      </trkpt>
      <trkpt lat="48.71968" lon="2.54775">
        <ele>68.95</ele>
        <time>2021-07-20T10:34:44Z</time>
      </trkpt>
      <trkpt lat="48.71978" lon="2.54772">
        <ele>69.73</ele>
        <time>2021-07-20T10:34:55Z</time>
      </trkpt>
      <trkpt lat="48.71988" lon="2.5477">
        <ele>69.58</ele>
        <time>2021-07-20T10:35:06Z</time>
      </trkpt>
      <trkpt lat="48.71989" lon="2.5477">
        <ele>69.59</ele>
        <time>2021-07-20T10:35:08Z</time>
      </trkpt>
      <trkpt lat="48.72003" lon="2.54772">
        <ele>69.41</ele>
        <time>2021-07-20T10:35:22Z</time>
      </trkpt>
      <trkpt lat="48.72012" lon="2.5477">
        <ele>69.28</ele>
        <time>2021-07-20T10:35:34Z</time>
      </trkpt>
      <trkpt lat="48.72028" lon="2.5477">
        <ele>69.11</ele>
        <time>2021-07-20T10:35:46Z</time>
      </trkpt>
      <trkpt lat="48.72041" lon="2.54767">
        <ele>68.97</ele>
        <time>2021-07-20T10:35:57Z</time>
      </trkpt>
      <trkpt lat="48.72051" lon="2.54762">
        <ele>68.91</ele>
        <time>2021-07-20T10:36:09Z</time>
      </trkpt>
      <trkpt lat="48.72068" lon="2.54763">
        <ele>68.78</ele>
        <time>2021-07-20T10:36:22Z</time>
      </trkpt>
      <trkpt lat="48.72078" lon="2.54762">
        <ele>68.71</ele>
        <time>2021-07-20T10:36:33Z</time>
      </trkpt>
      <trkpt lat="48.72079" lon="2.54762">
        <ele>68.7</ele>
        <time>2021-07-20T10:36:34Z</time>
      </trkpt>
      <trkpt lat="48.72091" lon="2.54759">
        <ele>68.58</ele>
        <time>2021-07-20T10:36:46Z</time>
      </trkpt>
      <trkpt lat="48.72099" lon="2.54759">
        <ele>68.49</ele>
        <time>2021-07-20T10:36:54Z</time>
      </trkpt>
      <trkpt lat="48.72113" lon="2.54758">
        <ele>68.32</ele>
        <time>2021-07-20T10:37:07Z</time>
      </trkpt>
      <trkpt lat="48.72114" lon="2.54758">
        <ele>65.95</ele>
        <time>2021-07-20T10:37:09Z</time>
      </trkpt>
      <trkpt lat="48.72122" lon="2.54754">
        <ele>65.01</ele>
        <time>2021-07-20T10:37:21Z</time>
      </trkpt>
      <trkpt lat="48.72135" lon="2.54749">
        <ele>64.11</ele>
        <time>2021-07-20T10:37:33Z</time>
      </trkpt>
      <trkpt lat="48.72149" lon="2.54748">
        <ele>64.03</ele>
        <time>2021-07-20T10:37:44Z</time>
      </trkpt>
      <trkpt lat="48.72162" lon="2.54742">
        <ele>63.91</ele>
        <time>2021-07-20T10:37:57Z</time>
      </trkpt>
      <trkpt lat="48.72176" lon="2.54736">
        <ele>62.92</ele>
        <time>2021-07-20T10:38:07Z</time>
      </trkpt>
      <trkpt lat="48.72177" lon="2.54736">
        <ele>62.9</ele>
        <time>2021-07-20T10:38:08Z</time>
      </trkpt>
      <trkpt lat="48.7218" lon="2.54732">
        <ele>62.89</ele>
        <time>2021-07-20T10:38:10Z</time>
      </trkpt>
      <trkpt lat="48.72189" lon="2.54726">
        <ele>62.86</ele>
        <time>2021-07-20T10:38:19Z</time>
      </trkpt>
      <trkpt lat="48.72198" lon="2.54721">
        <ele>62.89</ele>
        <time>2021-07-20T10:38:29Z</time>
      </trkpt>
      <trkpt lat="48.72208" lon="2.54715">
        <ele>62.8</ele>
        <time>2021-07-20T10:38:42Z</time>
      </trkpt>
      <trkpt lat="48.72216" lon="2.54709">
        <ele>62.76</ele>
        <time>2021-07-20T10:38:55Z</time>
      </trkpt>
      <trkpt lat="48.72218" lon="2.54709">
        <ele>61.9</ele>
        <time>2021-07-20T10:39:06Z</time>
      </trkpt>
      <trkpt lat="48.72217" lon="2.54712">
        <ele>61.9</ele>
        <time>2021-07-20T10:39:19Z</time>
      </trkpt>
      <trkpt lat="48.72215" lon="2.54712">
        <ele>61.9</ele>
        <time>2021-07-20T10:39:31Z</time>
      </trkpt>
      <trkpt lat="48.72211" lon="2.54715">
        <ele>61.83</ele>
        <time>2021-07-20T10:39:47Z</time>
      </trkpt>
      <trkpt lat="48.72211" lon="2.54713">
        <ele>60.98</ele>
        <time>2021-07-20T10:39:56Z</time>
      </trkpt>
      <trkpt lat="48.72211" lon="2.54708">
        <ele>60.95</ele>
        <time>2021-07-20T10:40:11Z</time>
      </trkpt>
      <trkpt lat="48.72212" lon="2.54704">
        <ele>60.9</ele>
        <time>2021-07-20T10:40:32Z</time>
      </trkpt>
      <trkpt lat="48.72211" lon="2.54705">
        <ele>60.91</ele>
        <time>2021-07-20T10:40:47Z</time>
      </trkpt>
      <trkpt lat="48.72213" lon="2.54704">
        <ele>60.89</ele>
        <time>2021-07-20T10:41:06Z</time>
      </trkpt>
      <trkpt lat="48.72213" lon="2.54706">
        <ele>60.86</ele>
        <time>2021-07-20T10:41:22Z</time>
      </trkpt>
      <trkpt lat="48.72213" lon="2.5471">
        <ele>60.87</ele>
        <time>2021-07-20T10:41:38Z</time>
      </trkpt>
      <trkpt lat="48.72211" lon="2.54711">
        <ele>60.9</ele>
        <time>2021-07-20T10:41:57Z</time>
      </trkpt>
      <trkpt lat="48.72209" lon="2.54714">
        <ele>60.93</ele>
        <time>2021-07-20T10:42:23Z</time>
      </trkpt>
      <trkpt lat="48.72209" lon="2.54713">
        <ele>60.99</ele>
        <time>2021-07-20T10:42:41Z</time>
      </trkpt>
      <trkpt lat="48.72209" lon="2.54712">
        <ele>61.07</ele>
        <time>2021-07-20T10:43:02Z</time>
      </trkpt>
      <trkpt lat="48.72208" lon="2.54709">
        <ele>61.13</ele>
        <time>2021-07-20T10:43:18Z</time>
      </trkpt>
      <trkpt lat="48.72209" lon="2.54712">
        <ele>61.24</ele>
        <time>2021-07-20T10:43:36Z</time>
      </trkpt>
      <trkpt lat="48.72209" lon="2.5471">
        <ele>61.31</ele>
        <time>2021-07-20T10:43:52Z</time>
      </trkpt>
      <trkpt lat="48.72211" lon="2.54704">
        <ele>61.37</ele>
        <time>2021-07-20T10:44:09Z</time>
      </trkpt>
      <trkpt lat="48.72212" lon="2.54701">
        <ele>61.46</ele>
        <time>2021-07-20T10:44:23Z</time>
      </trkpt>
      <trkpt lat="48.72211" lon="2.54706">
        <ele>61.51</ele>
        <time>2021-07-20T10:44:38Z</time>
      </trkpt>
      <trkpt lat="48.72212" lon="2.54707">
        <ele>61.58</ele>
        <time>2021-07-20T10:44:54Z</time>
      </trkpt>
      <trkpt lat="48.72211" lon="2.54707">
        <ele>61.64</ele>
        <time>2021-07-20T10:45:06Z</time>
      </trkpt>
      <trkpt lat="48.72209" lon="2.54708">
        <ele>61.72</ele>
        <time>2021-07-20T10:45:21Z</time>
      </trkpt>
      <trkpt lat="48.72209" lon="2.54706">
        <ele>61.8</ele>
        <time>2021-07-20T10:45:34Z</time>
      </trkpt>
      <trkpt lat="48.72212" lon="2.54705">
        <ele>61.91</ele>
        <time>2021-07-20T10:45:51Z</time>
      </trkpt>
      <trkpt lat="48.72211" lon="2.54706">
        <ele>62.01</ele>
        <time>2021-07-20T10:46:03Z</time>
      </trkpt>
      <trkpt lat="48.72209" lon="2.54703">
        <ele>62.14</ele>
        <time>2021-07-20T10:46:19Z</time>
      </trkpt>
      <trkpt lat="48.72208" lon="2.54705">
        <ele>62.26</ele>
        <time>2021-07-20T10:46:34Z</time>
      </trkpt>
      <trkpt lat="48.72205" lon="2.54708">
        <ele>62.38</ele>
        <time>2021-07-20T10:46:48Z</time>
      </trkpt>
      <trkpt lat="48.72206" lon="2.54709">
        <ele>62.53</ele>
        <time>2021-07-20T10:47:05Z</time>
      </trkpt>
      <trkpt lat="48.72208" lon="2.54706">
        <ele>62.68</ele>
        <time>2021-07-20T10:47:21Z</time>
      </trkpt>
      <trkpt lat="48.72204" lon="2.5471">
        <ele>62.89</ele>
        <time>2021-07-20T10:47:44Z</time>
      </trkpt>
      <trkpt lat="48.72204" lon="2.54712">
        <ele>63.06</ele>
        <time>2021-07-20T10:48:01Z</time>
      </trkpt>
      <trkpt lat="48.72206" lon="2.5471">
        <ele>63.23</ele>
        <time>2021-07-20T10:48:19Z</time>
      </trkpt>
      <trkpt lat="48.72206" lon="2.54712">
        <ele>63.31</ele>
        <time>2021-07-20T10:48:29Z</time>
      </trkpt>
      <trkpt lat="48.722" lon="2.54717">
        <ele>63.49</ele>
        <time>2021-07-20T10:48:46Z</time>
      </trkpt>
      <trkpt lat="48.72201" lon="2.54716">
        <ele>63.66</ele>
        <time>2021-07-20T10:49:03Z</time>
      </trkpt>
      <trkpt lat="48.72205" lon="2.54715">
        <ele>63.78</ele>
        <time>2021-07-20T10:49:19Z</time>
      </trkpt>
      <trkpt lat="48.72206" lon="2.5471">
        <ele>63.94</ele>
        <time>2021-07-20T10:49:35Z</time>
      </trkpt>
      <trkpt lat="48.72202" lon="2.54705">
        <ele>64.11</ele>
        <time>2021-07-20T10:49:53Z</time>
      </trkpt>
      <trkpt lat="48.72204" lon="2.54707">
        <ele>64.25</ele>
        <time>2021-07-20T10:50:09Z</time>
      </trkpt>
      <trkpt lat="48.72202" lon="2.54705">
        <ele>64.36</ele>
        <time>2021-07-20T10:50:24Z</time>
      </trkpt>
      <trkpt lat="48.72202" lon="2.547">
        <ele>64.48</ele>
        <time>2021-07-20T10:50:39Z</time>
      </trkpt>
      <trkpt lat="48.72203" lon="2.54697">
        <ele>64.61</ele>
        <time>2021-07-20T10:50:56Z</time>
      </trkpt>
      <trkpt lat="48.72203" lon="2.547">
        <ele>64.73</ele>
        <time>2021-07-20T10:51:12Z</time>
      </trkpt>
      <trkpt lat="48.72203" lon="2.54701">
        <ele>64.85</ele>
        <time>2021-07-20T10:51:29Z</time>
      </trkpt>
      <trkpt lat="48.72204" lon="2.547">
        <ele>64.98</ele>
        <time>2021-07-20T10:51:49Z</time>
      </trkpt>
      <trkpt lat="48.72202" lon="2.54703">
        <ele>65.12</ele>
        <time>2021-07-20T10:52:08Z</time>
      </trkpt>
      <trkpt lat="48.72205" lon="2.54702">
        <ele>65.23</ele>
        <time>2021-07-20T10:52:24Z</time>
      </trkpt>
      <trkpt lat="48.72206" lon="2.54702">
        <ele>65.37</ele>
        <time>2021-07-20T10:52:42Z</time>
      </trkpt>
      <trkpt lat="48.72207" lon="2.54706">
        <ele>65.49</ele>
        <time>2021-07-20T10:52:59Z</time>
      </trkpt>
      <trkpt lat="48.72207" lon="2.54701">
        <ele>65.64</ele>
        <time>2021-07-20T10:53:16Z</time>
      </trkpt>
      <trkpt lat="48.72207" lon="2.54702">
        <ele>65.75</ele>
        <time>2021-07-20T10:53:32Z</time>
      </trkpt>
      <trkpt lat="48.72207" lon="2.54704">
        <ele>65.88</ele>
        <time>2021-07-20T10:53:48Z</time>
      </trkpt>
      <trkpt lat="48.72208" lon="2.54708">
        <ele>66</ele>
        <time>2021-07-20T10:54:05Z</time>
      </trkpt>
      <trkpt lat="48.72209" lon="2.54709">
        <ele>66.1</ele>
        <time>2021-07-20T10:54:21Z</time>
      </trkpt>
      <trkpt lat="48.72208" lon="2.5471">
        <ele>66.2</ele>
        <time>2021-07-20T10:54:38Z</time>
      </trkpt>
      <trkpt lat="48.72207" lon="2.54709">
        <ele>66.31</ele>
        <time>2021-07-20T10:54:56Z</time>
      </trkpt>
      <trkpt lat="48.72205" lon="2.54706">
        <ele>66.41</ele>
        <time>2021-07-20T10:55:12Z</time>
      </trkpt>
      <trkpt lat="48.72206" lon="2.54707">
        <ele>66.5</ele>
        <time>2021-07-20T10:55:29Z</time>
      </trkpt>
      <trkpt lat="48.72207" lon="2.54704">
        <ele>66.6</ele>
        <time>2021-07-20T10:55:45Z</time>
      </trkpt>
      <trkpt lat="48.72207" lon="2.54707">
        <ele>66.73</ele>
        <time>2021-07-20T10:56:03Z</time>
      </trkpt>
      <trkpt lat="48.72205" lon="2.54707">
        <ele>66.84</ele>
        <time>2021-07-20T10:56:21Z</time>
      </trkpt>
      <trkpt lat="48.72203" lon="2.54707">
        <ele>66.92</ele>
        <time>2021-07-20T10:56:39Z</time>
      </trkpt>
      <trkpt lat="48.72205" lon="2.54707">
        <ele>67.02</ele>
        <time>2021-07-20T10:56:55Z</time>
      </trkpt>
      <trkpt lat="48.72206" lon="2.54699">
        <ele>67.09</ele>
        <time>2021-07-20T10:57:10Z</time>
      </trkpt>
      <trkpt lat="48.72205" lon="2.54695">
        <ele>67.17</ele>
        <time>2021-07-20T10:57:25Z</time>
      </trkpt>
      <trkpt lat="48.72205" lon="2.54697">
        <ele>69.83</ele>
        <time>2021-07-20T10:57:34Z</time>
      </trkpt>
      <trkpt lat="48.72204" lon="2.54701">
        <ele>69.89</ele>
        <time>2021-07-20T10:57:44Z</time>
      </trkpt>
      <trkpt lat="48.72203" lon="2.54702">
        <ele>69.89</ele>
        <time>2021-07-20T10:57:46Z</time>
      </trkpt>
      <trkpt lat="48.72203" lon="2.54709">
        <ele>69.99</ele>
        <time>2021-07-20T10:58:04Z</time>
      </trkpt>
      <trkpt lat="48.72209" lon="2.54711">
        <ele>70.05</ele>
        <time>2021-07-20T10:58:18Z</time>
      </trkpt>
      <trkpt lat="48.72209" lon="2.54711">
        <ele>70.13</ele>
        <time>2021-07-20T10:58:36Z</time>
      </trkpt>
      <trkpt lat="48.72206" lon="2.54715">
        <ele>70.21</ele>
        <time>2021-07-20T10:58:58Z</time>
      </trkpt>
      <trkpt lat="48.72206" lon="2.54717">
        <ele>70.29</ele>
        <time>2021-07-20T10:59:17Z</time>
      </trkpt>
      <trkpt lat="48.72208" lon="2.54715">
        <ele>70.36</ele>
        <time>2021-07-20T10:59:29Z</time>
      </trkpt>
      <trkpt lat="48.72215" lon="2.54709">
        <ele>70.45</ele>
        <time>2021-07-20T10:59:46Z</time>
      </trkpt>
      <trkpt lat="48.72218" lon="2.54707">
        <ele>70.54</ele>
        <time>2021-07-20T11:00:03Z</time>
      </trkpt>
      <trkpt lat="48.72217" lon="2.54708">
        <ele>70.63</ele>
        <time>2021-07-20T11:00:20Z</time>
      </trkpt>
      <trkpt lat="48.7222" lon="2.54708">
        <ele>70.7</ele>
        <time>2021-07-20T11:00:33Z</time>
      </trkpt>
      <trkpt lat="48.72222" lon="2.54708">
        <ele>70.8</ele>
        <time>2021-07-20T11:00:51Z</time>
      </trkpt>
      <trkpt lat="48.72221" lon="2.54706">
        <ele>70.89</ele>
        <time>2021-07-20T11:01:09Z</time>
      </trkpt>
      <trkpt lat="48.72223" lon="2.54709">
        <ele>70.98</ele>
        <time>2021-07-20T11:01:26Z</time>
      </trkpt>
      <trkpt lat="48.72223" lon="2.5471">
        <ele>71.03</ele>
        <time>2021-07-20T11:01:42Z</time>
      </trkpt>
      <trkpt lat="48.72221" lon="2.54709">
        <ele>71.1</ele>
        <time>2021-07-20T11:02:00Z</time>
      </trkpt>
      <trkpt lat="48.7222" lon="2.54709">
        <ele>71.15</ele>
        <time>2021-07-20T11:02:15Z</time>
      </trkpt>
      <trkpt lat="48.7222" lon="2.54708">
        <ele>71.19</ele>
        <time>2021-07-20T11:02:29Z</time>
      </trkpt>
      <trkpt lat="48.72222" lon="2.54709">
        <ele>71.26</ele>
        <time>2021-07-20T11:02:48Z</time>
      </trkpt>
      <trkpt lat="48.72222" lon="2.54706">
        <ele>71.3</ele>
        <time>2021-07-20T11:03:06Z</time>
      </trkpt>
      <trkpt lat="48.7222" lon="2.54704">
        <ele>71.33</ele>
        <time>2021-07-20T11:03:24Z</time>
      </trkpt>
      <trkpt lat="48.72219" lon="2.54707">
        <ele>71.35</ele>
        <time>2021-07-20T11:03:42Z</time>
      </trkpt>
      <trkpt lat="48.72219" lon="2.5471">
        <ele>71.33</ele>
        <time>2021-07-20T11:03:56Z</time>
      </trkpt>
      <trkpt lat="48.72219" lon="2.54712">
        <ele>71.35</ele>
        <time>2021-07-20T11:04:12Z</time>
      </trkpt>
      <trkpt lat="48.72218" lon="2.54711">
        <ele>71.35</ele>
        <time>2021-07-20T11:04:29Z</time>
      </trkpt>
      <trkpt lat="48.72219" lon="2.5471">
        <ele>71.35</ele>
        <time>2021-07-20T11:04:45Z</time>
      </trkpt>
      <trkpt lat="48.72218" lon="2.54709">
        <ele>71.36</ele>
        <time>2021-07-20T11:05:00Z</time>
      </trkpt>
      <trkpt lat="48.72218" lon="2.54708">
        <ele>71.35</ele>
        <time>2021-07-20T11:05:11Z</time>
      </trkpt>
      <trkpt lat="48.72219" lon="2.5471">
        <ele>71.39</ele>
        <time>2021-07-20T11:05:22Z</time>
      </trkpt>
      <trkpt lat="48.7222" lon="2.54719">
        <ele>72.26</ele>
        <time>2021-07-20T11:05:35Z</time>
      </trkpt>
      <trkpt lat="48.7222" lon="2.54724">
        <ele>72.2</ele>
        <time>2021-07-20T11:05:48Z</time>
      </trkpt>
      <trkpt lat="48.7222" lon="2.54726">
        <ele>72.15</ele>
        <time>2021-07-20T11:05:58Z</time>
      </trkpt>
      <trkpt lat="48.72222" lon="2.54725">
        <ele>72.26</ele>
        <time>2021-07-20T11:06:11Z</time>
      </trkpt>
      <trkpt lat="48.72222" lon="2.54725">
        <ele>72.2</ele>
        <time>2021-07-20T11:06:21Z</time>
      </trkpt>
      <trkpt lat="48.72218" lon="2.54718">
        <ele>72.19</ele>
        <time>2021-07-20T11:06:39Z</time>
      </trkpt>
      <trkpt lat="48.7222" lon="2.54715">
        <ele>72.21</ele>
        <time>2021-07-20T11:06:53Z</time>
      </trkpt>
      <trkpt lat="48.72225" lon="2.54718">
        <ele>72.24</ele>
        <time>2021-07-20T11:07:04Z</time>
      </trkpt>
      <trkpt lat="48.7223" lon="2.54722">
        <ele>72.23</ele>
        <time>2021-07-20T11:07:15Z</time>
      </trkpt>
      <trkpt lat="48.7224" lon="2.5472">
        <ele>72.17</ele>
        <time>2021-07-20T11:07:26Z</time>
      </trkpt>
      <trkpt lat="48.72249" lon="2.54716">
        <ele>72.12</ele>
        <time>2021-07-20T11:07:37Z</time>
      </trkpt>
      <trkpt lat="48.72257" lon="2.54712">
        <ele>72.09</ele>
        <time>2021-07-20T11:07:47Z</time>
      </trkpt>
      <trkpt lat="48.72267" lon="2.54704">
        <ele>72.09</ele>
        <time>2021-07-20T11:07:58Z</time>
      </trkpt>
      <trkpt lat="48.72277" lon="2.54697">
        <ele>72.02</ele>
        <time>2021-07-20T11:08:09Z</time>
      </trkpt>
      <trkpt lat="48.72284" lon="2.54693">
        <ele>71.93</ele>
        <time>2021-07-20T11:08:17Z</time>
      </trkpt>
      <trkpt lat="48.72294" lon="2.54684">
        <ele>71.82</ele>
        <time>2021-07-20T11:08:28Z</time>
      </trkpt>
      <trkpt lat="48.723" lon="2.54677">
        <ele>71.71</ele>
        <time>2021-07-20T11:08:39Z</time>
      </trkpt>
      <trkpt lat="48.72309" lon="2.54671">
        <ele>71.63</ele>
        <time>2021-07-20T11:08:49Z</time>
      </trkpt>
      <trkpt lat="48.72322" lon="2.54661">
        <ele>71.5</ele>
        <time>2021-07-20T11:08:59Z</time>
      </trkpt>
      <trkpt lat="48.72331" lon="2.54653">
        <ele>71.4</ele>
        <time>2021-07-20T11:09:06Z</time>
      </trkpt>
      <trkpt lat="48.7234" lon="2.54643">
        <ele>71.38</ele>
        <time>2021-07-20T11:09:15Z</time>
      </trkpt>
      <trkpt lat="48.72347" lon="2.54636">
        <ele>71.29</ele>
        <time>2021-07-20T11:09:22Z</time>
      </trkpt>
      <trkpt lat="48.72352" lon="2.54631">
        <ele>71.22</ele>
        <time>2021-07-20T11:09:29Z</time>
      </trkpt>
      <trkpt lat="48.72358" lon="2.54623">
        <ele>71.09</ele>
        <time>2021-07-20T11:09:37Z</time>
      </trkpt>
      <trkpt lat="48.72366" lon="2.54615">
        <ele>70.98</ele>
        <time>2021-07-20T11:09:45Z</time>
      </trkpt>
      <trkpt lat="48.72374" lon="2.54608">
        <ele>70.9</ele>
        <time>2021-07-20T11:09:54Z</time>
      </trkpt>
      <trkpt lat="48.72381" lon="2.546">
        <ele>70.84</ele>
        <time>2021-07-20T11:10:03Z</time>
      </trkpt>
      <trkpt lat="48.7239" lon="2.54591">
        <ele>70.74</ele>
        <time>2021-07-20T11:10:11Z</time>
      </trkpt>
      <trkpt lat="48.72398" lon="2.54583">
        <ele>70.63</ele>
        <time>2021-07-20T11:10:20Z</time>
      </trkpt>
      <trkpt lat="48.72406" lon="2.54576">
        <ele>70.53</ele>
        <time>2021-07-20T11:10:27Z</time>
      </trkpt>
      <trkpt lat="48.72412" lon="2.54568">
        <ele>70.39</ele>
        <time>2021-07-20T11:10:35Z</time>
      </trkpt>
      <trkpt lat="48.72418" lon="2.5456">
        <ele>70.19</ele>
        <time>2021-07-20T11:10:44Z</time>
      </trkpt>
      <trkpt lat="48.72422" lon="2.54554">
        <ele>70.07</ele>
        <time>2021-07-20T11:10:51Z</time>
      </trkpt>
      <trkpt lat="48.72435" lon="2.54542">
        <ele>69.79</ele>
        <time>2021-07-20T11:11:03Z</time>
      </trkpt>
      <trkpt lat="48.72442" lon="2.54536">
        <ele>69.63</ele>
        <time>2021-07-20T11:11:10Z</time>
      </trkpt>
      <trkpt lat="48.7245" lon="2.54528">
        <ele>69.44</ele>
        <time>2021-07-20T11:11:18Z</time>
      </trkpt>
      <trkpt lat="48.72456" lon="2.54519">
        <ele>69.18</ele>
        <time>2021-07-20T11:11:27Z</time>
      </trkpt>
      <trkpt lat="48.72464" lon="2.54506">
        <ele>68.91</ele>
        <time>2021-07-20T11:11:38Z</time>
      </trkpt>
      <trkpt lat="48.72474" lon="2.5449">
        <ele>68.59</ele>
        <time>2021-07-20T11:11:50Z</time>
      </trkpt>
      <trkpt lat="48.72484" lon="2.54476">
        <ele>68.14</ele>
        <time>2021-07-20T11:12:03Z</time>
      </trkpt>
      <trkpt lat="48.72491" lon="2.54464">
        <ele>67.88</ele>
        <time>2021-07-20T11:12:13Z</time>
      </trkpt>
      <trkpt lat="48.72498" lon="2.5445">
        <ele>67.59</ele>
        <time>2021-07-20T11:12:23Z</time>
      </trkpt>
      <trkpt lat="48.72507" lon="2.54437">
        <ele>68.13</ele>
        <time>2021-07-20T11:12:34Z</time>
      </trkpt>
      <trkpt lat="48.72506" lon="2.54435">
        <ele>68.1</ele>
        <time>2021-07-20T11:12:35Z</time>
      </trkpt>
      <trkpt lat="48.72512" lon="2.54433">
        <ele>67.61</ele>
        <time>2021-07-20T11:12:50Z</time>
      </trkpt>
      <trkpt lat="48.72512" lon="2.54432">
        <ele>67.2</ele>
        <time>2021-07-20T11:13:03Z</time>
      </trkpt>
      <trkpt lat="48.72511" lon="2.54425">
        <ele>66.66</ele>
        <time>2021-07-20T11:13:20Z</time>
      </trkpt>
      <trkpt lat="48.72516" lon="2.54425">
        <ele>66.4</ele>
        <time>2021-07-20T11:13:31Z</time>
      </trkpt>
      <trkpt lat="48.72522" lon="2.54413">
        <ele>66.06</ele>
        <time>2021-07-20T11:13:44Z</time>
      </trkpt>
      <trkpt lat="48.72527" lon="2.54398">
        <ele>65.82</ele>
        <time>2021-07-20T11:13:55Z</time>
      </trkpt>
      <trkpt lat="48.72533" lon="2.54387">
        <ele>65.66</ele>
        <time>2021-07-20T11:14:03Z</time>
      </trkpt>
      <trkpt lat="48.72537" lon="2.54377">
        <ele>65.48</ele>
        <time>2021-07-20T11:14:10Z</time>
      </trkpt>
      <trkpt lat="48.72543" lon="2.54359">
        <ele>65.23</ele>
        <time>2021-07-20T11:14:23Z</time>
      </trkpt>
      <trkpt lat="48.7255" lon="2.54342">
        <ele>64.99</ele>
        <time>2021-07-20T11:14:35Z</time>
      </trkpt>
      <trkpt lat="48.72555" lon="2.54328">
        <ele>64.72</ele>
        <time>2021-07-20T11:14:46Z</time>
      </trkpt>
      <trkpt lat="48.72559" lon="2.54315">
        <ele>64.49</ele>
        <time>2021-07-20T11:14:56Z</time>
      </trkpt>
      <trkpt lat="48.72563" lon="2.54298">
        <ele>64.28</ele>
        <time>2021-07-20T11:15:06Z</time>
      </trkpt>
      <trkpt lat="48.72571" lon="2.54284">
        <ele>64.91</ele>
        <time>2021-07-20T11:15:18Z</time>
      </trkpt>
      <trkpt lat="48.72578" lon="2.54265">
        <ele>64.69</ele>
        <time>2021-07-20T11:15:29Z</time>
      </trkpt>
      <trkpt lat="48.72586" lon="2.54244">
        <ele>64.42</ele>
        <time>2021-07-20T11:15:44Z</time>
      </trkpt>
      <trkpt lat="48.72591" lon="2.54223">
        <ele>64.14</ele>
        <time>2021-07-20T11:15:58Z</time>
      </trkpt>
      <trkpt lat="48.72596" lon="2.54201">
        <ele>63.88</ele>
        <time>2021-07-20T11:16:12Z</time>
      </trkpt>
      <trkpt lat="48.726" lon="2.54182">
        <ele>63.68</ele>
        <time>2021-07-20T11:16:23Z</time>
      </trkpt>
      <trkpt lat="48.72607" lon="2.54169">
        <ele>63.53</ele>
        <time>2021-07-20T11:16:32Z</time>
      </trkpt>
      <trkpt lat="48.72608" lon="2.5416">
        <ele>63.42</ele>
        <time>2021-07-20T11:16:39Z</time>
      </trkpt>
      <trkpt lat="48.72607" lon="2.54153">
        <ele>64.01</ele>
        <time>2021-07-20T11:16:51Z</time>
      </trkpt>
      <trkpt lat="48.7261" lon="2.5415">
        <ele>63.77</ele>
        <time>2021-07-20T11:17:06Z</time>
      </trkpt>
      <trkpt lat="48.7261" lon="2.54148">
        <ele>63.56</ele>
        <time>2021-07-20T11:17:23Z</time>
      </trkpt>
      <trkpt lat="48.7261" lon="2.54148">
        <ele>63.39</ele>
        <time>2021-07-20T11:17:37Z</time>
      </trkpt>
      <trkpt lat="48.72609" lon="2.54141">
        <ele>63.23</ele>
        <time>2021-07-20T11:17:51Z</time>
      </trkpt>
      <trkpt lat="48.72613" lon="2.54129">
        <ele>63.14</ele>
        <time>2021-07-20T11:18:01Z</time>
      </trkpt>
      <trkpt lat="48.72615" lon="2.54115">
        <ele>63.03</ele>
        <time>2021-07-20T11:18:11Z</time>
      </trkpt>
      <trkpt lat="48.72617" lon="2.54104">
        <ele>62.88</ele>
        <time>2021-07-20T11:18:22Z</time>
      </trkpt>
      <trkpt lat="48.72618" lon="2.54103">
        <ele>60.41</ele>
        <time>2021-07-20T11:18:27Z</time>
      </trkpt>
      <trkpt lat="48.7262" lon="2.54101">
        <ele>59.12</ele>
        <time>2021-07-20T11:18:35Z</time>
      </trkpt>
      <trkpt lat="48.72621" lon="2.54103">
        <ele>59.1</ele>
        <time>2021-07-20T11:18:44Z</time>
      </trkpt>
      <trkpt lat="48.72624" lon="2.54108">
        <ele>58.98</ele>
        <time>2021-07-20T11:18:55Z</time>
      </trkpt>
      <trkpt lat="48.72626" lon="2.54108">
        <ele>57.98</ele>
        <time>2021-07-20T11:19:10Z</time>
      </trkpt>
      <trkpt lat="48.72627" lon="2.54113">
        <ele>57.85</ele>
        <time>2021-07-20T11:19:23Z</time>
      </trkpt>
      <trkpt lat="48.72626" lon="2.54123">
        <ele>57.75</ele>
        <time>2021-07-20T11:19:36Z</time>
      </trkpt>
      <trkpt lat="48.72626" lon="2.5414">
        <ele>56.88</ele>
        <time>2021-07-20T11:19:50Z</time>
      </trkpt>
      <trkpt lat="48.72621" lon="2.54164">
        <ele>55.87</ele>
        <time>2021-07-20T11:20:03Z</time>
      </trkpt>
      <trkpt lat="48.72616" lon="2.54181">
        <ele>54.97</ele>
        <time>2021-07-20T11:20:14Z</time>
      </trkpt>
      <trkpt lat="48.72612" lon="2.54196">
        <ele>54.86</ele>
        <time>2021-07-20T11:20:26Z</time>
      </trkpt>
      <trkpt lat="48.7261" lon="2.54214">
        <ele>53.93</ele>
        <time>2021-07-20T11:20:39Z</time>
      </trkpt>
      <trkpt lat="48.72605" lon="2.5423">
        <ele>53.8</ele>
        <time>2021-07-20T11:20:49Z</time>
      </trkpt>
      <trkpt lat="48.726" lon="2.54247">
        <ele>52.03</ele>
        <time>2021-07-20T11:21:03Z</time>
      </trkpt>
      <trkpt lat="48.72596" lon="2.54259">
        <ele>50.98</ele>
        <time>2021-07-20T11:21:15Z</time>
      </trkpt>
      <trkpt lat="48.72589" lon="2.54279">
        <ele>50.04</ele>
        <time>2021-07-20T11:21:28Z</time>
      </trkpt>
      <trkpt lat="48.72585" lon="2.5429">
        <ele>48.21</ele>
        <time>2021-07-20T11:21:38Z</time>
      </trkpt>
      <trkpt lat="48.72582" lon="2.54299">
        <ele>47.23</ele>
        <time>2021-07-20T11:21:45Z</time>
      </trkpt>
      <trkpt lat="48.72576" lon="2.54319">
        <ele>46.18</ele>
        <time>2021-07-20T11:21:59Z</time>
      </trkpt>
      <trkpt lat="48.72575" lon="2.54321">
        <ele>44.54</ele>
        <time>2021-07-20T11:22:02Z</time>
      </trkpt>
      <trkpt lat="48.72574" lon="2.54335">
        <ele>44.35</ele>
        <time>2021-07-20T11:22:13Z</time>
      </trkpt>
      <trkpt lat="48.72572" lon="2.54345">
        <ele>43.43</ele>
        <time>2021-07-20T11:22:17Z</time>
      </trkpt>
      <trkpt lat="48.72566" lon="2.54361">
        <ele>43.25</ele>
        <time>2021-07-20T11:22:29Z</time>
      </trkpt>
      <trkpt lat="48.72563" lon="2.54371">
        <ele>42.12</ele>
        <time>2021-07-20T11:22:39Z</time>
      </trkpt>
      <trkpt lat="48.72556" lon="2.5437">
        <ele>41.98</ele>
        <time>2021-07-20T11:22:49Z</time>
      </trkpt>
      <trkpt lat="48.72548" lon="2.54367">
        <ele>40.84</ele>
        <time>2021-07-20T11:23:12Z</time>
      </trkpt>
      <trkpt lat="48.72558" lon="2.54375">
        <ele>40.73</ele>
        <time>2021-07-20T11:23:19Z</time>
      </trkpt>
      <trkpt lat="48.72526" lon="2.54343">
        <ele>40.51</ele>
        <time>2021-07-20T11:23:34Z</time>
      </trkpt>
      <trkpt lat="48.72523" lon="2.54338">
        <ele>40.47</ele>
        <time>2021-07-20T11:23:38Z</time>
      </trkpt>
      <trkpt lat="48.72517" lon="2.54331">
        <ele>40.36</ele>
        <time>2021-07-20T11:23:47Z</time>
      </trkpt>
      <trkpt lat="48.7251" lon="2.54328">
        <ele>40.18</ele>
        <time>2021-07-20T11:23:59Z</time>
      </trkpt>
      <trkpt lat="48.72499" lon="2.54326">
        <ele>40.05</ele>
        <time>2021-07-20T11:24:10Z</time>
      </trkpt>
      <trkpt lat="48.72489" lon="2.54333">
        <ele>39.96</ele>
        <time>2021-07-20T11:24:21Z</time>
      </trkpt>
      <trkpt lat="48.72482" lon="2.54342">
        <ele>39.83</ele>
        <time>2021-07-20T11:24:33Z</time>
      </trkpt>
      <trkpt lat="48.72473" lon="2.54353">
        <ele>39.73</ele>
        <time>2021-07-20T11:24:43Z</time>
      </trkpt>
      <trkpt lat="48.72459" lon="2.54367">
        <ele>39.68</ele>
        <time>2021-07-20T11:24:56Z</time>
      </trkpt>
      <trkpt lat="48.7245" lon="2.54377">
        <ele>39.64</ele>
        <time>2021-07-20T11:25:08Z</time>
      </trkpt>
      <trkpt lat="48.72436" lon="2.54385">
        <ele>39.57</ele>
        <time>2021-07-20T11:25:19Z</time>
      </trkpt>
      <trkpt lat="48.72429" lon="2.5439">
        <ele>39.55</ele>
        <time>2021-07-20T11:25:26Z</time>
      </trkpt>
      <trkpt lat="48.72419" lon="2.54395">
        <ele>39.52</ele>
        <time>2021-07-20T11:25:35Z</time>
      </trkpt>
      <trkpt lat="48.72413" lon="2.54398">
        <ele>39.48</ele>
        <time>2021-07-20T11:25:42Z</time>
      </trkpt>
      <trkpt lat="48.72398" lon="2.54407">
        <ele>39.38</ele>
        <time>2021-07-20T11:25:54Z</time>
      </trkpt>
      <trkpt lat="48.72386" lon="2.54419">
        <ele>39.34</ele>
        <time>2021-07-20T11:26:06Z</time>
      </trkpt>
      <trkpt lat="48.72375" lon="2.54424">
        <ele>38.26</ele>
        <time>2021-07-20T11:26:17Z</time>
      </trkpt>
      <trkpt lat="48.72369" lon="2.54427">
        <ele>38.22</ele>
        <time>2021-07-20T11:26:23Z</time>
      </trkpt>
      <trkpt lat="48.72364" lon="2.54429">
        <ele>38.2</ele>
        <time>2021-07-20T11:26:28Z</time>
      </trkpt>
      <trkpt lat="48.72362" lon="2.54432">
        <ele>38.2</ele>
        <time>2021-07-20T11:26:31Z</time>
      </trkpt>
      <trkpt lat="48.72357" lon="2.5444">
        <ele>38.12</ele>
        <time>2021-07-20T11:26:39Z</time>
      </trkpt>
      <trkpt lat="48.72347" lon="2.54448">
        <ele>38.07</ele>
        <time>2021-07-20T11:26:48Z</time>
      </trkpt>
      <trkpt lat="48.72328" lon="2.54454">
        <ele>37.97</ele>
        <time>2021-07-20T11:27:01Z</time>
      </trkpt>
      <trkpt lat="48.72318" lon="2.54455">
        <ele>37.86</ele>
        <time>2021-07-20T11:27:09Z</time>
      </trkpt>
      <trkpt lat="48.72307" lon="2.54454">
        <ele>37.85</ele>
        <time>2021-07-20T11:27:16Z</time>
      </trkpt>
      <trkpt lat="48.72303" lon="2.5445">
        <ele>37.8</ele>
        <time>2021-07-20T11:27:23Z</time>
      </trkpt>
      <trkpt lat="48.72303" lon="2.5445">
        <ele>37.79</ele>
        <time>2021-07-20T11:27:24Z</time>
      </trkpt>
      <trkpt lat="48.72294" lon="2.54443">
        <ele>37.73</ele>
        <time>2021-07-20T11:27:34Z</time>
      </trkpt>
      <trkpt lat="48.72293" lon="2.54442">
        <ele>37.72</ele>
        <time>2021-07-20T11:27:36Z</time>
      </trkpt>
      <trkpt lat="48.72284" lon="2.54433">
        <ele>37.66</ele>
        <time>2021-07-20T11:27:47Z</time>
      </trkpt>
      <trkpt lat="48.72279" lon="2.54419">
        <ele>37.58</ele>
        <time>2021-07-20T11:27:58Z</time>
      </trkpt>
      <trkpt lat="48.72273" lon="2.54401">
        <ele>37.52</ele>
        <time>2021-07-20T11:28:10Z</time>
      </trkpt>
      <trkpt lat="48.72267" lon="2.54381">
        <ele>37.46</ele>
        <time>2021-07-20T11:28:23Z</time>
      </trkpt>
      <trkpt lat="48.72256" lon="2.5436">
        <ele>37.39</ele>
        <time>2021-07-20T11:28:36Z</time>
      </trkpt>
      <trkpt lat="48.72247" lon="2.54353">
        <ele>37.32</ele>
        <time>2021-07-20T11:28:49Z</time>
      </trkpt>
      <trkpt lat="48.72242" lon="2.5435">
        <ele>37.31</ele>
        <time>2021-07-20T11:28:53Z</time>
      </trkpt>
      <trkpt lat="48.7223" lon="2.54346">
        <ele>37.22</ele>
        <time>2021-07-20T11:29:05Z</time>
      </trkpt>
      <trkpt lat="48.7222" lon="2.5434">
        <ele>37.15</ele>
        <time>2021-07-20T11:29:17Z</time>
      </trkpt>
      <trkpt lat="48.72209" lon="2.54333">
        <ele>37.07</ele>
        <time>2021-07-20T11:29:28Z</time>
      </trkpt>
      <trkpt lat="48.72194" lon="2.54325">
        <ele>36.92</ele>
        <time>2021-07-20T11:29:43Z</time>
      </trkpt>
      <trkpt lat="48.72177" lon="2.54321">
        <ele>36.81</ele>
        <time>2021-07-20T11:29:56Z</time>
      </trkpt>
      <trkpt lat="48.72167" lon="2.54322">
        <ele>36.73</ele>
        <time>2021-07-20T11:30:05Z</time>
      </trkpt>
      <trkpt lat="48.72157" lon="2.54319">
        <ele>36.66</ele>
        <time>2021-07-20T11:30:13Z</time>
      </trkpt>
      <trkpt lat="48.72145" lon="2.54317">
        <ele>36.54</ele>
        <time>2021-07-20T11:30:24Z</time>
      </trkpt>
      <trkpt lat="48.72132" lon="2.54312">
        <ele>36.38</ele>
        <time>2021-07-20T11:30:37Z</time>
      </trkpt>
      <trkpt lat="48.72119" lon="2.54305">
        <ele>36.24</ele>
        <time>2021-07-20T11:30:50Z</time>
      </trkpt>
      <trkpt lat="48.72106" lon="2.54295">
        <ele>36.09</ele>
        <time>2021-07-20T11:31:02Z</time>
      </trkpt>
      <trkpt lat="48.72106" lon="2.54294">
        <ele>36.09</ele>
        <time>2021-07-20T11:31:03Z</time>
      </trkpt>
      <trkpt lat="48.72102" lon="2.54291">
        <ele>38.47</ele>
        <time>2021-07-20T11:31:06Z</time>
      </trkpt>
      <trkpt lat="48.72096" lon="2.54287">
        <ele>38.37</ele>
        <time>2021-07-20T11:31:13Z</time>
      </trkpt>
      <trkpt lat="48.72088" lon="2.54289">
        <ele>38.28</ele>
        <time>2021-07-20T11:31:21Z</time>
      </trkpt>
      <trkpt lat="48.72078" lon="2.54295">
        <ele>38.94</ele>
        <time>2021-07-20T11:31:34Z</time>
      </trkpt>
      <trkpt lat="48.72067" lon="2.543">
        <ele>38.73</ele>
        <time>2021-07-20T11:31:48Z</time>
      </trkpt>
      <trkpt lat="48.72054" lon="2.5431">
        <ele>38.6</ele>
        <time>2021-07-20T11:31:59Z</time>
      </trkpt>
      <trkpt lat="48.72053" lon="2.54315">
        <ele>38.58</ele>
        <time>2021-07-20T11:32:07Z</time>
      </trkpt>
      <trkpt lat="48.72046" lon="2.54323">
        <ele>38.55</ele>
        <time>2021-07-20T11:32:15Z</time>
      </trkpt>
      <trkpt lat="48.72037" lon="2.54324">
        <ele>38.55</ele>
        <time>2021-07-20T11:32:25Z</time>
      </trkpt>
      <trkpt lat="48.72034" lon="2.54319">
        <ele>38.55</ele>
        <time>2021-07-20T11:32:33Z</time>
      </trkpt>
      <trkpt lat="48.7203" lon="2.54316">
        <ele>38.55</ele>
        <time>2021-07-20T11:32:37Z</time>
      </trkpt>
      <trkpt lat="48.72018" lon="2.54313">
        <ele>38.56</ele>
        <time>2021-07-20T11:32:47Z</time>
      </trkpt>
      <trkpt lat="48.72011" lon="2.54308">
        <ele>38.56</ele>
        <time>2021-07-20T11:32:54Z</time>
      </trkpt>
      <trkpt lat="48.7201" lon="2.54306">
        <ele>38.56</ele>
        <time>2021-07-20T11:32:56Z</time>
      </trkpt>
      <trkpt lat="48.71998" lon="2.5429">
        <ele>38.55</ele>
        <time>2021-07-20T11:33:07Z</time>
      </trkpt>
      <trkpt lat="48.71984" lon="2.54286">
        <ele>38.59</ele>
        <time>2021-07-20T11:33:19Z</time>
      </trkpt>
      <trkpt lat="48.71981" lon="2.54283">
        <ele>36.25</ele>
        <time>2021-07-20T11:33:22Z</time>
      </trkpt>
      <trkpt lat="48.71971" lon="2.54277">
        <ele>36.29</ele>
        <time>2021-07-20T11:33:32Z</time>
      </trkpt>
      <trkpt lat="48.71964" lon="2.54265">
        <ele>36.33</ele>
        <time>2021-07-20T11:33:44Z</time>
      </trkpt>
      <trkpt lat="48.71963" lon="2.54258">
        <ele>36.35</ele>
        <time>2021-07-20T11:33:52Z</time>
      </trkpt>
      <trkpt lat="48.71959" lon="2.54246">
        <ele>36.36</ele>
        <time>2021-07-20T11:34:03Z</time>
      </trkpt>
      <trkpt lat="48.7195" lon="2.54231">
        <ele>36.36</ele>
        <time>2021-07-20T11:34:12Z</time>
      </trkpt>
      <trkpt lat="48.71945" lon="2.54222">
        <ele>36.36</ele>
        <time>2021-07-20T11:34:18Z</time>
      </trkpt>
      <trkpt lat="48.71938" lon="2.54206">
        <ele>35.26</ele>
        <time>2021-07-20T11:34:31Z</time>
      </trkpt>
      <trkpt lat="48.71932" lon="2.54191">
        <ele>35.24</ele>
        <time>2021-07-20T11:34:42Z</time>
      </trkpt>
      <trkpt lat="48.71925" lon="2.54177">
        <ele>35.22</ele>
        <time>2021-07-20T11:34:52Z</time>
      </trkpt>
      <trkpt lat="48.71917" lon="2.54158">
        <ele>35.14</ele>
        <time>2021-07-20T11:35:05Z</time>
      </trkpt>
      <trkpt lat="48.71914" lon="2.54141">
        <ele>35.09</ele>
        <time>2021-07-20T11:35:16Z</time>
      </trkpt>
      <trkpt lat="48.71912" lon="2.54126">
        <ele>34.02</ele>
        <time>2021-07-20T11:35:25Z</time>
      </trkpt>
      <trkpt lat="48.71907" lon="2.5411">
        <ele>33.97</ele>
        <time>2021-07-20T11:35:36Z</time>
      </trkpt>
      <trkpt lat="48.71906" lon="2.54096">
        <ele>33.93</ele>
        <time>2021-07-20T11:35:46Z</time>
      </trkpt>
      <trkpt lat="48.71904" lon="2.54083">
        <ele>33.89</ele>
        <time>2021-07-20T11:35:57Z</time>
      </trkpt>
      <trkpt lat="48.71902" lon="2.5407">
        <ele>33.86</ele>
        <time>2021-07-20T11:36:05Z</time>
      </trkpt>
      <trkpt lat="48.71894" lon="2.54057">
        <ele>33.79</ele>
        <time>2021-07-20T11:36:15Z</time>
      </trkpt>
      <trkpt lat="48.71888" lon="2.54045">
        <ele>33.75</ele>
        <time>2021-07-20T11:36:23Z</time>
      </trkpt>
      <trkpt lat="48.71881" lon="2.54039">
        <ele>33.71</ele>
        <time>2021-07-20T11:36:29Z</time>
      </trkpt>
      <trkpt lat="48.71867" lon="2.54026">
        <ele>33.67</ele>
        <time>2021-07-20T11:36:43Z</time>
      </trkpt>
      <trkpt lat="48.71854" lon="2.54014">
        <ele>33.7</ele>
        <time>2021-07-20T11:36:54Z</time>
      </trkpt>
      <trkpt lat="48.71844" lon="2.53999">
        <ele>33.64</ele>
        <time>2021-07-20T11:37:06Z</time>
      </trkpt>
      <trkpt lat="48.71843" lon="2.53996">
        <ele>33.63</ele>
        <time>2021-07-20T11:37:08Z</time>
      </trkpt>
      <trkpt lat="48.71841" lon="2.53984">
        <ele>33.62</ele>
        <time>2021-07-20T11:37:17Z</time>
      </trkpt>
      <trkpt lat="48.71837" lon="2.53973">
        <ele>33.59</ele>
        <time>2021-07-20T11:37:25Z</time>
      </trkpt>
      <trkpt lat="48.71837" lon="2.53972">
        <ele>33.58</ele>
        <time>2021-07-20T11:37:26Z</time>
      </trkpt>
      <trkpt lat="48.71823" lon="2.53954">
        <ele>33.46</ele>
        <time>2021-07-20T11:37:39Z</time>
      </trkpt>
      <trkpt lat="48.71815" lon="2.53947">
        <ele>33.51</ele>
        <time>2021-07-20T11:37:50Z</time>
      </trkpt>
      <trkpt lat="48.71807" lon="2.5394">
        <ele>33.54</ele>
        <time>2021-07-20T11:37:58Z</time>
      </trkpt>
      <trkpt lat="48.71794" lon="2.53928">
        <ele>33.55</ele>
        <time>2021-07-20T11:38:10Z</time>
      </trkpt>
      <trkpt lat="48.71783" lon="2.53915">
        <ele>33.6</ele>
        <time>2021-07-20T11:38:23Z</time>
      </trkpt>
      <trkpt lat="48.71774" lon="2.53903">
        <ele>33.65</ele>
        <time>2021-07-20T11:38:33Z</time>
      </trkpt>
      <trkpt lat="48.71768" lon="2.53895">
        <ele>33.73</ele>
        <time>2021-07-20T11:38:43Z</time>
      </trkpt>
      <trkpt lat="48.71763" lon="2.53888">
        <ele>33.72</ele>
        <time>2021-07-20T11:38:52Z</time>
      </trkpt>
      <trkpt lat="48.71755" lon="2.53872">
        <ele>33.77</ele>
        <time>2021-07-20T11:39:03Z</time>
      </trkpt>
      <trkpt lat="48.71747" lon="2.5386">
        <ele>33.81</ele>
        <time>2021-07-20T11:39:14Z</time>
      </trkpt>
      <trkpt lat="48.7174" lon="2.53849">
        <ele>33.84</ele>
        <time>2021-07-20T11:39:24Z</time>
      </trkpt>
      <trkpt lat="48.71733" lon="2.53835">
        <ele>33.85</ele>
        <time>2021-07-20T11:39:36Z</time>
      </trkpt>
      <trkpt lat="48.71725" lon="2.53832">
        <ele>33.86</ele>
        <time>2021-07-20T11:39:46Z</time>
      </trkpt>
      <trkpt lat="48.71722" lon="2.53824">
        <ele>33.87</ele>
        <time>2021-07-20T11:39:55Z</time>
      </trkpt>
      <trkpt lat="48.71719" lon="2.53819">
        <ele>33.89</ele>
        <time>2021-07-20T11:40:03Z</time>
      </trkpt>
      <trkpt lat="48.71715" lon="2.5381">
        <ele>33.88</ele>
        <time>2021-07-20T11:40:10Z</time>
      </trkpt>
      <trkpt lat="48.71711" lon="2.538">
        <ele>33.86</ele>
        <time>2021-07-20T11:40:18Z</time>
      </trkpt>
      <trkpt lat="48.71709" lon="2.5379">
        <ele>33.9</ele>
        <time>2021-07-20T11:40:27Z</time>
      </trkpt>
      <trkpt lat="48.71704" lon="2.5378">
        <ele>33.89</ele>
        <time>2021-07-20T11:40:35Z</time>
      </trkpt>
      <trkpt lat="48.71698" lon="2.53769">
        <ele>33.87</ele>
        <time>2021-07-20T11:40:43Z</time>
      </trkpt>
      <trkpt lat="48.71694" lon="2.53758">
        <ele>33.88</ele>
        <time>2021-07-20T11:40:51Z</time>
      </trkpt>
      <trkpt lat="48.71691" lon="2.53751">
        <ele>33.83</ele>
        <time>2021-07-20T11:40:55Z</time>
      </trkpt>
      <trkpt lat="48.71687" lon="2.53735">
        <ele>33.81</ele>
        <time>2021-07-20T11:41:05Z</time>
      </trkpt>
      <trkpt lat="48.71685" lon="2.53726">
        <ele>36.22</ele>
        <time>2021-07-20T11:41:11Z</time>
      </trkpt>
      <trkpt lat="48.71684" lon="2.53716">
        <ele>36.34</ele>
        <time>2021-07-20T11:41:19Z</time>
      </trkpt>
      <trkpt lat="48.71682" lon="2.53712">
        <ele>36.34</ele>
        <time>2021-07-20T11:41:22Z</time>
      </trkpt>
      <trkpt lat="48.71679" lon="2.53698">
        <ele>37.38</ele>
        <time>2021-07-20T11:41:34Z</time>
      </trkpt>
      <trkpt lat="48.71679" lon="2.53697">
        <ele>37.38</ele>
        <time>2021-07-20T11:41:35Z</time>
      </trkpt>
      <trkpt lat="48.71679" lon="2.53683">
        <ele>37.31</ele>
        <time>2021-07-20T11:41:44Z</time>
      </trkpt>
      <trkpt lat="48.71677" lon="2.53677">
        <ele>37.34</ele>
        <time>2021-07-20T11:41:49Z</time>
      </trkpt>
      <trkpt lat="48.71669" lon="2.53659">
        <ele>37.47</ele>
        <time>2021-07-20T11:42:02Z</time>
      </trkpt>
      <trkpt lat="48.71664" lon="2.53647">
        <ele>37.53</ele>
        <time>2021-07-20T11:42:13Z</time>
      </trkpt>
      <trkpt lat="48.71661" lon="2.53639">
        <ele>37.56</ele>
        <time>2021-07-20T11:42:22Z</time>
      </trkpt>
      <trkpt lat="48.7166" lon="2.53631">
        <ele>35.25</ele>
        <time>2021-07-20T11:42:27Z</time>
      </trkpt>
      <trkpt lat="48.71663" lon="2.5362">
        <ele>35.34</ele>
        <time>2021-07-20T11:42:37Z</time>
      </trkpt>
      <trkpt lat="48.71663" lon="2.53617">
        <ele>35.35</ele>
        <time>2021-07-20T11:42:39Z</time>
      </trkpt>
      <trkpt lat="48.71669" lon="2.53601">
        <ele>33.7</ele>
        <time>2021-07-20T11:42:48Z</time>
      </trkpt>
      <trkpt lat="48.71672" lon="2.53588">
        <ele>33.72</ele>
        <time>2021-07-20T11:42:57Z</time>
      </trkpt>
      <trkpt lat="48.71674" lon="2.53574">
        <ele>33.78</ele>
        <time>2021-07-20T11:43:06Z</time>
      </trkpt>
      <trkpt lat="48.71676" lon="2.53558">
        <ele>33.9</ele>
        <time>2021-07-20T11:43:16Z</time>
      </trkpt>
      <trkpt lat="48.71674" lon="2.53541">
        <ele>33.94</ele>
        <time>2021-07-20T11:43:25Z</time>
      </trkpt>
      <trkpt lat="48.71672" lon="2.53526">
        <ele>33.92</ele>
        <time>2021-07-20T11:43:33Z</time>
      </trkpt>
      <trkpt lat="48.71672" lon="2.53515">
        <ele>33.96</ele>
        <time>2021-07-20T11:43:40Z</time>
      </trkpt>
      <trkpt lat="48.71671" lon="2.53501">
        <ele>34</ele>
        <time>2021-07-20T11:43:49Z</time>
      </trkpt>
      <trkpt lat="48.71669" lon="2.53488">
        <ele>34.07</ele>
        <time>2021-07-20T11:43:57Z</time>
      </trkpt>
      <trkpt lat="48.71661" lon="2.53468">
        <ele>34.08</ele>
        <time>2021-07-20T11:44:08Z</time>
      </trkpt>
      <trkpt lat="48.71653" lon="2.53451">
        <ele>33.35</ele>
        <time>2021-07-20T11:44:19Z</time>
      </trkpt>
      <trkpt lat="48.71647" lon="2.53435">
        <ele>33.42</ele>
        <time>2021-07-20T11:44:32Z</time>
      </trkpt>
      <trkpt lat="48.71639" lon="2.53416">
        <ele>33.47</ele>
        <time>2021-07-20T11:44:44Z</time>
      </trkpt>
      <trkpt lat="48.71631" lon="2.53399">
        <ele>33.51</ele>
        <time>2021-07-20T11:44:56Z</time>
      </trkpt>
      <trkpt lat="48.71625" lon="2.5338">
        <ele>33.58</ele>
        <time>2021-07-20T11:45:08Z</time>
      </trkpt>
      <trkpt lat="48.71619" lon="2.53367">
        <ele>33.59</ele>
        <time>2021-07-20T11:45:18Z</time>
      </trkpt>
      <trkpt lat="48.71616" lon="2.53356">
        <ele>33.59</ele>
        <time>2021-07-20T11:45:26Z</time>
      </trkpt>
      <trkpt lat="48.71611" lon="2.53346">
        <ele>33.63</ele>
        <time>2021-07-20T11:45:32Z</time>
      </trkpt>
      <trkpt lat="48.71606" lon="2.53336">
        <ele>33.66</ele>
        <time>2021-07-20T11:45:41Z</time>
      </trkpt>
      <trkpt lat="48.71602" lon="2.53324">
        <ele>33.63</ele>
        <time>2021-07-20T11:45:50Z</time>
      </trkpt>
      <trkpt lat="48.71598" lon="2.5331">
        <ele>33.6</ele>
        <time>2021-07-20T11:45:59Z</time>
      </trkpt>
      <trkpt lat="48.71594" lon="2.53299">
        <ele>33.62</ele>
        <time>2021-07-20T11:46:07Z</time>
      </trkpt>
      <trkpt lat="48.71592" lon="2.53284">
        <ele>33.58</ele>
        <time>2021-07-20T11:46:15Z</time>
      </trkpt>
      <trkpt lat="48.71588" lon="2.53268">
        <ele>33.54</ele>
        <time>2021-07-20T11:46:25Z</time>
      </trkpt>
      <trkpt lat="48.71581" lon="2.53255">
        <ele>33.49</ele>
        <time>2021-07-20T11:46:33Z</time>
      </trkpt>
      <trkpt lat="48.71575" lon="2.53242">
        <ele>33.46</ele>
        <time>2021-07-20T11:46:42Z</time>
      </trkpt>
      <trkpt lat="48.71571" lon="2.53233">
        <ele>33.41</ele>
        <time>2021-07-20T11:46:48Z</time>
      </trkpt>
      <trkpt lat="48.71564" lon="2.53216">
        <ele>33.3</ele>
        <time>2021-07-20T11:46:58Z</time>
      </trkpt>
      <trkpt lat="48.7156" lon="2.53201">
        <ele>33.17</ele>
        <time>2021-07-20T11:47:06Z</time>
      </trkpt>
      <trkpt lat="48.71554" lon="2.53189">
        <ele>33.08</ele>
        <time>2021-07-20T11:47:15Z</time>
      </trkpt>
      <trkpt lat="48.7155" lon="2.53177">
        <ele>32.99</ele>
        <time>2021-07-20T11:47:22Z</time>
      </trkpt>
      <trkpt lat="48.71547" lon="2.53166">
        <ele>32.94</ele>
        <time>2021-07-20T11:47:29Z</time>
      </trkpt>
      <trkpt lat="48.71547" lon="2.53157">
        <ele>32.87</ele>
        <time>2021-07-20T11:47:36Z</time>
      </trkpt>
      <trkpt lat="48.71544" lon="2.53139">
        <ele>32.8</ele>
        <time>2021-07-20T11:47:45Z</time>
      </trkpt>
      <trkpt lat="48.7153" lon="2.53118">
        <ele>32.58</ele>
        <time>2021-07-20T11:47:56Z</time>
      </trkpt>
      <trkpt lat="48.71526" lon="2.53107">
        <ele>31.61</ele>
        <time>2021-07-20T11:48:05Z</time>
      </trkpt>
      <trkpt lat="48.71522" lon="2.53097">
        <ele>31.48</ele>
        <time>2021-07-20T11:48:16Z</time>
      </trkpt>
      <trkpt lat="48.7152" lon="2.53086">
        <ele>31.4</ele>
        <time>2021-07-20T11:48:25Z</time>
      </trkpt>
      <trkpt lat="48.71514" lon="2.53078">
        <ele>31.32</ele>
        <time>2021-07-20T11:48:35Z</time>
      </trkpt>
      <trkpt lat="48.71504" lon="2.53064">
        <ele>31.26</ele>
        <time>2021-07-20T11:48:45Z</time>
      </trkpt>
      <trkpt lat="48.71497" lon="2.53056">
        <ele>31.18</ele>
        <time>2021-07-20T11:48:54Z</time>
      </trkpt>
      <trkpt lat="48.71494" lon="2.5305">
        <ele>31.12</ele>
        <time>2021-07-20T11:49:02Z</time>
      </trkpt>
      <trkpt lat="48.7149" lon="2.53046">
        <ele>31.06</ele>
        <time>2021-07-20T11:49:12Z</time>
      </trkpt>
      <trkpt lat="48.71488" lon="2.53047">
        <ele>30.98</ele>
        <time>2021-07-20T11:49:28Z</time>
      </trkpt>
      <trkpt lat="48.71486" lon="2.53048">
        <ele>30.96</ele>
        <time>2021-07-20T11:49:47Z</time>
      </trkpt>
      <trkpt lat="48.71485" lon="2.53049">
        <ele>30.88</ele>
        <time>2021-07-20T11:50:04Z</time>
      </trkpt>
      <trkpt lat="48.71485" lon="2.53048">
        <ele>30.88</ele>
        <time>2021-07-20T11:50:21Z</time>
      </trkpt>
      <trkpt lat="48.71482" lon="2.53043">
        <ele>30.91</ele>
        <time>2021-07-20T11:50:33Z</time>
      </trkpt>
      <trkpt lat="48.71477" lon="2.5303">
        <ele>30.89</ele>
        <time>2021-07-20T11:50:44Z</time>
      </trkpt>
      <trkpt lat="48.71474" lon="2.53019">
        <ele>30.85</ele>
        <time>2021-07-20T11:50:55Z</time>
      </trkpt>
      <trkpt lat="48.71469" lon="2.53008">
        <ele>30.84</ele>
        <time>2021-07-20T11:51:05Z</time>
      </trkpt>
      <trkpt lat="48.71464" lon="2.53001">
        <ele>30.82</ele>
        <time>2021-07-20T11:51:13Z</time>
      </trkpt>
      <trkpt lat="48.71458" lon="2.52989">
        <ele>30.84</ele>
        <time>2021-07-20T11:51:24Z</time>
      </trkpt>
      <trkpt lat="48.71454" lon="2.52974">
        <ele>30.83</ele>
        <time>2021-07-20T11:51:35Z</time>
      </trkpt>
      <trkpt lat="48.71439" lon="2.52952">
        <ele>30.79</ele>
        <time>2021-07-20T11:51:45Z</time>
      </trkpt>
      <trkpt lat="48.71435" lon="2.52941">
        <ele>30.7</ele>
        <time>2021-07-20T11:51:53Z</time>
      </trkpt>
      <trkpt lat="48.7143" lon="2.52931">
        <ele>30.61</ele>
        <time>2021-07-20T11:52:01Z</time>
      </trkpt>
      <trkpt lat="48.71426" lon="2.52922">
        <ele>30.6</ele>
        <time>2021-07-20T11:52:09Z</time>
      </trkpt>
      <trkpt lat="48.71425" lon="2.52909">
        <ele>30.54</ele>
        <time>2021-07-20T11:52:20Z</time>
      </trkpt>
      <trkpt lat="48.71424" lon="2.52899">
        <ele>30.45</ele>
        <time>2021-07-20T11:52:27Z</time>
      </trkpt>
      <trkpt lat="48.71422" lon="2.52887">
        <ele>30.38</ele>
        <time>2021-07-20T11:52:34Z</time>
      </trkpt>
      <trkpt lat="48.71418" lon="2.5287">
        <ele>30.24</ele>
        <time>2021-07-20T11:52:44Z</time>
      </trkpt>
      <trkpt lat="48.71418" lon="2.5286">
        <ele>30.19</ele>
        <time>2021-07-20T11:52:50Z</time>
      </trkpt>
      <trkpt lat="48.71416" lon="2.52844">
        <ele>30.08</ele>
        <time>2021-07-20T11:53:01Z</time>
      </trkpt>
      <trkpt lat="48.71413" lon="2.52831">
        <ele>30</ele>
        <time>2021-07-20T11:53:09Z</time>
      </trkpt>
      <trkpt lat="48.71409" lon="2.52815">
        <ele>29.88</ele>
        <time>2021-07-20T11:53:18Z</time>
      </trkpt>
      <trkpt lat="48.71408" lon="2.52813">
        <ele>29.88</ele>
        <time>2021-07-20T11:53:19Z</time>
      </trkpt>
      <trkpt lat="48.71409" lon="2.52791">
        <ele>29.71</ele>
        <time>2021-07-20T11:53:30Z</time>
      </trkpt>
      <trkpt lat="48.71407" lon="2.52776">
        <ele>29.58</ele>
        <time>2021-07-20T11:53:38Z</time>
      </trkpt>
      <trkpt lat="48.71406" lon="2.52766">
        <ele>29.49</ele>
        <time>2021-07-20T11:53:45Z</time>
      </trkpt>
      <trkpt lat="48.71406" lon="2.52763">
        <ele>31.72</ele>
        <time>2021-07-20T11:53:48Z</time>
      </trkpt>
      <trkpt lat="48.71402" lon="2.52754">
        <ele>31.61</ele>
        <time>2021-07-20T11:53:57Z</time>
      </trkpt>
      <trkpt lat="48.71401" lon="2.52745">
        <ele>31.45</ele>
        <time>2021-07-20T11:54:09Z</time>
      </trkpt>
      <trkpt lat="48.71407" lon="2.52736">
        <ele>31.34</ele>
        <time>2021-07-20T11:54:21Z</time>
      </trkpt>
      <trkpt lat="48.71416" lon="2.52731">
        <ele>31.19</ele>
        <time>2021-07-20T11:54:34Z</time>
      </trkpt>
      <trkpt lat="48.71418" lon="2.52727">
        <ele>31.1</ele>
        <time>2021-07-20T11:54:41Z</time>
      </trkpt>
      <trkpt lat="48.71421" lon="2.52714">
        <ele>31.01</ele>
        <time>2021-07-20T11:54:49Z</time>
      </trkpt>
      <trkpt lat="48.71424" lon="2.52711">
        <ele>30.95</ele>
        <time>2021-07-20T11:54:59Z</time>
      </trkpt>
      <trkpt lat="48.71424" lon="2.52704">
        <ele>30.86</ele>
        <time>2021-07-20T11:55:09Z</time>
      </trkpt>
      <trkpt lat="48.71425" lon="2.52687">
        <ele>30.8</ele>
        <time>2021-07-20T11:55:18Z</time>
      </trkpt>
      <trkpt lat="48.71425" lon="2.5268">
        <ele>30.75</ele>
        <time>2021-07-20T11:55:21Z</time>
      </trkpt>
      <trkpt lat="48.71425" lon="2.52659">
        <ele>30.77</ele>
        <time>2021-07-20T11:55:32Z</time>
      </trkpt>
      <trkpt lat="48.71425" lon="2.52657">
        <ele>28.54</ele>
        <time>2021-07-20T11:55:34Z</time>
      </trkpt>
      <trkpt lat="48.71425" lon="2.52652">
        <ele>28.51</ele>
        <time>2021-07-20T11:55:37Z</time>
      </trkpt>
      <trkpt lat="48.71421" lon="2.52639">
        <ele>28.55</ele>
        <time>2021-07-20T11:55:47Z</time>
      </trkpt>
      <trkpt lat="48.71419" lon="2.52628">
        <ele>28.57</ele>
        <time>2021-07-20T11:55:56Z</time>
      </trkpt>
      <trkpt lat="48.71415" lon="2.52619">
        <ele>27.64</ele>
        <time>2021-07-20T11:56:03Z</time>
      </trkpt>
      <trkpt lat="48.71407" lon="2.52612">
        <ele>27.65</ele>
        <time>2021-07-20T11:56:12Z</time>
      </trkpt>
      <trkpt lat="48.71399" lon="2.52605">
        <ele>27.69</ele>
        <time>2021-07-20T11:56:20Z</time>
      </trkpt>
      <trkpt lat="48.7139" lon="2.52593">
        <ele>27.74</ele>
        <time>2021-07-20T11:56:30Z</time>
      </trkpt>
      <trkpt lat="48.71378" lon="2.5258">
        <ele>27.75</ele>
        <time>2021-07-20T11:56:42Z</time>
      </trkpt>
      <trkpt lat="48.71373" lon="2.52574">
        <ele>27.71</ele>
        <time>2021-07-20T11:56:47Z</time>
      </trkpt>
      <trkpt lat="48.71367" lon="2.52562">
        <ele>27.03</ele>
        <time>2021-07-20T11:56:56Z</time>
      </trkpt>
      <trkpt lat="48.71361" lon="2.52552">
        <ele>27.05</ele>
        <time>2021-07-20T11:57:03Z</time>
      </trkpt>
      <trkpt lat="48.71357" lon="2.52543">
        <ele>27.07</ele>
        <time>2021-07-20T11:57:10Z</time>
      </trkpt>
      <trkpt lat="48.71355" lon="2.52538">
        <ele>27.11</ele>
        <time>2021-07-20T11:57:13Z</time>
      </trkpt>
      <trkpt lat="48.7135" lon="2.52527">
        <ele>27.14</ele>
        <time>2021-07-20T11:57:22Z</time>
      </trkpt>
      <trkpt lat="48.71344" lon="2.52514">
        <ele>27.19</ele>
        <time>2021-07-20T11:57:30Z</time>
      </trkpt>
      <trkpt lat="48.71342" lon="2.52508">
        <ele>27.21</ele>
        <time>2021-07-20T11:57:35Z</time>
      </trkpt>
      <trkpt lat="48.71338" lon="2.52488">
        <ele>27.23</ele>
        <time>2021-07-20T11:57:47Z</time>
      </trkpt>
      <trkpt lat="48.71337" lon="2.52483">
        <ele>27.28</ele>
        <time>2021-07-20T11:57:54Z</time>
      </trkpt>
      <trkpt lat="48.71338" lon="2.52474">
        <ele>27.31</ele>
        <time>2021-07-20T11:58:03Z</time>
      </trkpt>
      <trkpt lat="48.71336" lon="2.52452">
        <ele>27.37</ele>
        <time>2021-07-20T11:58:16Z</time>
      </trkpt>
      <trkpt lat="48.71333" lon="2.52436">
        <ele>27.4</ele>
        <time>2021-07-20T11:58:24Z</time>
      </trkpt>
      <trkpt lat="48.71333" lon="2.5243">
        <ele>27.41</ele>
        <time>2021-07-20T11:58:27Z</time>
      </trkpt>
      <trkpt lat="48.71336" lon="2.52418">
        <ele>27.45</ele>
        <time>2021-07-20T11:58:34Z</time>
      </trkpt>
      <trkpt lat="48.7134" lon="2.52404">
        <ele>27.51</ele>
        <time>2021-07-20T11:58:42Z</time>
      </trkpt>
      <trkpt lat="48.71345" lon="2.52394">
        <ele>27.52</ele>
        <time>2021-07-20T11:58:48Z</time>
      </trkpt>
      <trkpt lat="48.71349" lon="2.52382">
        <ele>27.55</ele>
        <time>2021-07-20T11:58:56Z</time>
      </trkpt>
      <trkpt lat="48.71352" lon="2.52372">
        <ele>27.61</ele>
        <time>2021-07-20T11:59:04Z</time>
      </trkpt>
      <trkpt lat="48.7136" lon="2.52357">
        <ele>27.67</ele>
        <time>2021-07-20T11:59:14Z</time>
      </trkpt>
      <trkpt lat="48.71362" lon="2.52352">
        <ele>27.7</ele>
        <time>2021-07-20T11:59:18Z</time>
      </trkpt>
      <trkpt lat="48.71366" lon="2.52338">
        <ele>27.76</ele>
        <time>2021-07-20T11:59:26Z</time>
      </trkpt>
      <trkpt lat="48.71371" lon="2.52324">
        <ele>27.87</ele>
        <time>2021-07-20T11:59:35Z</time>
      </trkpt>
      <trkpt lat="48.71375" lon="2.52309">
        <ele>27.91</ele>
        <time>2021-07-20T11:59:44Z</time>
      </trkpt>
      <trkpt lat="48.71382" lon="2.52298">
        <ele>28.01</ele>
        <time>2021-07-20T11:59:53Z</time>
      </trkpt>
      <trkpt lat="48.71388" lon="2.52279">
        <ele>28.05</ele>
        <time>2021-07-20T12:00:05Z</time>
      </trkpt>
      <trkpt lat="48.71392" lon="2.52266">
        <ele>28.11</ele>
        <time>2021-07-20T12:00:13Z</time>
      </trkpt>
      <trkpt lat="48.71397" lon="2.52252">
        <ele>28.15</ele>
        <time>2021-07-20T12:00:21Z</time>
      </trkpt>
      <trkpt lat="48.71398" lon="2.52249">
        <ele>28.16</ele>
        <time>2021-07-20T12:00:23Z</time>
      </trkpt>
      <trkpt lat="48.71401" lon="2.52238">
        <ele>27.4</ele>
        <time>2021-07-20T12:00:30Z</time>
      </trkpt>
      <trkpt lat="48.71405" lon="2.52225">
        <ele>27.45</ele>
        <time>2021-07-20T12:00:39Z</time>
      </trkpt>
      <trkpt lat="48.71407" lon="2.52218">
        <ele>27.47</ele>
        <time>2021-07-20T12:00:43Z</time>
      </trkpt>
      <trkpt lat="48.71415" lon="2.52205">
        <ele>27.56</ele>
        <time>2021-07-20T12:00:52Z</time>
      </trkpt>
      <trkpt lat="48.71416" lon="2.52204">
        <ele>27.57</ele>
        <time>2021-07-20T12:00:53Z</time>
      </trkpt>
      <trkpt lat="48.71421" lon="2.5219">
        <ele>27.64</ele>
        <time>2021-07-20T12:01:02Z</time>
      </trkpt>
      <trkpt lat="48.71424" lon="2.52178">
        <ele>27.71</ele>
        <time>2021-07-20T12:01:10Z</time>
      </trkpt>
      <trkpt lat="48.7143" lon="2.52162">
        <ele>27.77</ele>
        <time>2021-07-20T12:01:19Z</time>
      </trkpt>
      <trkpt lat="48.71436" lon="2.52147">
        <ele>27.79</ele>
        <time>2021-07-20T12:01:29Z</time>
      </trkpt>
      <trkpt lat="48.71436" lon="2.52136">
        <ele>27.82</ele>
        <time>2021-07-20T12:01:35Z</time>
      </trkpt>
      <trkpt lat="48.71433" lon="2.52117">
        <ele>27.88</ele>
        <time>2021-07-20T12:01:47Z</time>
      </trkpt>
      <trkpt lat="48.71432" lon="2.52107">
        <ele>27.92</ele>
        <time>2021-07-20T12:01:55Z</time>
      </trkpt>
      <trkpt lat="48.71426" lon="2.52099">
        <ele>27.96</ele>
        <time>2021-07-20T12:02:05Z</time>
      </trkpt>
      <trkpt lat="48.71423" lon="2.52091">
        <ele>27.96</ele>
        <time>2021-07-20T12:02:11Z</time>
      </trkpt>
      <trkpt lat="48.7142" lon="2.52074">
        <ele>27.94</ele>
        <time>2021-07-20T12:02:20Z</time>
      </trkpt>
      <trkpt lat="48.71417" lon="2.52061">
        <ele>27.91</ele>
        <time>2021-07-20T12:02:28Z</time>
      </trkpt>
      <trkpt lat="48.71413" lon="2.52051">
        <ele>27.88</ele>
        <time>2021-07-20T12:02:36Z</time>
      </trkpt>
      <trkpt lat="48.71408" lon="2.52042">
        <ele>27.79</ele>
        <time>2021-07-20T12:02:47Z</time>
      </trkpt>
      <trkpt lat="48.71403" lon="2.52042">
        <ele>27.75</ele>
        <time>2021-07-20T12:03:02Z</time>
      </trkpt>
      <trkpt lat="48.71401" lon="2.52042">
        <ele>27.66</ele>
        <time>2021-07-20T12:03:20Z</time>
      </trkpt>
      <trkpt lat="48.71394" lon="2.52043">
        <ele>27.56</ele>
        <time>2021-07-20T12:03:34Z</time>
      </trkpt>
      <trkpt lat="48.71386" lon="2.52044">
        <ele>27.51</ele>
        <time>2021-07-20T12:03:47Z</time>
      </trkpt>
      <trkpt lat="48.71375" lon="2.52047">
        <ele>27.47</ele>
        <time>2021-07-20T12:03:59Z</time>
      </trkpt>
      <trkpt lat="48.71367" lon="2.52046">
        <ele>27.44</ele>
        <time>2021-07-20T12:04:10Z</time>
      </trkpt>
      <trkpt lat="48.71357" lon="2.5205">
        <ele>26.62</ele>
        <time>2021-07-20T12:04:21Z</time>
      </trkpt>
      <trkpt lat="48.71347" lon="2.52056">
        <ele>26.57</ele>
        <time>2021-07-20T12:04:33Z</time>
      </trkpt>
      <trkpt lat="48.71332" lon="2.52058">
        <ele>26.61</ele>
        <time>2021-07-20T12:04:45Z</time>
      </trkpt>
      <trkpt lat="48.71324" lon="2.52048">
        <ele>26.59</ele>
        <time>2021-07-20T12:04:55Z</time>
      </trkpt>
      <trkpt lat="48.71314" lon="2.52045">
        <ele>26.58</ele>
        <time>2021-07-20T12:05:06Z</time>
      </trkpt>
      <trkpt lat="48.71306" lon="2.5204">
        <ele>26.59</ele>
        <time>2021-07-20T12:05:17Z</time>
      </trkpt>
      <trkpt lat="48.71302" lon="2.52032">
        <ele>26.55</ele>
        <time>2021-07-20T12:05:28Z</time>
      </trkpt>
      <trkpt lat="48.71297" lon="2.52024">
        <ele>26.52</ele>
        <time>2021-07-20T12:05:39Z</time>
      </trkpt>
      <trkpt lat="48.71296" lon="2.52012">
        <ele>26.47</ele>
        <time>2021-07-20T12:05:50Z</time>
      </trkpt>
      <trkpt lat="48.71295" lon="2.51999">
        <ele>26.43</ele>
        <time>2021-07-20T12:06:01Z</time>
      </trkpt>
      <trkpt lat="48.71294" lon="2.51986">
        <ele>26.38</ele>
        <time>2021-07-20T12:06:12Z</time>
      </trkpt>
      <trkpt lat="48.71294" lon="2.51972">
        <ele>26.32</ele>
        <time>2021-07-20T12:06:22Z</time>
      </trkpt>
      <trkpt lat="48.71295" lon="2.51947">
        <ele>26.25</ele>
        <time>2021-07-20T12:06:33Z</time>
      </trkpt>
      <trkpt lat="48.71295" lon="2.51926">
        <ele>26.16</ele>
        <time>2021-07-20T12:06:44Z</time>
      </trkpt>
      <trkpt lat="48.71293" lon="2.51906">
        <ele>26.1</ele>
        <time>2021-07-20T12:06:56Z</time>
      </trkpt>
      <trkpt lat="48.71297" lon="2.51894">
        <ele>25.22</ele>
        <time>2021-07-20T12:07:07Z</time>
      </trkpt>
      <trkpt lat="48.71304" lon="2.51879">
        <ele>25.14</ele>
        <time>2021-07-20T12:07:17Z</time>
      </trkpt>
      <trkpt lat="48.71309" lon="2.51877">
        <ele>25.09</ele>
        <time>2021-07-20T12:07:25Z</time>
      </trkpt>
      <trkpt lat="48.71315" lon="2.51872">
        <ele>25.06</ele>
        <time>2021-07-20T12:07:33Z</time>
      </trkpt>
      <trkpt lat="48.71327" lon="2.51862">
        <ele>24.98</ele>
        <time>2021-07-20T12:07:46Z</time>
      </trkpt>
      <trkpt lat="48.71332" lon="2.51856">
        <ele>24.92</ele>
        <time>2021-07-20T12:07:52Z</time>
      </trkpt>
      <trkpt lat="48.71342" lon="2.51849">
        <ele>24.82</ele>
        <time>2021-07-20T12:08:04Z</time>
      </trkpt>
      <trkpt lat="48.71345" lon="2.51846">
        <ele>24.79</ele>
        <time>2021-07-20T12:08:07Z</time>
      </trkpt>
      <trkpt lat="48.71348" lon="2.51835">
        <ele>24.73</ele>
        <time>2021-07-20T12:08:15Z</time>
      </trkpt>
      <trkpt lat="48.71356" lon="2.51824">
        <ele>24.61</ele>
        <time>2021-07-20T12:08:28Z</time>
      </trkpt>
      <trkpt lat="48.71358" lon="2.51825">
        <ele>24.58</ele>
        <time>2021-07-20T12:08:32Z</time>
      </trkpt>
      <trkpt lat="48.71371" lon="2.51814">
        <ele>24.47</ele>
        <time>2021-07-20T12:08:44Z</time>
      </trkpt>
      <trkpt lat="48.7137" lon="2.51791">
        <ele>24.37</ele>
        <time>2021-07-20T12:08:55Z</time>
      </trkpt>
      <trkpt lat="48.71369" lon="2.51776">
        <ele>24.32</ele>
        <time>2021-07-20T12:09:05Z</time>
      </trkpt>
      <trkpt lat="48.71368" lon="2.51763">
        <ele>24.27</ele>
        <time>2021-07-20T12:09:19Z</time>
      </trkpt>
      <trkpt lat="48.71368" lon="2.51761">
        <ele>24.25</ele>
        <time>2021-07-20T12:09:22Z</time>
      </trkpt>
      <trkpt lat="48.71365" lon="2.51742">
        <ele>24.25</ele>
        <time>2021-07-20T12:09:34Z</time>
      </trkpt>
      <trkpt lat="48.71361" lon="2.51729">
        <ele>24.26</ele>
        <time>2021-07-20T12:09:45Z</time>
      </trkpt>
      <trkpt lat="48.7136" lon="2.51722">
        <ele>24.27</ele>
        <time>2021-07-20T12:09:58Z</time>
      </trkpt>
      <trkpt lat="48.71356" lon="2.51707">
        <ele>24.27</ele>
        <time>2021-07-20T12:10:12Z</time>
      </trkpt>
      <trkpt lat="48.71356" lon="2.51702">
        <ele>24.31</ele>
        <time>2021-07-20T12:10:30Z</time>
      </trkpt>
      <trkpt lat="48.71356" lon="2.51702">
        <ele>24.31</ele>
        <time>2021-07-20T12:10:32Z</time>
      </trkpt>
      <trkpt lat="48.71355" lon="2.51698">
        <ele>24.35</ele>
        <time>2021-07-20T12:10:47Z</time>
      </trkpt>
      <trkpt lat="48.71353" lon="2.51699">
        <ele>24.4</ele>
        <time>2021-07-20T12:11:04Z</time>
      </trkpt>
      <trkpt lat="48.71354" lon="2.51697">
        <ele>24.46</ele>
        <time>2021-07-20T12:11:22Z</time>
      </trkpt>
      <trkpt lat="48.71351" lon="2.51689">
        <ele>24.52</ele>
        <time>2021-07-20T12:11:32Z</time>
      </trkpt>
      <trkpt lat="48.71345" lon="2.51676">
        <ele>24.56</ele>
        <time>2021-07-20T12:11:44Z</time>
      </trkpt>
      <trkpt lat="48.71337" lon="2.51664">
        <ele>24.59</ele>
        <time>2021-07-20T12:11:55Z</time>
      </trkpt>
      <trkpt lat="48.71331" lon="2.51654">
        <ele>24.6</ele>
        <time>2021-07-20T12:12:06Z</time>
      </trkpt>
      <trkpt lat="48.71326" lon="2.51637">
        <ele>23.85</ele>
        <time>2021-07-20T12:12:19Z</time>
      </trkpt>
      <trkpt lat="48.71321" lon="2.51626">
        <ele>23.84</ele>
        <time>2021-07-20T12:12:28Z</time>
      </trkpt>
      <trkpt lat="48.71317" lon="2.51608">
        <ele>23.81</ele>
        <time>2021-07-20T12:12:40Z</time>
      </trkpt>
      <trkpt lat="48.71311" lon="2.51593">
        <ele>23.76</ele>
        <time>2021-07-20T12:12:53Z</time>
      </trkpt>
      <trkpt lat="48.71308" lon="2.51578">
        <ele>23.69</ele>
        <time>2021-07-20T12:13:04Z</time>
      </trkpt>
      <trkpt lat="48.71305" lon="2.5156">
        <ele>23.61</ele>
        <time>2021-07-20T12:13:15Z</time>
      </trkpt>
      <trkpt lat="48.71303" lon="2.51543">
        <ele>23.54</ele>
        <time>2021-07-20T12:13:24Z</time>
      </trkpt>
      <trkpt lat="48.71297" lon="2.5152">
        <ele>23.45</ele>
        <time>2021-07-20T12:13:36Z</time>
      </trkpt>
      <trkpt lat="48.71293" lon="2.51504">
        <ele>23.38</ele>
        <time>2021-07-20T12:13:47Z</time>
      </trkpt>
      <trkpt lat="48.71291" lon="2.51488">
        <ele>23.31</ele>
        <time>2021-07-20T12:13:58Z</time>
      </trkpt>
      <trkpt lat="48.71284" lon="2.51472">
        <ele>23.22</ele>
        <time>2021-07-20T12:14:10Z</time>
      </trkpt>
      <trkpt lat="48.7128" lon="2.51457">
        <ele>23.14</ele>
        <time>2021-07-20T12:14:21Z</time>
      </trkpt>
      <trkpt lat="48.71266" lon="2.51434">
        <ele>23.03</ele>
        <time>2021-07-20T12:14:34Z</time>
      </trkpt>
      <trkpt lat="48.71262" lon="2.51423">
        <ele>22.95</ele>
        <time>2021-07-20T12:14:44Z</time>
      </trkpt>
      <trkpt lat="48.71261" lon="2.51404">
        <ele>22.86</ele>
        <time>2021-07-20T12:14:55Z</time>
      </trkpt>
      <trkpt lat="48.71257" lon="2.5138">
        <ele>22.75</ele>
        <time>2021-07-20T12:15:07Z</time>
      </trkpt>
      <trkpt lat="48.71252" lon="2.51366">
        <ele>22.67</ele>
        <time>2021-07-20T12:15:16Z</time>
      </trkpt>
      <trkpt lat="48.71254" lon="2.51352">
        <ele>22.59</ele>
        <time>2021-07-20T12:15:25Z</time>
      </trkpt>
      <trkpt lat="48.71262" lon="2.51333">
        <ele>21.72</ele>
        <time>2021-07-20T12:15:38Z</time>
      </trkpt>
      <trkpt lat="48.71274" lon="2.51308">
        <ele>21.59</ele>
        <time>2021-07-20T12:15:54Z</time>
      </trkpt>
      <trkpt lat="48.7128" lon="2.51297">
        <ele>21.5</ele>
        <time>2021-07-20T12:16:04Z</time>
      </trkpt>
      <trkpt lat="48.71284" lon="2.51277">
        <ele>21.4</ele>
        <time>2021-07-20T12:16:16Z</time>
      </trkpt>
      <trkpt lat="48.71287" lon="2.51258">
        <ele>21.3</ele>
        <time>2021-07-20T12:16:27Z</time>
      </trkpt>
      <trkpt lat="48.71286" lon="2.51238">
        <ele>20.34</ele>
        <time>2021-07-20T12:16:39Z</time>
      </trkpt>
      <trkpt lat="48.71286" lon="2.5122">
        <ele>20.28</ele>
        <time>2021-07-20T12:16:51Z</time>
      </trkpt>
      <trkpt lat="48.71288" lon="2.51198">
        <ele>20.12</ele>
        <time>2021-07-20T12:17:03Z</time>
      </trkpt>
      <trkpt lat="48.71288" lon="2.51174">
        <ele>20.12</ele>
        <time>2021-07-20T12:17:16Z</time>
      </trkpt>
      <trkpt lat="48.71285" lon="2.51157">
        <ele>19.94</ele>
        <time>2021-07-20T12:17:27Z</time>
      </trkpt>
      <trkpt lat="48.71282" lon="2.51132">
        <ele>19.71</ele>
        <time>2021-07-20T12:17:40Z</time>
      </trkpt>
      <trkpt lat="48.71277" lon="2.51112">
        <ele>19.62</ele>
        <time>2021-07-20T12:17:51Z</time>
      </trkpt>
      <trkpt lat="48.7127" lon="2.51092">
        <ele>19.63</ele>
        <time>2021-07-20T12:18:04Z</time>
      </trkpt>
      <trkpt lat="48.71269" lon="2.51087">
        <ele>19.55</ele>
        <time>2021-07-20T12:18:08Z</time>
      </trkpt>
      <trkpt lat="48.71268" lon="2.51066">
        <ele>19.38</ele>
        <time>2021-07-20T12:18:19Z</time>
      </trkpt>
      <trkpt lat="48.71267" lon="2.51046">
        <ele>19.36</ele>
        <time>2021-07-20T12:18:30Z</time>
      </trkpt>
      <trkpt lat="48.71266" lon="2.51027">
        <ele>18.47</ele>
        <time>2021-07-20T12:18:42Z</time>
      </trkpt>
      <trkpt lat="48.71264" lon="2.51009">
        <ele>18.32</ele>
        <time>2021-07-20T12:18:54Z</time>
      </trkpt>
      <trkpt lat="48.71263" lon="2.50989">
        <ele>18.17</ele>
        <time>2021-07-20T12:19:05Z</time>
      </trkpt>
      <trkpt lat="48.71262" lon="2.50972">
        <ele>18.24</ele>
        <time>2021-07-20T12:19:15Z</time>
      </trkpt>
      <trkpt lat="48.71261" lon="2.50953">
        <ele>18.12</ele>
        <time>2021-07-20T12:19:26Z</time>
      </trkpt>
      <trkpt lat="48.7126" lon="2.50935">
        <ele>18</ele>
        <time>2021-07-20T12:19:38Z</time>
      </trkpt>
      <trkpt lat="48.71256" lon="2.50917">
        <ele>17.86</ele>
        <time>2021-07-20T12:19:49Z</time>
      </trkpt>
      <trkpt lat="48.71257" lon="2.5089">
        <ele>16.94</ele>
        <time>2021-07-20T12:20:01Z</time>
      </trkpt>
      <trkpt lat="48.71255" lon="2.50871">
        <ele>16.81</ele>
        <time>2021-07-20T12:20:14Z</time>
      </trkpt>
      <trkpt lat="48.7125" lon="2.50853">
        <ele>16.66</ele>
        <time>2021-07-20T12:20:26Z</time>
      </trkpt>
      <trkpt lat="48.71245" lon="2.5083">
        <ele>16.47</ele>
        <time>2021-07-20T12:20:39Z</time>
      </trkpt>
      <trkpt lat="48.71242" lon="2.50815">
        <ele>16.43</ele>
        <time>2021-07-20T12:20:50Z</time>
      </trkpt>
      <trkpt lat="48.71237" lon="2.50795">
        <ele>16.43</ele>
        <time>2021-07-20T12:21:02Z</time>
      </trkpt>
      <trkpt lat="48.71225" lon="2.50779">
        <ele>16.27</ele>
        <time>2021-07-20T12:21:14Z</time>
      </trkpt>
      <trkpt lat="48.71214" lon="2.50772">
        <ele>16.17</ele>
        <time>2021-07-20T12:21:27Z</time>
      </trkpt>
      <trkpt lat="48.71206" lon="2.5076">
        <ele>15.98</ele>
        <time>2021-07-20T12:21:40Z</time>
      </trkpt>
      <trkpt lat="48.71197" lon="2.50742">
        <ele>15.07</ele>
        <time>2021-07-20T12:21:55Z</time>
      </trkpt>
      <trkpt lat="48.71191" lon="2.50729">
        <ele>14.06</ele>
        <time>2021-07-20T12:22:07Z</time>
      </trkpt>
      <trkpt lat="48.7119" lon="2.50727">
        <ele>14.07</ele>
        <time>2021-07-20T12:22:09Z</time>
      </trkpt>
      <trkpt lat="48.7119" lon="2.50718">
        <ele>14.02</ele>
        <time>2021-07-20T12:22:23Z</time>
      </trkpt>
      <trkpt lat="48.71182" lon="2.5071">
        <ele>13.86</ele>
        <time>2021-07-20T12:22:38Z</time>
      </trkpt>
      <trkpt lat="48.7118" lon="2.50705">
        <ele>13.72</ele>
        <time>2021-07-20T12:22:50Z</time>
      </trkpt>
      <trkpt lat="48.71175" lon="2.50701">
        <ele>13.66</ele>
        <time>2021-07-20T12:23:05Z</time>
      </trkpt>
      <trkpt lat="48.71169" lon="2.50697">
        <ele>13.6</ele>
        <time>2021-07-20T12:23:18Z</time>
      </trkpt>
      <trkpt lat="48.71168" lon="2.50694">
        <ele>12.76</ele>
        <time>2021-07-20T12:23:30Z</time>
      </trkpt>
      <trkpt lat="48.71171" lon="2.50682">
        <ele>12.82</ele>
        <time>2021-07-20T12:23:41Z</time>
      </trkpt>
      <trkpt lat="48.7117" lon="2.50672">
        <ele>12.82</ele>
        <time>2021-07-20T12:23:50Z</time>
      </trkpt>
      <trkpt lat="48.71169" lon="2.50669">
        <ele>12.79</ele>
        <time>2021-07-20T12:23:56Z</time>
      </trkpt>
      <trkpt lat="48.71166" lon="2.50665">
        <ele>12.78</ele>
        <time>2021-07-20T12:24:06Z</time>
      </trkpt>
      <trkpt lat="48.71169" lon="2.50652">
        <ele>12.81</ele>
        <time>2021-07-20T12:24:16Z</time>
      </trkpt>
      <trkpt lat="48.71168" lon="2.50631">
        <ele>12.81</ele>
        <time>2021-07-20T12:24:28Z</time>
      </trkpt>
      <trkpt lat="48.71166" lon="2.50614">
        <ele>12.77</ele>
        <time>2021-07-20T12:24:38Z</time>
      </trkpt>
      <trkpt lat="48.71167" lon="2.506">
        <ele>12.82</ele>
        <time>2021-07-20T12:24:53Z</time>
      </trkpt>
      <trkpt lat="48.71163" lon="2.50598">
        <ele>12.81</ele>
        <time>2021-07-20T12:25:00Z</time>
      </trkpt>
      <trkpt lat="48.71162" lon="2.50592">
        <ele>12.85</ele>
        <time>2021-07-20T12:25:11Z</time>
      </trkpt>
      <trkpt lat="48.71156" lon="2.50577">
        <ele>12.93</ele>
        <time>2021-07-20T12:25:25Z</time>
      </trkpt>
      <trkpt lat="48.7115" lon="2.50566">
        <ele>12.96</ele>
        <time>2021-07-20T12:25:34Z</time>
      </trkpt>
      <trkpt lat="48.71144" lon="2.50555">
        <ele>12.97</ele>
        <time>2021-07-20T12:25:45Z</time>
      </trkpt>
      <trkpt lat="48.71142" lon="2.50543">
        <ele>12.99</ele>
        <time>2021-07-20T12:25:56Z</time>
      </trkpt>
      <trkpt lat="48.71131" lon="2.50523">
        <ele>12.96</ele>
        <time>2021-07-20T12:26:07Z</time>
      </trkpt>
      <trkpt lat="48.71121" lon="2.50505">
        <ele>12.94</ele>
        <time>2021-07-20T12:26:18Z</time>
      </trkpt>
      <trkpt lat="48.71115" lon="2.50488">
        <ele>12.89</ele>
        <time>2021-07-20T12:26:29Z</time>
      </trkpt>
      <trkpt lat="48.71111" lon="2.50474">
        <ele>12.8</ele>
        <time>2021-07-20T12:26:39Z</time>
      </trkpt>
      <trkpt lat="48.71105" lon="2.50463">
        <ele>12.71</ele>
        <time>2021-07-20T12:26:50Z</time>
      </trkpt>
      <trkpt lat="48.71102" lon="2.50451">
        <ele>12.62</ele>
        <time>2021-07-20T12:27:01Z</time>
      </trkpt>
      <trkpt lat="48.71099" lon="2.50439">
        <ele>12.5</ele>
        <time>2021-07-20T12:27:14Z</time>
      </trkpt>
      <trkpt lat="48.71096" lon="2.50425">
        <ele>12.38</ele>
        <time>2021-07-20T12:27:26Z</time>
      </trkpt>
      <trkpt lat="48.71092" lon="2.50411">
        <ele>12.29</ele>
        <time>2021-07-20T12:27:37Z</time>
      </trkpt>
      <trkpt lat="48.7109" lon="2.50399">
        <ele>11.38</ele>
        <time>2021-07-20T12:27:52Z</time>
      </trkpt>
      <trkpt lat="48.71078" lon="2.50383">
        <ele>11.19</ele>
        <time>2021-07-20T12:28:06Z</time>
      </trkpt>
      <trkpt lat="48.71074" lon="2.5037">
        <ele>11.01</ele>
        <time>2021-07-20T12:28:17Z</time>
      </trkpt>
      <trkpt lat="48.71069" lon="2.50364">
        <ele>10.92</ele>
        <time>2021-07-20T12:28:24Z</time>
      </trkpt>
      <trkpt lat="48.7106" lon="2.50349">
        <ele>10.77</ele>
        <time>2021-07-20T12:28:36Z</time>
      </trkpt>
      <trkpt lat="48.71052" lon="2.50335">
        <ele>10.54</ele>
        <time>2021-07-20T12:28:47Z</time>
      </trkpt>
      <trkpt lat="48.71046" lon="2.50322">
        <ele>10.31</ele>
        <time>2021-07-20T12:28:59Z</time>
      </trkpt>
      <trkpt lat="48.71042" lon="2.50314">
        <ele>10.11</ele>
        <time>2021-07-20T12:29:11Z</time>
      </trkpt>
      <trkpt lat="48.71036" lon="2.50293">
        <ele>9.86</ele>
        <time>2021-07-20T12:29:23Z</time>
      </trkpt>
      <trkpt lat="48.71033" lon="2.50284">
        <ele>9.76</ele>
        <time>2021-07-20T12:29:35Z</time>
      </trkpt>
      <trkpt lat="48.71026" lon="2.50275">
        <ele>9.61</ele>
        <time>2021-07-20T12:29:42Z</time>
      </trkpt>
      <trkpt lat="48.71019" lon="2.50262">
        <ele>9.45</ele>
        <time>2021-07-20T12:29:51Z</time>
      </trkpt>
      <trkpt lat="48.71014" lon="2.50253">
        <ele>9.35</ele>
        <time>2021-07-20T12:29:59Z</time>
      </trkpt>
      <trkpt lat="48.71007" lon="2.50241">
        <ele>9.22</ele>
        <time>2021-07-20T12:30:09Z</time>
      </trkpt>
      <trkpt lat="48.71001" lon="2.50222">
        <ele>9.05</ele>
        <time>2021-07-20T12:30:20Z</time>
      </trkpt>
      <trkpt lat="48.70994" lon="2.50213">
        <ele>8.99</ele>
        <time>2021-07-20T12:30:32Z</time>
      </trkpt>
      <trkpt lat="48.7099" lon="2.50205">
        <ele>8.77</ele>
        <time>2021-07-20T12:30:44Z</time>
      </trkpt>
      <trkpt lat="48.70989" lon="2.50196">
        <ele>8.66</ele>
        <time>2021-07-20T12:30:56Z</time>
      </trkpt>
      <trkpt lat="48.7099" lon="2.50192">
        <ele>8.55</ele>
        <time>2021-07-20T12:31:08Z</time>
      </trkpt>
      <trkpt lat="48.70984" lon="2.50202">
        <ele>8.54</ele>
        <time>2021-07-20T12:31:19Z</time>
      </trkpt>
      <trkpt lat="48.70977" lon="2.50208">
        <ele>8.53</ele>
        <time>2021-07-20T12:31:30Z</time>
      </trkpt>
      <trkpt lat="48.7097" lon="2.502">
        <ele>8.51</ele>
        <time>2021-07-20T12:31:41Z</time>
      </trkpt>
      <trkpt lat="48.70961" lon="2.50188">
        <ele>8.49</ele>
        <time>2021-07-20T12:31:55Z</time>
      </trkpt>
      <trkpt lat="48.70956" lon="2.50176">
        <ele>8.52</ele>
        <time>2021-07-20T12:32:04Z</time>
      </trkpt>
      <trkpt lat="48.70949" lon="2.50157">
        <ele>8.49</ele>
        <time>2021-07-20T12:32:17Z</time>
      </trkpt>
      <trkpt lat="48.70946" lon="2.50151">
        <ele>8.48</ele>
        <time>2021-07-20T12:32:23Z</time>
      </trkpt>
      <trkpt lat="48.70945" lon="2.50139">
        <ele>8.48</ele>
        <time>2021-07-20T12:32:34Z</time>
      </trkpt>
      <trkpt lat="48.7095" lon="2.5013">
        <ele>8.46</ele>
        <time>2021-07-20T12:32:42Z</time>
      </trkpt>
      <trkpt lat="48.70956" lon="2.50118">
        <ele>8.49</ele>
        <time>2021-07-20T12:32:52Z</time>
      </trkpt>
      <trkpt lat="48.70957" lon="2.50106">
        <ele>8.45</ele>
        <time>2021-07-20T12:33:01Z</time>
      </trkpt>
      <trkpt lat="48.70956" lon="2.50105">
        <ele>8.45</ele>
        <time>2021-07-20T12:33:02Z</time>
      </trkpt>
      <trkpt lat="48.70949" lon="2.50093">
        <ele>8.52</ele>
        <time>2021-07-20T12:33:10Z</time>
      </trkpt>
      <trkpt lat="48.7094" lon="2.5008">
        <ele>8.5</ele>
        <time>2021-07-20T12:33:18Z</time>
      </trkpt>
      <trkpt lat="48.70932" lon="2.50067">
        <ele>8.53</ele>
        <time>2021-07-20T12:33:26Z</time>
      </trkpt>
      <trkpt lat="48.70928" lon="2.50054">
        <ele>8.55</ele>
        <time>2021-07-20T12:33:34Z</time>
      </trkpt>
      <trkpt lat="48.70925" lon="2.50042">
        <ele>8.59</ele>
        <time>2021-07-20T12:33:42Z</time>
      </trkpt>
      <trkpt lat="48.70921" lon="2.50026">
        <ele>8.73</ele>
        <time>2021-07-20T12:33:56Z</time>
      </trkpt>
      <trkpt lat="48.70919" lon="2.50022">
        <ele>8.76</ele>
        <time>2021-07-20T12:34:02Z</time>
      </trkpt>
      <trkpt lat="48.70918" lon="2.50015">
        <ele>8.8</ele>
        <time>2021-07-20T12:34:09Z</time>
      </trkpt>
      <trkpt lat="48.7092" lon="2.50007">
        <ele>8.78</ele>
        <time>2021-07-20T12:34:15Z</time>
      </trkpt>
      <trkpt lat="48.70924" lon="2.49997">
        <ele>8.82</ele>
        <time>2021-07-20T12:34:25Z</time>
      </trkpt>
      <trkpt lat="48.70926" lon="2.4999">
        <ele>11.24</ele>
        <time>2021-07-20T12:34:28Z</time>
      </trkpt>
      <trkpt lat="48.70931" lon="2.49968">
        <ele>11.29</ele>
        <time>2021-07-20T12:34:39Z</time>
      </trkpt>
      <trkpt lat="48.70925" lon="2.49953">
        <ele>11.31</ele>
        <time>2021-07-20T12:34:50Z</time>
      </trkpt>
      <trkpt lat="48.7092" lon="2.49948">
        <ele>11.32</ele>
        <time>2021-07-20T12:34:59Z</time>
      </trkpt>
      <trkpt lat="48.70911" lon="2.4995">
        <ele>11.38</ele>
        <time>2021-07-20T12:35:11Z</time>
      </trkpt>
      <trkpt lat="48.70905" lon="2.49952">
        <ele>11.39</ele>
        <time>2021-07-20T12:35:23Z</time>
      </trkpt>
      <trkpt lat="48.70905" lon="2.4995">
        <ele>11.45</ele>
        <time>2021-07-20T12:35:34Z</time>
      </trkpt>
      <trkpt lat="48.70908" lon="2.4995">
        <ele>11.53</ele>
        <time>2021-07-20T12:35:41Z</time>
      </trkpt>
      <trkpt lat="48.70919" lon="2.49942">
        <ele>11.54</ele>
        <time>2021-07-20T12:35:55Z</time>
      </trkpt>
      <trkpt lat="48.70926" lon="2.49935">
        <ele>12.41</ele>
        <time>2021-07-20T12:36:05Z</time>
      </trkpt>
      <trkpt lat="48.70931" lon="2.49931">
        <ele>12.39</ele>
        <time>2021-07-20T12:36:09Z</time>
      </trkpt>
      <trkpt lat="48.70936" lon="2.49927">
        <ele>12.37</ele>
        <time>2021-07-20T12:36:17Z</time>
      </trkpt>
      <trkpt lat="48.70935" lon="2.49927">
        <ele>12.34</ele>
        <time>2021-07-20T12:36:27Z</time>
      </trkpt>
      <trkpt lat="48.70928" lon="2.49924">
        <ele>12.36</ele>
        <time>2021-07-20T12:36:38Z</time>
      </trkpt>
      <trkpt lat="48.70918" lon="2.49922">
        <ele>12.36</ele>
        <time>2021-07-20T12:36:51Z</time>
      </trkpt>
      <trkpt lat="48.70907" lon="2.49909">
        <ele>12.38</ele>
        <time>2021-07-20T12:37:03Z</time>
      </trkpt>
      <trkpt lat="48.70906" lon="2.49907">
        <ele>9.97</ele>
        <time>2021-07-20T12:37:05Z</time>
      </trkpt>
      <trkpt lat="48.70906" lon="2.49899">
        <ele>9.98</ele>
        <time>2021-07-20T12:37:09Z</time>
      </trkpt>
      <trkpt lat="48.70905" lon="2.49893">
        <ele>9.97</ele>
        <time>2021-07-20T12:37:12Z</time>
      </trkpt>
      <trkpt lat="48.70906" lon="2.49882">
        <ele>10.02</ele>
        <time>2021-07-20T12:37:20Z</time>
      </trkpt>
      <trkpt lat="48.70905" lon="2.49877">
        <ele>9.18</ele>
        <time>2021-07-20T12:37:23Z</time>
      </trkpt>
      <trkpt lat="48.70903" lon="2.49869">
        <ele>9.2</ele>
        <time>2021-07-20T12:37:27Z</time>
      </trkpt>
      <trkpt lat="48.709" lon="2.49859">
        <ele>8.47</ele>
        <time>2021-07-20T12:37:32Z</time>
      </trkpt>
      <trkpt lat="48.70893" lon="2.49856">
        <ele>8.49</ele>
        <time>2021-07-20T12:37:37Z</time>
      </trkpt>
      <trkpt lat="48.70887" lon="2.49856">
        <ele>8.51</ele>
        <time>2021-07-20T12:37:42Z</time>
      </trkpt>
      <trkpt lat="48.70881" lon="2.49858">
        <ele>8.52</ele>
        <time>2021-07-20T12:37:47Z</time>
      </trkpt>
      <trkpt lat="48.70878" lon="2.49859">
        <ele>8.54</ele>
        <time>2021-07-20T12:37:50Z</time>
      </trkpt>
      <trkpt lat="48.70869" lon="2.49862">
        <ele>8.57</ele>
        <time>2021-07-20T12:38:00Z</time>
      </trkpt>
      <trkpt lat="48.70852" lon="2.49861">
        <ele>8.67</ele>
        <time>2021-07-20T12:38:13Z</time>
      </trkpt>
      <trkpt lat="48.70842" lon="2.49859">
        <ele>8.69</ele>
        <time>2021-07-20T12:38:22Z</time>
      </trkpt>
      <trkpt lat="48.70832" lon="2.49851">
        <ele>8.76</ele>
        <time>2021-07-20T12:38:31Z</time>
      </trkpt>
      <trkpt lat="48.70823" lon="2.49832">
        <ele>8.83</ele>
        <time>2021-07-20T12:38:42Z</time>
      </trkpt>
      <trkpt lat="48.70817" lon="2.49824">
        <ele>8.89</ele>
        <time>2021-07-20T12:38:53Z</time>
      </trkpt>
      <trkpt lat="48.70809" lon="2.4983">
        <ele>8.95</ele>
        <time>2021-07-20T12:39:01Z</time>
      </trkpt>
      <trkpt lat="48.70802" lon="2.49842">
        <ele>9.1</ele>
        <time>2021-07-20T12:39:12Z</time>
      </trkpt>
      <trkpt lat="48.70797" lon="2.4985">
        <ele>9.16</ele>
        <time>2021-07-20T12:39:19Z</time>
      </trkpt>
      <trkpt lat="48.70789" lon="2.49863">
        <ele>9.24</ele>
        <time>2021-07-20T12:39:29Z</time>
      </trkpt>
      <trkpt lat="48.7078" lon="2.49871">
        <ele>9.34</ele>
        <time>2021-07-20T12:39:41Z</time>
      </trkpt>
      <trkpt lat="48.70775" lon="2.4988">
        <ele>9.45</ele>
        <time>2021-07-20T12:39:51Z</time>
      </trkpt>
    </trkseg>
  </trk>
</gpx>